[[{"header":{"parameterUnit":"m.s-1","parameterCategory":1,"la1":30.6,"la2":28.766,"lo1":-90.7593,"lo2":-88.6598,"dy":0.0162,"dx":0.0183,"nx":116,"ny":114,"refTime":"2024-06-03T18:00:00:Z","depth":0,"parameterNumber":2,"parameterNumberName":"U-component_of_WINDS"},"data":[0.0,0.0,0.0,0.0,0.0,0.0,0.0,0.0,0.0,0.0,0.0,0.0,0.0,0.0,0.0,0.0,0.0,0.0,0.0,0.0,0.0,0.0,0.0,0.0,0.0,0.0,0.0,0.0,0.0,0.0,0.0,0.0,0.0,0.0,0.0,0.0,0.0,0.0,0.0,0.0,0.0,0.0,0.0,0.0,0.0,0.0,0.0,0.0,0.0,0.0,0.0,0.0,0.0,0.0,0.0,0.0,0.0,0.0,0.0,0.0,0.0,0.0,0.0,0.0,0.0,0.0,0.0,0.0,0.0,0.0,0.0,0.0,0.0,0.0,0.0,0.0,0.0,0.0,0.0,0.0,0.0,0.0,0.0,0.0,0.0,0.0,0.0,0.0,0.0,0.0,0.0,0.0,0.0,0.0,0.0,0.0,0.0,0.0,0.0,0.0,0.0,0.0,0.0,0.0,0.0,0.0,0.0,0.0,0.0,0.0,0.0,0.0,0.0,0.0,0.0,0.0,0.0,0.0,0.0,0.0,0.0,0.0,0.0,0.0,0.0,0.0,0.0,0.0,0.0,0.0,0.0,0.0,0.0,0.0,0.0,0.0,0.0,0.0,0.0,0.0,0.0,0.0,0.0,0.0,0.0,0.0,0.0,0.0,0.0,0.0,0.0,0.0,0.0,0.0,0.0,0.0,0.0,0.0,0.0,0.0,0.0,0.0,0.0,0.0,0.0,0.0,0.0,0.0,0.0,0.0,0.0,0.0,0.0,0.0,0.0,0.0,0.0,0.0,0.0,0.0,0.0,0.0,0.0,0.0,0.0,0.0,0.0,0.0,0.0,0.0,0.0,0.0,0.0,0.0,0.0,0.0,0.0,0.0,0.0,0.0,0.0,0.0,0.0,0.0,0.0,0.0,0.0,0.0,0.0,0.0,0.0,0.0,0.0,0.0,0.0,0.0,0.0,0.0,0.0,0.0,0.0,0.0,0.0,0.0,0.0,0.0,0.0,0.0,0.0,0.0,0.0,0.0,0.0,0.0,0.0,0.0,0.0,0.0,0.0,0.0,0.0,0.0,0.0,0.0,0.0,0.0,0.0,0.0,0.0,0.0,0.0,0.0,0.0,0.0,0.0,0.0,0.0,0.0,0.0,0.0,0.0,0.0,0.0,0.0,0.0,0.0,0.0,0.0,0.0,0.0,0.0,0.0,0.0,0.0,0.0,0.0,0.0,0.0,0.0,0.0,0.0,0.0,0.0,0.0,0.0,0.0,0.0,0.0,0.0,0.0,0.0,0.0,0.0,0.0,0.0,0.0,0.0,0.0,0.0,0.0,0.0,0.0,0.0,0.0,0.0,0.0,0.0,0.0,0.0,0.0,0.0,0.0,0.0,0.0,0.0,0.0,0.0,0.0,0.0,0.0,0.0,0.0,0.0,0.0,0.0,0.0,0.0,0.0,0.0,0.0,0.0,0.0,0.0,0.0,0.0,0.0,0.0,0.0,0.0,0.0,0.0,0.0,0.0,0.0,0.0,0.0,0.0,0.0,0.0,0.0,0.0,0.0,0.0,0.0,0.0,0.0,0.0,0.0,0.0,0.0,0.0,0.0,0.0,0.0,0.0,0.0,0.0,0.0,0.0,0.0,0.0,0.0,0.0,0.0,0.0,0.0,0.0,0.0,0.0,0.0,0.0,0.0,0.0,0.0,0.0,0.0,0.0,0.0,0.0,0.0,0.0,0.0,0.0,0.0,0.0,0.0,0.0,0.0,0.0,0.0,0.0,0.0,0.0,0.0,0.0,0.0,0.0,0.0,0.0,0.0,0.0,0.0,0.0,0.0,0.0,0.0,0.0,0.0,0.0,0.0,0.0,0.0,0.0,0.0,0.0,0.0,0.0,0.0,0.0,0.0,0.0,0.0,0.0,0.0,0.0,0.0,0.0,0.0,0.0,0.0,0.0,0.0,0.0,0.0,0.0,0.0,0.0,0.0,0.0,0.0,0.0,0.0,0.0,0.0,0.0,0.0,0.0,0.0,0.0,0.0,0.0,0.0,0.0,0.0,0.0,0.0,0.0,0.0,0.0,0.0,0.0,0.0,0.0,0.0,0.0,0.0,0.0,0.0,0.0,0.0,0.0,0.0,0.0,0.0,0.0,0.0,0.0,0.0,0.0,0.0,0.0,0.0,0.0,0.0,0.0,0.0,0.0,0.0,0.0,0.0,0.0,0.0,0.0,0.0,0.0,0.0,0.0,0.0,0.0,0.0,0.0,0.0,0.0,0.0,0.0,0.0,0.0,0.0,0.0,0.0,0.0,0.0,0.0,0.0,0.0,0.0,0.0,0.0,0.0,0.0,0.0,0.0,0.0,0.0,0.0,0.0,0.0,0.0,0.0,0.0,0.0,0.0,0.0,0.0,0.0,0.0,0.0,0.0,0.0,0.0,0.0,0.0,0.0,0.0,0.0,0.0,0.0,0.0,0.0,0.0,0.0,0.0,0.0,0.0,0.0,0.0,0.0,0.0,0.0,0.0,0.0,0.0,0.0,0.0,0.0,0.0,0.0,0.0,0.0,0.0,0.0,0.0,0.0,0.0,0.0,0.0,0.0,0.0,0.0,0.0,0.0,0.0,0.0,0.0,0.0,0.0,0.0,0.0,0.0,0.0,0.0,0.0,0.0,0.0,0.0,0.0,0.0,0.0,0.0,0.0,0.0,0.0,0.0,0.0,0.0,0.0,0.0,0.0,0.0,0.0,0.0,0.0,0.0,0.0,0.0,0.0,0.0,0.0,0.0,0.0,0.0,0.0,0.0,0.0,0.0,0.0,0.0,0.0,0.0,0.0,0.0,0.0,0.0,0.0,0.0,0.0,0.0,0.0,0.0,0.0,0.0,0.0,0.0,0.0,0.0,0.0,0.0,0.0,0.0,0.0,0.0,0.0,0.0,0.0,0.0,0.0,0.0,0.0,0.0,0.0,0.0,0.0,0.0,0.0,0.0,0.0,0.0,0.0,0.0,0.0,0.0,0.0,0.0,0.0,0.0,0.0,0.0,0.0,0.0,0.0,0.0,0.0,0.0,0.0,0.0,0.0,0.0,0.0,0.0,0.0,0.0,0.0,0.0,0.0,0.0,0.0,0.0,0.0,0.0,0.0,0.0,0.0,0.0,0.0,0.0,0.0,0.0,0.0,0.0,0.0,0.0,0.0,0.0,0.0,0.0,0.0,0.0,0.0,0.0,0.0,0.0,0.0,0.0,0.0,0.0,0.0,0.0,0.0,0.0,0.0,0.0,0.0,0.0,0.0,0.0,0.0,0.0,0.0,0.0,0.0,0.0,0.0,0.0,0.0,0.0,0.0,0.0,0.0,0.0,0.0,0.0,0.0,0.0,0.0,0.0,0.0,0.0,0.0,0.0,0.0,0.0,0.0,0.0,0.0,0.0,0.0,0.0,0.0,0.0,0.0,0.0,0.0,0.0,0.0,0.0,0.0,0.0,0.0,0.0,0.0,0.0,0.0,0.0,0.0,0.0,0.0,0.0,0.0,0.0,0.0,0.0,0.0,0.0,0.0,0.0,0.0,0.0,0.0,0.0,0.0,0.0,0.0,0.0,0.0,0.0,0.0,0.0,0.0,0.0,0.0,0.0,0.0,0.0,0.0,0.0,0.0,0.0,0.0,0.0,0.0,0.0,0.0,0.0,0.0,0.0,0.0,0.0,0.0,0.0,0.0,0.0,0.0,0.0,0.0,0.0,0.0,0.0,0.0,0.0,0.0,0.0,0.0,0.0,0.0,0.0,0.0,0.0,0.0,0.0,0.0,0.0,0.0,0.0,0.0,0.0,0.0,0.0,0.0,0.0,0.0,0.0,0.0,0.0,0.0,0.0,0.0,0.0,0.0,0.0,0.0,0.0,0.0,0.0,0.0,0.0,0.0,0.0,0.0,0.0,0.0,0.0,0.0,0.0,0.0,0.0,0.0,0.0,0.0,0.0,0.0,0.0,0.0,0.0,0.0,0.0,0.0,0.0,0.0,0.0,0.0,0.0,0.0,0.0,0.0,0.0,0.0,0.0,0.0,0.0,0.0,0.0,0.0,0.0,0.0,0.0,0.0,0.0,0.0,0.0,0.0,0.0,0.0,0.0,0.0,0.0,0.0,0.0,0.0,0.0,0.0,0.0,0.0,0.0,0.0,0.0,0.0,0.0,0.0,0.0,0.0,0.0,0.0,0.0,0.0,0.0,0.0,0.0,0.0,0.0,0.0,0.0,0.0,0.0,0.0,0.0,0.0,0.0,0.0,0.0,0.0,0.0,0.0,0.0,0.0,0.0,0.0,0.0,0.0,0.0,0.0,0.0,0.0,0.0,0.0,0.0,0.0,0.0,0.0,0.0,0.0,0.0,0.0,0.0,0.0,0.0,0.0,0.0,0.0,0.0,0.0,0.0,0.0,0.0,0.0,0.0,0.0,0.0,0.0,0.0,0.0,0.0,0.0,0.0,0.0,0.0,0.0,0.0,0.0,0.0,0.0,0.0,0.0,0.0,0.0,0.0,0.0,0.0,0.0,0.0,0.0,0.0,0.0,0.0,0.0,0.0,0.0,0.0,0.0,0.0,0.0,0.0,0.0,0.0,0.0,0.0,0.0,0.0,0.0,0.0,0.0,0.0,0.0,0.0,0.0,0.0,0.0,0.0,0.0,0.0,0.0,0.0,0.0,0.0,0.0,0.0,0.0,0.0,0.0,0.0,0.0,0.0,0.0,0.0,0.0,0.0,0.0,0.0,0.0,0.0,0.0,0.0,0.0,0.0,0.0,0.0,0.0,0.0,0.0,0.0,0.0,0.0,0.0,0.0,0.0,0.0,0.0,0.0,0.0,0.0,0.0,0.0,0.0,0.0,0.0,0.0,0.0,0.0,0.0,0.0,0.0,0.0,0.0,0.0,0.0,0.0,0.0,0.0,0.0,0.0,0.0,0.0,0.0,0.0,0.0,0.0,0.0,0.0,0.0,0.0,0.0,0.0,0.0,0.0,0.0,0.0,0.0,0.0,0.0,0.0,0.0,0.0,0.0,0.0,0.0,0.0,0.0,0.0,0.0,0.0,0.0,0.0,0.0,0.0,0.0,0.0,0.0,0.0,0.0,0.0,0.0,0.0,0.0,0.0,0.0,0.0,0.0,0.0,0.0,0.0,0.0,0.0,0.0,0.0,0.0,0.0,0.0,0.0,0.0,0.0,0.0,0.0,0.0,0.0,0.0,0.0,0.0,0.0,0.0,0.0,0.0,0.0,0.0,0.0,0.0,0.0,0.0,0.0,0.0,0.0,0.0,0.0,0.0,0.0,0.0,0.0,0.0,0.0,0.0,0.0,0.0,0.0,0.0,0.0,0.0,0.0,0.0,0.0,0.0,0.0,0.0,0.0,0.0,0.0,0.0,0.0,0.0,0.0,0.0,0.0,0.0,0.0,0.0,0.0,0.0,0.0,0.0,0.0,0.0,0.0,0.0,0.0,0.0,0.0,0.0,0.0,0.0,0.0,0.0,0.0,0.0,0.0,0.0,0.0,0.0,0.0,0.0,0.0,0.0,0.0,0.0,0.0,0.0,0.0,0.0,0.0,0.0,0.0,0.0,0.0,0.0,0.0,0.0,0.0,0.0,0.0,0.0,0.0,0.0,0.0,0.0,0.0,0.0,0.0,0.0,0.0,0.0,0.0,0.0,0.0,0.0,0.0,0.0,0.0,0.0,0.0,0.0,0.0,0.0,0.0,0.0,0.0,0.0,0.0,0.0,0.0,0.0,0.0,0.0,0.0,0.0,0.0,0.0,0.0,0.0,0.0,0.0,0.0,0.0,0.0,0.0,0.0,0.0,0.0,0.0,0.0,0.0,0.0,0.0,0.0,0.0,0.0,0.0,0.0,0.0,0.0,0.0,0.0,0.0,0.0,0.0,0.0,0.0,0.0,0.0,0.0,0.0,0.0,0.0,0.0,0.0,0.0,0.0,0.0,0.0,0.0,0.0,0.0,0.0,0.0,0.0,0.0,0.0,0.0,0.0,0.0,0.0,0.0,0.0,0.0,0.0,0.0,0.0,0.0,0.0,0.0,0.0,0.0,0.0,0.0,0.0,-2.0907,0.0,0.0,0.0,0.0,0.0,0.0,0.0,0.0,0.0,0.0,0.0,0.0,0.0,0.0,0.0,0.0,0.0,0.0,0.0,0.0,0.0,0.0,0.0,0.0,0.4199,0.4515,0.4843,0.543,0.5612,0.5209,0.0,0.0,0.0,0.0,0.0,0.4108,0.37,0.3294,0.2924,0.1994,0.1353,0.1014,0.0987,0.0799,0.0545,0.0,0.0,0.0,0.0,0.0,0.0,0.0,0.0,0.0,0.0,0.0,0.0,0.0,0.0,0.0,0.0,0.0,0.0,0.0,0.0,0.0,0.0,0.0,0.0,0.0,0.0,0.0,0.0,0.0,0.0,0.0,0.0,0.0,0.0,0.0,0.0,0.0,0.0,0.0,0.0,0.0,0.0,0.0,0.0,0.0,0.0,0.0,0.0,0.0,0.0,0.0,0.0,0.0,0.0,0.0,0.0,0.0,0.0,0.0,0.0,0.0,0.0,0.0,0.0,0.0,0.0,0.0,0.0,0.0,0.0,0.0,-2.206,0.0,0.0,0.0,0.0,0.0,0.0,0.0,0.0,0.0,0.0,0.0,0.0,0.0,0.0,0.0,0.0,0.0,0.0,0.0,0.0,0.0,0.2701,0.3342,0.3637,0.3947,0.4231,0.4657,0.4762,0.4559,0.467,0.0,0.0,0.0,0.3731,0.347,0.3037,0.2739,0.2526,0.1631,0.1048,0.0698,0.0723,0.0663,0.0577,0.0603,0.0,0.0,0.0,0.0,0.0,0.0,0.0,0.0,0.0,0.0,0.0,0.0,0.0,0.0,0.0,0.0,0.0,0.0,0.0,0.0,0.0,0.0,0.0,0.0,0.0,0.0,0.0,0.0,0.0,0.0,0.0,0.0,0.0,0.0,0.0,0.0,0.0,0.0,0.0,0.0,0.0,0.0,0.0,0.0,0.0,0.0,0.0,0.0,0.0,0.0,0.0,0.0,0.0,0.0,0.0,0.0,0.0,0.0,0.0,0.0,0.0,0.0,0.0,-2.6154,-2.6659,-2.6456,-2.7018,-2.6945,-2.6293,-2.4663,-2.4071,-2.4191,0.0,0.0,0.0,0.0,0.0,0.0,0.0,0.0,0.0,0.0,0.0,0.0,0.0,0.0,0.0,0.0,0.0,0.0,0.0,0.0,0.2317,0.268,0.3159,0.351,0.3679,0.4136,0.4395,0.4326,0.4061,0.0,0.0,0.3463,0.319,0.2982,0.2697,0.2329,0.185,0.1183,0.0834,0.0789,0.0793,0.0692,0.0536,0.0615,0.0683,0.0703,0.0,0.0,0.0,0.0,0.0,0.0,0.0,0.0,0.0,0.0,0.0,0.0,0.0,0.0,0.0,0.0,0.0,0.0,0.0,0.0,0.0,0.0,0.0,0.0,0.0,0.0,0.0,0.0,0.0,0.0,0.0,0.0,0.0,0.0,0.0,0.0,0.0,0.0,0.0,0.0,0.0,-1.5904,-1.7455,0.0,0.0,0.0,0.0,0.0,0.0,0.0,0.0,0.0,0.0,0.0,0.0,0.0,0.0,-2.5164,-2.6437,-2.7096,-2.7186,-2.7964,-2.8023,-2.744,-2.753,-2.7639,-2.7821,-2.7556,0.0,-2.4722,-2.4641,0.0,0.0,0.0,0.0,0.0,0.0,0.0,0.0,0.0,0.0,0.0,0.0,0.0,0.0,0.0,0.0,0.0,0.0,0.0,0.0,0.0,0.2797,0.3143,0.3135,0.3628,0.3922,0.3876,0.3736,0.3698,0.37,0.3391,0.3055,0.2781,0.2404,0.1886,0.1199,0.0963,0.0832,0.0832,0.0743,0.0697,0.0748,0.0749,0.0772,0.0764,0.0705,0.0,0.0,0.0,0.0,0.0,0.0,0.0,0.0,0.0,0.0,0.0,0.0,0.0,0.0,0.0,0.0,0.0,0.0,0.0,0.0,0.0,0.0,0.0,0.0,0.0,0.0,0.0,0.0,0.0,0.0,0.0,0.0,0.0,0.0,0.0,0.0,0.0,0.0,0.0,-1.6378,-1.7917,-1.8291,-1.8604,-1.8758,0.0,0.0,0.0,0.0,0.0,0.0,0.0,0.0,0.0,-2.4298,-2.5241,-2.6228,-2.729,-2.7859,-2.8338,-2.8712,-2.9759,-3.0088,-2.9819,-3.0567,-3.0488,-2.9805,-3.0144,-2.9034,-2.6968,-2.6634,-2.6145,-2.5592,0.0,0.0,0.0,0.0,0.0,-2.2185,0.0,0.0,0.0,0.0,0.0,0.0,0.0,0.0,0.0,0.0,0.0,0.0,0.1482,0.2176,0.2544,0.2551,0.2967,0.3224,0.313,0.3289,0.3413,0.3449,0.3143,0.2818,0.2598,0.2117,0.1525,0.0818,0.0902,0.0918,0.0918,0.0721,0.0729,0.0896,0.0874,0.0851,0.0826,0.0767,0.0738,0.0814,0.0,0.0,0.0,0.0,0.0,0.0,0.0,0.0,0.0,0.0,0.0,0.0,0.0,0.0,0.0,0.0,0.0,0.0,0.0,0.0,0.0,0.0,0.0,0.0,0.0,0.0,0.0,0.0,0.0,0.0,0.0,0.0,0.0,0.0,0.0,0.0,0.0,-1.8124,-1.9375,-1.917,-1.9907,-2.0258,0.0,0.0,0.0,0.0,0.0,0.0,-2.3415,-2.4672,-2.5764,-2.6602,-2.7425,-2.8427,-2.9594,-2.9774,-3.0103,-3.0597,-3.1569,-3.2033,-3.2078,-3.3051,-3.2855,-3.1663,-3.2046,-3.1322,-2.9653,-2.8608,-2.7958,-2.7636,-2.6663,-2.5845,-2.5177,-2.4627,-2.4126,-2.3702,0.0,0.0,0.0,0.0,0.0,0.0,0.0,0.0,0.0,0.0,0.0,0.0169,0.0133,0.1019,0.1735,0.1849,0.1959,0.206,0.2157,0.2426,0.2614,0.2751,0.2427,0.2243,0.2243,0.1744,0.1332,0.0903,0.0881,0.0895,0.0896,0.0897,0.0898,0.0898,0.0896,0.0894,0.0889,0.0828,0.0884,0.1087,0.1085,0.0,0.0,0.0,0.0,0.0,0.0,0.0,0.0,0.0,0.0,0.0,0.0,0.0,0.0,0.0,0.0,0.0,0.0,0.0,0.0,0.0,0.0,0.0,0.0,0.0,0.0,0.0,0.0,0.0,0.0,0.0,0.0,0.0,0.0,0.0,0.0,0.0,0.0,-2.0505,-2.1739,0.0,0.0,0.0,0.0,-2.34,-2.4103,-2.4761,-2.5435,-2.6707,-2.8023,-2.934,-3.0627,-3.1614,-3.2317,-3.2946,-3.326,-3.329,-3.3365,-3.3395,-3.3395,-3.3469,-3.3408,-3.3179,-3.3007,-3.279,-3.2445,-3.0366,-2.8755,-2.7668,-2.765,-2.6906,-2.592,-2.5778,-2.5354,-2.4922,0.0,0.0,0.0,0.0,0.0,-0.2075,-0.204,-0.1931,-0.1915,-0.2137,-0.1284,-0.0489,-0.0046,0.0345,0.0669,0.0884,0.1489,0.187,0.1879,0.2216,0.249,0.2571,0.2394,0.215,0.186,0.1392,0.1063,0.0881,0.0613,0.0617,0.0898,0.0617,0.0449,0.0449,0.0785,0.0729,0.0447,0.0747,0.0986,0.1222,0.1116,0.1308,0.0,0.0,0.0,0.0,0.0,0.0,0.0,0.0,0.0,0.0,0.0,0.0,0.0,0.0,0.0,0.0,0.0,0.0,0.0,0.0,0.0,0.0,0.0,0.0,0.0,0.0,0.0,0.0,0.0,0.0,0.0,0.0,0.0,0.0,0.0,0.0,0.0,-2.1949,-2.3131,0.0,-2.3924,-2.4522,-2.5107,-2.5619,-2.6672,-2.7409,-2.765,-2.935,-3.0468,-3.0821,-3.2108,-3.2901,-3.314,-3.338,-3.3499,-3.3499,-3.3918,-3.4128,-3.4143,-3.4592,-3.4483,-3.3891,-3.413,-3.3657,-3.2767,-3.2285,-3.1598,-3.0771,-3.0335,-2.9898,-2.9399,-2.8422,-2.7934,-2.7706,0.0,0.0,0.0,0.0,-0.2673,-0.2408,-0.2374,-0.2281,-0.2304,-0.2465,-0.1721,-0.0882,-0.0097,-0.0,0.0053,0.027,0.0938,0.1488,0.1703,0.2208,0.2477,0.2573,0.2377,0.2122,0.1703,0.1332,0.103,0.0673,0.0336,0.0336,0.0673,0.0336,0.0224,0.0224,0.0561,0.0617,0.0392,0.0766,0.1131,0.143,0.1425,0.1639,0.1952,0.0,0.0,0.0,0.0,0.0,0.0,0.0,0.0,0.0,0.0,0.0,0.0,0.0,0.0,0.0,0.0,0.0,0.0,0.0,0.0,0.0,0.0,0.0,0.0,0.0,0.0,0.0,0.0,0.0,0.0,0.0,0.0,0.0,0.0,0.0,-2.2897,-2.2981,-2.4716,-2.5786,-2.5615,-2.66,-2.7391,-2.778,-2.9063,-2.978,-2.9795,-3.1483,-3.2494,-3.2527,-3.3365,-3.3948,-3.4173,-3.4173,-3.4173,-3.4173,-3.4622,-3.4816,-3.4846,-3.5295,-3.5185,-3.4639,-3.4889,-3.4448,-3.3519,-3.3813,-3.3609,-3.3064,-3.2193,-3.1859,-3.1656,-3.0165,-2.9632,-2.9484,0.0,0.0,0.0,-0.3175,-0.2706,-0.2374,-0.251,-0.2494,-0.2503,-0.2514,-0.1857,-0.1065,-0.01,-0.0,-0.0,0.0056,0.0391,0.0881,0.1598,0.2208,0.2623,0.2675,0.2433,0.2128,0.1706,0.1655,0.1194,0.0168,0.0168,0.0168,0.0168,0.0168,0.0168,0.0168,0.0336,0.0505,0.0673,0.0842,0.1211,0.1762,0.2022,0.2192,0.228,0.0,0.0,0.0,0.0,0.0,0.0,0.0,0.0,0.0,0.0,0.0,0.0,0.0,0.0,0.0,0.0,0.0,0.0,0.0,0.0,0.0,0.0,0.0,0.0,0.0,0.0,0.0,0.0,0.0,0.0,0.0,0.0,0.0,-1.9782,-2.2013,-2.3713,-2.3714,-2.6551,-2.8284,-2.778,-2.9388,-3.0324,-2.9939,-3.1132,-3.1872,-3.186,-3.3155,-3.4029,-3.4457,-3.4502,-3.4831,-3.5489,-3.5504,-3.5504,-3.5504,-3.5504,-3.5504,-3.5504,-3.5504,-3.5504,-3.5504,-3.5294,-3.5082,-3.4868,-3.4765,-3.4563,-3.4298,-3.305,-3.2571,-3.2364,-3.0922,-3.0309,-3.0089,0.0,0.0,-0.3504,-0.3541,-0.3101,-0.2735,-0.2772,-0.2637,-0.2503,-0.2514,-0.186,-0.1047,-0.0101,-0.0,0.0278,0.0953,0.1096,0.1413,0.1929,0.234,0.2532,0.2479,0.2342,0.1951,0.1268,0.1161,0.0667,-0.0224,-0.0505,-0.0449,-0.0224,-0.0056,-0.0168,-0.0561,0.0336,0.0617,0.0393,0.0952,0.1615,0.2261,0.2148,0.226,0.2522,0.0,0.0,0.0,0.0,0.0,0.0,0.0,0.0,0.0,0.0,0.0,0.0,0.0,0.0,0.0,0.0,0.0,0.0,0.0,0.0,0.0,0.0,0.0,0.0,0.0,0.0,0.0,0.0,0.0,0.0,0.0,0.0,-2.2505,-2.2411,-2.4303,-2.5864,-2.6411,-2.8465,-2.9996,-3.0613,-3.1435,-3.2283,-3.2959,-3.3211,-3.3379,-3.3379,-3.4197,-3.4604,-3.4535,-3.4966,-3.531,-3.5504,-3.5504,-3.5504,-3.5504,-3.5504,-3.5504,-3.5504,-3.5504,-3.5504,-3.5504,-3.5294,-3.5082,-3.4868,-3.4765,-3.4563,-3.4385,-3.4022,-3.3891,-3.3677,-3.2165,-3.0891,-2.9907,0.0,-0.3831,-0.3672,-0.3541,-0.3235,-0.2935,-0.2836,-0.2685,-0.2582,-0.251,-0.1852,-0.1059,-0.0101,-0.0,0.0446,0.1486,0.1584,0.1831,0.2421,0.252,0.2437,0.221,0.2366,0.1891,0.0838,0.0896,0.0448,-0.0617,-0.0842,-0.0842,-0.0617,-0.0168,-0.028,-0.0729,0.0393,0.0393,-0.0336,0.0951,0.1959,0.2685,0.2575,0.2661,0.2815,0.2767,0.2782,0.2666,0.1978,0.1709,0.146,-0.0,0.0,0.0,0.0,0.0,0.0,0.0,0.0,0.0,0.0,0.0,0.0,0.0,0.0,0.0,0.0,0.0,0.0,0.0,0.0,0.0,0.0,0.0,0.0,0.0,-2.2934,-2.443,-2.5118,-2.6397,-2.7518,-2.8282,-3.0257,-3.1799,-3.2476,-3.3263,-3.399,-3.4554,-3.4734,-3.4785,-3.4785,-3.5202,-3.5271,-3.4906,-3.5295,-3.5504,-3.5504,-3.5504,-3.5504,-3.5504,-3.5504,-3.5504,-3.5504,-3.5504,-3.5504,0.0,-3.5359,-3.5148,-3.4868,-3.4817,-3.4616,0.0,0.0,0.0,0.0,0.0,-3.1158,-2.9792,0.0,-0.3705,-0.3607,-0.3344,-0.3182,-0.3007,-0.2759,-0.2688,-0.2644,-0.2526,-0.1871,-0.1053,-0.01,-0.0,0.0494,0.171,0.18,0.213,0.2856,0.2805,0.2494,0.2014,0.2241,0.1791,0.056,0.0839,0.0336,-0.1065,-0.1178,-0.1122,-0.1009,-0.0392,-0.0337,-0.062,0.0393,0.0056,-0.1072,0.0896,0.224,0.3084,0.3132,0.313,0.3065,0.3025,0.299,0.2872,0.2068,0.1738,0.1482,0.0153,0.0,0.0,0.0,0.0,0.0,0.0,0.0,0.0,0.0,0.0,0.0,0.0,0.0,0.0,0.0,0.0,0.0,0.0,0.0,0.0,0.0,0.0,0.0,0.0,-2.4445,-2.6221,-2.7619,-2.8332,-2.8922,-2.9473,-3.1821,-3.3498,-3.3746,-3.4846,-3.5554,-3.5458,-3.5817,-3.6044,-3.5985,0.0,0.0,0.0,0.0,-3.5504,-3.5504,-3.5504,-3.5504,-3.5504,-3.5504,-3.5504,-3.5504,-3.5504,-3.5504,-3.5504,-3.5504,-3.5294,-3.4935,-3.4935,-3.4668,-3.4414,-3.4414,-3.4264,-3.3977,-3.2591,-3.1158,0.0,0.0,-0.3705,-0.3607,-0.3344,-0.3182,-0.3007,-0.2759,-0.2688,-0.2644,-0.2526,-0.187,-0.106,-0.0097,-0.0,0.0468,0.1703,0.1825,0.2137,0.2941,0.3263,0.3187,0.2662,0.1582,0.1056,0.129,0.0561,-0.0504,-0.1961,-0.1847,-0.1847,-0.1959,-0.123,-0.0965,-0.105,-0.0057,0.0057,-0.0524,0.0622,0.2012,0.3474,0.3471,0.3357,0.3074,0.2834,0.2775,0.2717,0.254,0.2094,0.1431,0.055,0.027,0.0263,0.0259,0.0152,0.0,0.0,0.0,0.0,0.0,0.0,0.0,0.0,0.0,0.0,0.0,0.0,0.0,0.0,0.0,0.0,0.0,0.0,0.0,-2.4949,-2.6357,-2.7527,-2.9011,-3.0144,-3.0685,-3.0322,-3.2471,-3.4172,-3.4601,-3.6162,-3.7313,-3.7641,-3.7202,-3.6808,-3.6703,-3.6259,0.0,-3.5504,-3.5504,-3.5504,-3.5504,-3.5504,-3.5504,-3.5504,0.0,0.0,-3.5504,-3.5504,-3.5504,-3.5504,-3.5504,-3.5323,-3.509,-3.4949,-3.4668,-3.4414,-3.4414,-3.3618,-3.2519,-3.2218,-3.1158,-2.9792,-0.3863,-0.3672,-0.344,-0.3223,-0.3093,-0.2926,-0.2728,-0.2741,-0.2778,-0.27,-0.1939,-0.0971,0.0139,0.0236,0.0477,0.1097,0.1808,0.2532,0.3246,0.3374,0.3115,0.2353,0.1444,0.0728,0.0336,-0.0168,-0.1007,-0.2127,-0.235,-0.2406,-0.2296,-0.1229,-0.0684,-0.053,0.0405,0.0527,0.0121,0.1538,0.2642,0.3462,0.3467,0.3385,0.3206,0.2986,0.2912,0.2856,0.2415,0.1967,0.1572,0.0898,0.0665,0.0654,0.0643,0.0263,-0.0308,0.0,0.0,0.0,0.0,0.0,0.0,0.0,0.0,0.0,0.0,0.0,0.0,0.0,0.0,-1.7485,-2.0092,0.0,-2.366,-2.63,-2.7713,-2.8883,-2.9909,-3.0588,-3.1043,-3.1336,-3.3087,-3.4558,-3.5261,-3.6405,-3.7318,-3.7642,-3.7235,-3.6951,-3.689,-3.6243,-3.5767,-3.5604,-3.5554,-3.5504,-3.5504,-3.5504,-3.5504,-3.5504,-3.5504,-3.5504,-3.5504,-3.5504,-3.5504,-3.5504,-3.5504,-3.5338,-3.5104,-3.4765,-3.4534,-3.4346,-3.3962,-3.3087,-3.2074,-3.1636,-3.0784,-2.9792,-0.4138,-0.3655,-0.3238,-0.3128,-0.3015,-0.2893,-0.2711,-0.2832,-0.2826,-0.2697,-0.1839,-0.0807,0.0359,0.0494,0.0578,0.0866,0.1849,0.2706,0.3437,0.3161,0.2563,0.1794,0.1291,0.0505,-0.0617,-0.0728,-0.1119,-0.1959,-0.2348,-0.246,-0.2352,-0.1069,-0.023,0.0178,0.0833,0.1029,0.0933,0.2472,0.3265,0.3378,0.3394,0.3409,0.3455,0.3116,0.2963,0.2796,0.2074,0.1796,0.174,0.1233,0.1009,0.1005,0.0977,0.0376,-0.0425,-0.0895,-0.1891,0.0,0.0,0.0,0.0,0.0,0.0,0.0,0.0,-1.3457,-1.4662,-1.6928,-1.7885,-1.9154,-2.1904,-2.3733,-2.5463,-2.7246,-2.8821,-2.9983,-3.0612,-3.0702,-3.1061,-3.2154,-3.3556,-3.4809,-3.5616,-3.6605,-3.7198,-3.7247,-3.7175,-3.7055,-3.6829,-3.6117,-3.5688,-3.5638,-3.5554,-3.5504,-3.5504,-3.5504,-3.5504,-3.5504,-3.5504,-3.5504,-3.5504,-3.5504,-3.5504,-3.5504,-3.5424,-3.5243,-3.5023,-3.4563,-3.4414,-3.4346,-3.3381,-3.2648,-3.2001,-3.1193,-3.0406,-2.9792,0.0,-0.3808,-0.3128,-0.3111,-0.3092,-0.2997,-0.2725,-0.2832,-0.2642,-0.1928,-0.1208,-0.0493,0.0314,0.0405,0.0954,0.2248,0.201,0.2155,0.2918,0.2191,0.1677,0.1515,0.0617,0.0168,0.0168,-0.0,-0.056,-0.1566,-0.1285,-0.1566,-0.2354,-0.1268,-0.0357,0.0368,0.043,0.1062,0.2049,0.2496,0.3022,0.3564,0.3515,0.3582,0.3624,0.3006,0.2464,0.2071,0.1903,0.179,0.179,0.1734,0.1513,0.1233,0.1229,0.0669,-0.0111,-0.0585,-0.1479,-0.2572,-0.3847,-0.5673,-0.7477,-0.879,-0.9933,-1.1358,0.0,-1.4857,-1.5835,-1.7965,-1.8929,-2.0116,-2.2692,-2.4405,-2.6186,-2.8506,-2.9759,-3.0642,-3.1258,-3.1362,-3.1675,-3.2478,-3.3799,-3.4939,-3.5719,-3.7568,-3.8531,-3.793,-3.7889,-3.7541,-3.6676,-3.6039,-3.5638,-3.5504,-3.5504,-3.5504,-3.5504,-3.5504,-3.5504,-3.5504,-3.5504,-3.5504,-3.5504,-3.5504,-3.5504,-3.5504,-3.5052,-3.4905,-3.4883,-3.4534,-3.4414,-3.4264,-3.2804,-3.2146,-3.2001,-3.1193,-3.0406,-2.9792,0.0,-0.3956,-0.3388,-0.3388,-0.3098,-0.2875,-0.2821,-0.2879,-0.2598,-0.1792,-0.1051,-0.0302,0.0476,0.0592,0.0975,0.1987,0.1864,0.1866,0.2259,0.201,0.1625,0.1178,0.0729,0.0449,0.0336,-0.0224,-0.0727,-0.1174,-0.106,-0.1172,-0.151,-0.0453,0.0469,0.1171,0.1294,0.1647,0.2246,0.2741,0.3085,0.3279,0.3243,0.3223,0.3215,0.2723,0.2465,0.224,0.1902,0.179,0.0,0.179,0.1659,0.1471,0.1143,0.0537,-0.0105,-0.0673,-0.1674,-0.3134,-0.518,-0.6542,-0.7791,-0.9651,-1.0785,-1.2139,-1.4686,-1.5658,-1.6746,-1.9509,-2.034,-2.1197,-2.3355,-2.5268,-2.6974,-2.8338,-2.9994,-3.121,-3.1437,-3.1482,-3.1796,-3.2492,-3.3203,-3.4171,-3.5671,-3.6908,-3.7531,-3.7279,-3.7219,-3.6919,-3.6087,-3.5767,-3.5589,-3.5589,-3.5554,-3.5504,-3.5504,-3.5504,-3.5504,-3.5504,-3.5504,-3.5504,-3.5504,-3.5504,-3.5789,-3.6252,-3.5703,-3.5427,-3.5277,-3.5088,-3.4445,-3.3589,-3.2506,-3.1783,-3.1341,-3.0558,-3.0062,-2.9842,0.0,-0.4139,-0.3603,-0.3692,-0.3155,-0.2807,-0.2898,-0.2823,-0.2506,-0.1748,-0.1002,-0.0214,0.0601,0.0709,0.0993,0.1665,0.1557,0.1549,0.1807,0.1868,0.1609,0.1009,0.1065,0.0952,0.0784,-0.0,-0.0447,-0.0559,-0.0558,-0.0502,-0.0391,0.0564,0.1279,0.1765,0.1919,0.211,0.2329,0.286,0.3085,0.3081,0.3026,0.2996,0.2926,0.2667,0.2633,0.2629,0.2272,0.2153,0.2149,0.2073,0.1983,0.1734,0.1154,0.0464,-0.0202,-0.0664,-0.1939,-0.3669,-0.5864,-0.7061,-0.8124,-1.0119,-1.1531,-1.296,-1.5097,-1.6126,-1.7465,-2.0105,-2.0957,-2.1782,-2.3469,-2.5598,-2.7323,-2.8068,-2.9883,-3.1315,-3.1452,-3.1482,-3.1739,-3.2342,-3.2798,-3.3732,-3.5451,-3.6158,-3.6521,-3.6538,-3.6662,-3.6415,-3.5752,-3.5539,-3.5554,-3.5638,-3.5554,-3.5504,-3.5504,-3.5504,-3.5504,-3.5504,-3.5504,-3.5504,-3.5519,-3.5729,-3.6163,-3.6679,-3.6354,-3.6119,-3.5883,-3.5689,-3.4895,-3.3648,-3.2869,-3.2057,-3.1302,-3.0519,-3.0143,-3.0093,0.0,0.0,-0.3681,-0.3843,-0.3347,-0.2907,-0.2912,-0.2684,-0.2281,-0.1703,-0.1073,-0.0358,0.0583,0.0717,0.0985,0.1744,0.1211,0.1116,0.1857,0.1514,0.13,0.1288,0.14,0.1566,0.1734,0.1176,0.0673,0.028,0.0673,0.0841,0.0842,0.1505,0.1763,0.1829,0.1944,0.2191,0.2584,0.2584,0.2774,0.3075,0.3015,0.2997,0.2984,0.2895,0.2968,0.3063,0.2969,0.2987,0.292,0.2817,0.253,0.2076,0.1567,0.0555,-0.0406,-0.0579,-0.201,-0.3892,-0.5366,-0.7093,-0.8792,-0.9843,-1.1878,-1.3913,-1.4984,-1.6337,-1.779,-1.9309,-2.0407,-2.1512,-2.2825,-2.4875,-2.6804,-2.8011,-2.9486,-3.0776,-3.1377,-3.1482,-3.164,-3.1996,-3.3048,-3.4149,0.0,-3.5791,-3.6129,-3.6212,-3.6616,-3.6523,-3.5752,-3.5539,-3.5504,-3.5504,-3.5504,-3.5504,-3.5504,-3.5504,-3.5504,-3.5504,-3.5504,-3.5504,-3.5534,-3.6349,-3.6611,-3.641,-3.6714,-3.674,-3.657,-3.6357,-3.5726,-3.485,-3.4128,-3.3298,-3.2436,-3.1661,-3.1022,-3.067,0.0,0.0,0.0,-0.3873,-0.3353,-0.2912,-0.2912,-0.2684,-0.2192,-0.1387,-0.0403,0.0,0.0,0.0,0.0,0.0,0.149,0.1438,0.1795,0.1649,0.1553,0.1572,0.1661,0.1567,0.1233,0.1009,0.0617,0.0112,0.0952,0.1231,0.1064,0.2149,0.2588,0.2468,0.2763,0.2946,0.313,0.313,0.319,0.3303,0.3228,0.3173,0.3103,0.3175,0.319,0.3109,0.0,0.3133,0.2968,0.2859,0.2632,0.2338,0.1604,0.0776,-0.0295,-0.1773,-0.3471,-0.5212,-0.6784,-0.8202,-0.9552,-1.1134,-1.2184,-1.318,-1.4744,-1.577,-1.686,-1.8747,-1.9746,-2.055,-2.1656,-2.3734,-2.5668,-2.6862,-2.867,-3.0334,-3.1377,-3.1855,-3.23,-3.2591,-3.3335,0.0,0.0,0.0,0.0,-3.6538,-3.6538,-3.6258,-3.5604,-3.5489,-3.5504,-3.5504,-3.5504,-3.5504,-3.5504,-3.5504,-3.5504,-3.5504,-3.5504,-3.5774,-3.6349,-3.6507,-3.7014,-3.7812,-3.7458,-3.7186,-3.7041,-3.6339,-3.5386,-3.4183,-3.3338,-3.2567,-3.183,-3.1883,-3.1825,-3.17,0.0,0.0,0.0,0.0,0.0,0.0,0.0,0.0,0.0,0.0,0.0,0.0,0.0,0.0,0.0,0.0,0.0,0.1595,0.1857,0.1847,0.1866,0.1969,0.2095,0.1966,0.1681,0.1164,0.072,0.0336,0.056,0.0951,0.151,0.2631,0.3056,0.2943,0.3157,0.3328,0.3394,0.3394,0.3394,0.3385,0.3336,0.3292,0.3173,0.3332,0.3307,0.0,0.3263,0.2928,0.2584,0.2775,0.2795,0.2533,0.1667,0.0484,-0.0949,-0.2925,-0.4433,-0.5813,-0.7638,-0.887,-1.003,-1.1485,-1.2293,-1.3033,-1.4269,-1.5187,-1.6187,-1.7645,-1.8614,-1.9533,-2.0471,-2.2341,-2.4326,-2.6217,-2.8111,-2.9985,-3.1603,-3.2526,-3.3051,-3.3347,-3.3939,-3.4577,0.0,0.0,0.0,-3.6492,-3.6383,-3.6085,-3.5683,-3.5569,-3.5504,-3.5504,-3.5504,-3.5504,-3.5504,-3.5504,-3.5504,-3.5504,-3.5744,-3.6118,-3.6678,-3.6894,-3.7486,-3.8263,-3.796,-3.7607,-3.7071,-3.6589,-3.5416,-3.3993,-3.3434,-3.2705,-3.2039,-3.239,-3.2516,-3.2516,0.0,0.0,0.0,0.0,0.0,0.0,0.0,0.0,0.0,0.0,0.0,0.0,0.0,0.0,0.0,0.0,0.0,0.0,0.1993,0.2091,0.2211,0.2479,0.2622,0.2769,0.2905,0.1627,0.0868,0.0842,-0.0336,0.0112,0.2015,0.2916,0.3254,0.3135,0.3237,0.3343,0.3343,0.3343,0.3287,0.3341,0.3403,0.3368,0.3322,0.3258,0.3314,0.3469,0.3197,0.2613,0.1988,0.2635,0.2789,0.2539,0.1484,-0.0402,-0.2495,-0.3974,-0.4941,-0.5878,-0.7897,-0.9201,-1.0221,-1.0912,-1.2282,-1.339,-1.345,-1.4582,-1.5766,-1.6126,-1.7241,-1.8442,-1.9254,-2.0798,-2.2906,-2.5897,-2.7768,-2.9635,-3.2109,-3.3246,-3.3864,-3.403,-3.479,-3.5324,-3.5522,-3.5797,0.0,-3.6211,0.0,-3.5973,-3.5973,-3.5683,-3.5504,-3.5504,-3.5534,-3.5534,-3.5504,-3.5534,-3.5549,-3.5564,-3.6222,-3.6552,-3.6626,-3.7645,-3.7997,-3.7826,-3.8326,-3.7886,-3.6936,-3.6844,-3.5896,-3.4397,-3.4314,-3.3823,-3.3081,-3.3081,-3.3081,-3.3081,0.0,0.0,0.0,0.0,0.0,0.0,0.0,0.0,0.0,0.0,0.0,0.0,0.0,0.0,0.0,0.0,0.0,0.0,0.2143,0.2294,0.2401,0.2356,0.2564,0.2383,0.1728,0.1372,0.0778,-0.0056,-0.0393,-0.028,0.028,0.2467,0.3482,0.3482,0.3513,0.3527,0.3527,0.3527,0.3519,0.3528,0.3529,0.3651,0.3606,0.2603,0.2071,0.2006,0.3086,0.3319,0.3023,0.2102,0.1034,-0.0099,-0.1636,-0.3289,-0.4707,-0.4871,-0.6178,-0.7837,-0.8801,-0.9836,-1.0746,-1.1312,-1.1804,-1.2236,-1.285,-1.3517,-1.4346,-1.5454,-1.6315,-1.7159,-1.8068,-1.9915,-2.2089,-2.4313,-2.7002,-2.9577,-3.178,-3.3484,-3.459,-3.4881,-3.5538,-3.5951,-3.6013,-3.6119,0.0,0.0,-3.5797,-3.5619,-3.5619,-3.5569,-3.5504,-3.5504,-3.5983,-3.5998,-3.5504,-3.5998,-3.6237,-3.6237,-3.6866,-3.7366,-3.7719,-3.7819,-3.8017,-3.8341,-3.8294,-3.772,-3.6858,-3.6201,-3.5332,-3.4314,-3.3654,-3.3326,-3.3081,-3.3081,-3.3081,-3.3081,0.0,0.0,0.0,0.0,0.0,0.0,0.0,0.0,0.0,0.0,0.0,0.0,0.0,0.0,0.0,0.0,0.0,0.0,0.0,0.1784,0.1821,0.1854,0.1855,0.1621,0.1117,0.0855,0.0435,-0.0224,-0.0224,-0.0224,-0.0168,0.1289,0.23,0.2805,0.2805,0.2805,0.2805,0.2805,0.2834,0.0,0.0,0.3182,0.3582,0.1691,0.0056,-0.1059,0.0493,0.1034,0.0814,-0.0862,-0.2397,-0.3667,-0.4467,-0.5669,-0.6677,-0.6515,-0.7495,-0.8818,-0.9394,-1.0203,-1.0996,-1.131,-1.156,-1.1772,-1.2171,-1.2696,-1.3405,-1.4496,-1.5241,-1.6075,-1.7253,-1.9081,-2.1095,-2.3272,-2.658,-2.9571,-3.1674,-3.3858,-3.5334,-3.5583,-3.6044,-3.6352,-3.6352,-3.6274,-3.6148,0.0,-3.5718,-3.5604,-3.5604,-3.5554,-3.5504,-3.5504,-3.5863,-3.5878,-3.5504,-3.6148,-3.6492,-3.6492,-3.7404,-3.7893,-3.8139,-3.8191,-3.8297,-3.8441,0.0,-3.7155,-3.6281,-3.54,-3.4607,-3.3823,-3.3326,-3.3081,-3.3081,-3.3081,-3.3081,-3.3081,0.0,0.0,0.0,0.0,0.0,0.0,0.0,0.0,0.0,0.0,0.0,0.0,0.0,0.0,0.0,0.0,0.0,0.0,0.0,0.0,0.0909,0.1127,0.0829,0.0574,0.0422,-0.0103,-0.0317,-0.028,-0.028,-0.028,-0.0224,-0.0224,0.0336,0.1341,0.1454,0.1398,0.1285,0.1286,0.1285,0.1285,0.1285,0.1905,0.2585,0.0,-0.2014,-0.4281,-0.2972,-0.2516,-0.2802,-0.4643,-0.601,-0.6865,-0.657,-0.73,-0.8224,-0.8309,-0.8698,-0.9254,-0.9862,-1.0554,-1.1059,-1.1059,-1.1435,-1.1712,-1.1555,-1.2089,-1.2889,-1.3542,-1.4317,-1.5325,-1.6745,-1.8374,-2.0289,-2.2604,-2.6159,-2.9394,-3.1533,-3.408,-3.5788,-3.607,-3.6352,-3.6492,-3.6492,-3.6336,-3.6148,-3.6037,-3.5831,-3.5688,-3.5688,-3.5539,-3.5549,-3.5624,-3.5549,-3.5549,-3.5654,-3.6267,-3.6596,-3.6753,-3.7928,-3.8385,-3.8201,-3.8531,-3.8486,-3.8202,0.0,0.0,-3.5386,-3.4703,-3.3907,-3.3081,-3.3081,-3.3081,-3.3081,-3.3081,-3.3081,-3.3081,0.0,0.0,0.0,0.0,0.0,0.0,0.0,0.0,0.0,0.0,-0.1695,-0.0909,0.0,0.0,0.0,0.0,0.0,0.0,0.0,0.0,0.0,0.0226,0.0383,-0.0299,-0.1982,-0.2145,-0.2101,-0.184,-0.184,-0.1732,-0.1511,-0.1511,-0.1398,-0.1118,-0.0392,-0.056,-0.151,-0.1288,-0.1286,-0.1505,-0.1509,-0.1396,-0.1227,-0.1672,0.0,0.0,-0.4098,-0.4092,-0.4271,-0.5571,-0.6253,-0.6554,-0.6534,-0.7379,-0.8439,-0.8745,-0.9272,-0.9868,-1.0352,-1.0647,-1.087,-1.1059,-1.1247,-1.141,-1.1496,-1.2003,-1.2705,-1.3535,-1.4329,-1.5337,-1.673,-1.8374,-2.0281,-2.2701,-2.5414,-2.8194,-3.0974,-3.3042,-3.4644,-3.5469,-3.6085,-3.6492,-3.6492,-3.6336,0.0,0.0,0.0,-3.5638,-3.5554,-3.5504,-3.5744,-3.6297,-3.5789,-3.5884,-3.6595,-3.6724,-3.7097,-3.7805,-3.8777,-3.9013,-3.862,-3.8026,-3.7539,-3.7092,0.0,0.0,-3.4634,-3.4481,-3.3907,-3.3081,-3.3081,-3.3081,-3.3081,-3.3081,-3.3081,-3.3081,0.0,0.0,0.0,0.0,0.0,0.0,0.0,-0.2916,-0.2848,-0.2861,-0.2472,-0.1879,-0.1086,-0.0764,-0.0559,0.0,0.0,0.0,0.0,0.0,0.0,0.0,-0.0844,-0.1351,-0.2663,-0.2972,-0.3077,-0.2956,0.0,-0.3304,-0.3193,-0.3023,-0.2968,-0.2912,-0.2464,-0.235,-0.2516,-0.2972,-0.3195,-0.3132,-0.3307,-0.3418,-0.3357,0.0,0.0,0.0,-0.4971,-0.5187,-0.5317,-0.6355,-0.7048,-0.7505,-0.767,-0.8476,-0.9426,-0.9737,-1.0092,-1.0443,-1.064,-1.087,-1.1052,-1.1185,-1.1365,-1.1606,-1.1728,-1.2147,-1.2771,-1.3709,-1.4435,-1.5337,-1.6764,-1.8374,-1.9973,-2.1404,-2.4115,-2.6882,-2.9317,-3.1681,-3.3687,-3.5235,-3.6085,-3.6492,-3.6492,-3.6414,-3.6289,-3.6037,0.0,-3.5718,-3.5504,-3.5504,-3.5654,-3.5968,-3.5669,-3.5684,-3.6124,-3.6768,-3.7434,-3.8114,-3.8972,-3.8943,-3.8069,-3.7677,-3.7049,-3.6201,0.0,0.0,-3.4397,-3.3907,-3.3496,-3.3081,-3.3081,-3.3081,-3.3081,-3.3081,-3.3081,-3.3081,0.0,0.0,0.0,0.0,0.0,0.0,0.0,-0.3164,-0.3159,-0.3106,-0.3098,-0.2792,-0.1932,-0.1574,-0.1253,0.0,0.0,0.0,0.0,0.0,0.0,0.0,0.0,-0.2435,-0.3044,0.0,0.0,-0.3904,-0.4366,0.0,0.0,0.0,0.0,0.0,-0.3978,-0.3691,-0.3342,-0.4196,-0.4536,0.0,0.0,-0.4927,0.0,0.0,0.0,0.0,0.0,-0.6028,-0.6123,-0.6956,-0.7773,-0.8452,-0.8865,-0.972,-1.058,-1.0586,-1.0878,-1.1233,-1.1108,-1.1358,-1.1747,-1.1814,-1.1909,-1.2065,-1.224,-1.2517,-1.2984,-1.3868,-1.4595,-1.5463,-1.691,-1.8349,-1.9603,-2.0528,-2.2949,-2.554,-2.7768,-3.0215,-3.262,-3.4708,-3.5725,-3.6352,-3.6492,-3.6492,0.0,-3.6037,0.0,0.0,-3.5504,-3.5504,-3.5504,-3.5504,-3.5504,-3.5504,-3.5504,-3.6888,-3.7751,-3.8114,-3.8743,-3.8546,-3.751,-3.7035,-3.6332,-3.5318,0.0,0.0,0.0,-3.3411,-3.3081,-3.3081,-3.3081,-3.3081,-3.3081,-3.3081,-3.3081,-3.3081,0.0,0.0,0.0,0.0,0.0,0.0,0.0,-0.3662,-0.3651,-0.3384,-0.3444,-0.3398,-0.3005,-0.2724,-0.2558,0.0,0.0,0.0,0.0,0.0,0.0,0.0,0.0,0.0,0.0,0.0,0.0,-0.4787,-0.4846,0.0,0.0,0.0,0.0,0.0,0.0,-0.4343,-0.521,-0.4824,0.0,0.0,0.0,0.0,0.0,0.0,0.0,0.0,0.0,-0.6759,-0.6642,-0.7526,-0.8069,-0.8559,-0.9341,-1.043,-1.1256,-1.0632,-1.1555,-1.2642,-1.2081,-1.2451,-1.3144,-1.3539,-1.3194,-1.2789,-1.3212,-1.3229,-1.3312,-1.3793,-1.4744,-1.5911,-1.7445,-1.8239,-1.9371,-2.1504,-2.2708,-2.4305,-2.6966,-2.9054,-3.1132,-3.3296,-3.4703,-3.5737,-3.6429,-3.6352,-3.6148,0.0,0.0,0.0,-3.5504,-3.5504,-3.5504,-3.5504,-3.5504,-3.5504,-3.5504,-3.7218,-3.8069,-3.8114,-3.8033,-3.7753,-3.7434,-3.5695,-3.4759,-3.4468,0.0,0.0,0.0,-3.3154,-3.3081,-3.3081,-3.3081,-3.3081,-3.3081,-3.3081,-3.3081,-3.3081,0.0,0.0,0.0,0.0,0.0,0.0,-0.389,-0.3752,-0.3748,-0.3842,-0.3809,-0.3661,-0.3405,-0.3642,-0.3542,-0.2751,0.0,0.0,0.0,0.0,0.0,0.0,0.0,0.0,0.0,0.0,-0.512,-0.5615,-0.5397,0.0,0.0,0.0,0.0,0.0,0.0,-0.5814,-0.6145,-0.5923,0.0,0.0,0.0,0.0,0.0,0.0,0.0,0.0,0.0,0.0,-0.7771,-0.8461,-0.8858,-0.9212,-0.9797,-1.0917,-1.183,-1.1225,-1.1623,-1.2318,-1.2639,-1.3061,-1.3466,-1.3902,-1.3768,-1.363,-1.4042,-1.4031,-1.4066,-1.4537,-1.5337,-1.6337,-1.7567,-1.8503,-1.9464,-2.0707,-2.1653,-2.2981,-2.5203,-2.7264,-2.9594,-3.2413,-3.4016,-3.5299,-3.6383,0.0,-3.607,0.0,0.0,0.0,0.0,-3.5504,-3.5504,-3.5504,-3.5504,-3.5184,-3.4589,-3.6313,-3.6823,-3.6201,-3.6864,-3.6745,-3.5935,-3.5061,-3.4275,-3.3569,0.0,0.0,0.0,-3.3081,-3.3081,-3.3081,-3.3081,-3.3081,-3.3081,-3.3081,-3.3081,-3.3081,0.0,0.0,0.0,0.0,0.0,-0.4055,-0.4204,-0.3945,-0.3834,-0.418,-0.4069,-0.3968,-0.3956,-0.4539,-0.4582,-0.3691,-0.3657,0.0,0.0,0.0,0.0,0.0,0.0,0.0,0.0,0.0,-0.6365,-0.6731,-0.6398,-0.6476,0.0,0.0,-0.6799,-0.7182,0.0,0.0,0.0,0.0,0.0,0.0,0.0,0.0,0.0,0.0,0.0,0.0,0.0,0.0,0.0,0.0,0.0,-0.9961,-1.0466,-1.1311,-1.2026,-1.1712,-1.2175,-1.2939,-1.3364,-1.3965,-1.4466,-1.4736,-1.4714,-1.4666,-1.4873,-1.474,-1.4728,-1.5159,-1.5881,-1.6716,-1.7812,-1.8792,-1.963,-2.0361,-2.1225,-2.2482,-2.4461,-2.6294,-2.8516,-3.1432,-3.3182,-3.4607,-3.5812,-3.6026,-3.6022,0.0,0.0,0.0,0.0,-3.5504,-3.5359,-3.5133,-3.5133,-3.4728,-3.379,-3.5156,-3.5464,-3.4864,-3.563,-3.5645,-3.491,-3.4428,-3.3797,0.0,0.0,0.0,0.0,-3.3081,-3.3081,-3.3081,-3.3081,-3.3081,-3.3081,-3.3081,-3.3081,-3.2982,0.0,0.0,0.0,0.0,0.0,0.0,-0.4646,-0.4204,-0.3966,-0.4164,-0.42,-0.4398,-0.4842,-0.5377,-0.5711,-0.5649,-0.6054,0.0,0.0,0.0,0.0,0.0,0.0,0.0,0.0,0.0,-0.792,-0.8187,-0.7841,-0.7706,-0.7762,-0.7595,-0.7723,-0.8193,0.0,0.0,0.0,0.0,0.0,0.0,0.0,0.0,0.0,0.0,0.0,0.0,0.0,0.0,0.0,0.0,0.0,0.0,0.0,-1.1616,-1.1654,-1.1835,-1.3439,-1.5008,-1.4354,-1.5371,-1.6538,-1.6497,-1.6307,-1.6009,-1.5644,-1.5266,-1.5139,-1.5586,-1.6209,-1.7001,-1.8351,-1.9044,-1.9759,-2.0926,-2.1809,-2.3129,-2.5175,-2.6489,-2.8035,-3.0333,-3.2277,-3.3695,-3.4427,-3.5437,0.0,0.0,0.0,0.0,0.0,-3.5504,-3.5133,-3.4312,-3.4312,-3.3973,-3.3213,-3.3903,-3.4363,-3.4682,-3.4292,-3.4339,-3.4664,-3.3641,0.0,0.0,0.0,0.0,0.0,-3.3081,-3.3081,-3.3081,-3.3081,-3.3081,-3.3081,-3.3081,-3.2896,-3.2711,0.0,0.0,0.0,0.0,0.0,0.0,0.0,-0.4983,-0.4871,-0.5366,-0.5315,-0.5319,-0.5475,-0.6173,-0.6665,-0.6665,-0.6547,0.0,0.0,0.0,0.0,0.0,0.0,0.0,0.0,-0.7931,-0.8154,-0.8125,-0.779,-0.7874,-0.836,-0.7976,-0.8323,-0.9383,-0.9322,-0.9266,0.0,0.0,0.0,0.0,0.0,0.0,0.0,0.0,0.0,0.0,0.0,0.0,0.0,0.0,0.0,0.0,0.0,0.0,0.0,-1.3233,-1.3848,-1.4434,-1.464,-1.529,-1.5925,-1.5869,-1.5801,-1.5781,-1.6063,-1.6068,-1.6093,-1.6564,-1.7252,-1.7933,-1.8498,-1.9359,-2.0335,-2.1542,-2.2405,-2.3476,-2.4945,-2.6585,-2.83,-3.0053,-3.2373,-3.3874,0.0,0.0,0.0,0.0,0.0,0.0,0.0,-3.3934,-3.4056,-3.4312,-3.4312,-3.3685,-3.2434,-3.3127,-3.317,-3.2508,-3.2771,-3.2988,-3.3219,-3.2731,0.0,0.0,0.0,0.0,0.0,-3.3081,-3.3081,-3.3081,-3.3081,-3.3081,-3.3081,-3.2896,-3.281,-3.2624,0.0,0.0,0.0,0.0,0.0,0.0,0.0,-0.5296,-0.5295,-0.5917,-0.5887,-0.5937,-0.6284,-0.7037,-0.7542,-0.7542,-0.7638,0.0,0.0,0.0,0.0,0.0,0.0,0.0,-0.8406,-0.92,-0.9535,-0.9345,-0.9183,-0.9417,-1.01,-0.9785,-1.0367,-1.1605,-1.0963,-1.0666,0.0,0.0,0.0,0.0,0.0,0.0,0.0,0.0,0.0,0.0,0.0,0.0,0.0,0.0,0.0,0.0,0.0,0.0,0.0,0.0,-1.4275,-1.4543,-1.4769,-1.5289,-1.5781,-1.5657,-1.5924,-1.6253,-1.6345,-1.6661,-1.7051,-1.7388,-1.7989,-1.8519,-1.893,-1.9597,-2.0565,-2.1812,-2.2454,-2.3402,-2.5174,-2.6577,-2.8304,-3.056,-3.2309,0.0,0.0,0.0,0.0,0.0,0.0,0.0,0.0,0.0,-3.3283,-3.3463,-3.3478,-3.2918,-3.1676,-3.2101,-3.1957,-3.1423,-3.1863,-3.2223,-3.2478,-3.2525,0.0,0.0,0.0,0.0,0.0,-3.3081,-3.3081,-3.3081,-3.3081,-3.3081,-3.3068,-3.281,-3.2636,-3.255,0.0,0.0,0.0,0.0,0.0,0.0,0.0,-0.5395,-0.533,-0.5993,-0.6102,-0.6374,-0.7058,-0.7847,-0.8316,-0.8375,0.0,0.0,0.0,0.0,0.0,0.0,0.0,0.0,-0.9707,-1.1067,-1.1704,-1.1503,-1.1557,-1.1962,-1.2766,-1.2844,-1.3552,-1.4617,-1.2998,-1.2279,0.0,0.0,0.0,0.0,0.0,0.0,0.0,0.0,0.0,0.0,0.0,0.0,0.0,0.0,0.0,0.0,0.0,0.0,0.0,0.0,0.0,0.0,0.0,-1.5401,-1.5999,-1.5766,-1.6521,-1.7178,-1.665,-1.7178,0.0,-1.81,-1.8418,-1.883,-1.9515,-1.9886,-2.0538,-2.1873,-2.2257,-2.3271,-2.581,-2.6694,-2.8331,-3.1654,-3.2069,0.0,-3.3696,0.0,0.0,0.0,0.0,0.0,0.0,0.0,-3.272,-3.2015,-3.2015,-3.1663,-3.0986,-3.0773,-3.088,-3.115,-3.1487,-3.1801,-3.2177,-3.2754,0.0,0.0,0.0,0.0,0.0,-3.3081,-3.3081,-3.3081,-3.3081,-3.3081,-3.3081,-3.281,-3.255,-3.23,0.0,0.0,0.0,0.0,0.0,0.0,0.0,0.0,0.0,0.0,-0.691,-0.7118,-0.7635,-0.825,-0.8675,0.0,0.0,0.0,0.0,0.0,0.0,0.0,0.0,0.0,-1.0794,-1.1527,-1.1978,-1.222,-1.2239,-1.2858,-1.4099,-1.5537,-1.6353,-1.6552,-1.5195,-1.3987,0.0,0.0,0.0,0.0,0.0,0.0,0.0,0.0,0.0,0.0,-1.2909,-1.2909,0.0,0.0,0.0,0.0,0.0,0.0,0.0,0.0,-1.5005,-1.5233,-1.5525,0.0,-1.5856,-1.5867,-1.621,-1.6718,0.0,-1.7804,-1.8262,-1.8851,-1.908,-1.9448,-2.0163,-2.0489,-2.1263,-2.3032,-2.3754,-2.471,-2.6332,-2.7933,-2.9674,-3.15,-3.1589,-3.1702,0.0,0.0,0.0,0.0,0.0,0.0,0.0,0.0,-3.1408,-3.1259,-3.1259,-3.1198,-3.0986,-3.0773,-3.0687,-3.0573,-3.0915,-3.1233,-3.1599,-3.2164,0.0,0.0,0.0,0.0,0.0,-3.3081,-3.3081,-3.3081,-3.3081,-3.2982,-3.281,-3.2562,-3.23,-3.2038,0.0,0.0,0.0,0.0,0.0,0.0,0.0,0.0,0.0,0.0,0.0,-0.7407,-0.8,-0.8532,0.0,0.0,0.0,0.0,0.0,0.0,0.0,0.0,0.0,-1.08,-1.1497,-1.2077,-1.2508,-1.2893,-1.3215,-1.4242,-1.583,-1.685,-1.7289,-1.7236,-1.5955,-1.493,0.0,0.0,0.0,0.0,0.0,0.0,0.0,0.0,0.0,0.0,-1.3873,-1.3931,0.0,-1.4373,-1.4558,-1.464,0.0,0.0,0.0,0.0,-1.5198,-1.5393,-1.5963,-1.6122,-1.6316,-1.6694,-1.7076,-1.7556,-1.8227,-1.8462,-1.8702,-1.9214,-1.9368,-1.9645,-2.0457,-2.0731,-2.1449,-2.3405,-2.3991,-2.4978,-2.7183,-2.8934,-3.0355,-3.1328,-3.136,-3.1347,0.0,0.0,0.0,0.0,0.0,0.0,0.0,0.0,-3.0986,-3.0986,-3.0986,-3.0986,-3.0836,-3.0685,-3.0457,-3.0305,-3.0887,-3.1191,-3.1411,-3.224,0.0,0.0,0.0,0.0,-3.3081,-3.3081,-3.3081,-3.3081,-3.3081,-3.2896,-3.2723,-3.2475,-3.2213,-3.195,0.0,0.0,0.0,0.0,0.0,0.0,0.0,0.0,0.0,0.0,0.0,0.0,0.0,0.0,0.0,0.0,0.0,0.0,0.0,0.0,0.0,0.0,-1.0973,-1.1132,-1.1935,-1.2617,-1.3119,-1.3468,-1.4157,-1.5478,-1.7305,-1.7302,-1.7158,-1.6835,-1.5884,-1.529,0.0,0.0,0.0,0.0,0.0,0.0,0.0,0.0,0.0,0.0,0.0,0.0,0.0,-1.5017,-1.5108,-1.5108,-1.5153,0.0,0.0,0.0,0.0,0.0,-1.6338,-1.6785,-1.7237,-1.7741,-1.8277,-1.8774,-1.8987,-1.9052,-1.9105,-1.9368,-1.9482,-1.9821,-2.069,-2.0983,-2.1724,-2.3616,-2.421,-2.5405,-2.8281,-2.9639,-3.0553,-3.1193,-3.1272,0.0,0.0,0.0,0.0,0.0,0.0,0.0,0.0,0.0,0.0,-3.0986,-3.0986,-3.0836,-3.0698,-3.052,-3.0292,-3.0088,-3.0952,-3.1348,-3.1311,-3.2428,0.0,0.0,0.0,0.0,-3.3081,-3.3081,-3.3081,-3.3081,-3.3068,-3.2896,-3.2636,-3.2388,-3.2213,-3.195,0.0,0.0,0.0,0.0,0.0,0.0,0.0,0.0,0.0,0.0,0.0,0.0,0.0,0.0,0.0,0.0,0.0,0.0,0.0,0.0,0.0,-1.3905,-1.2208,-1.1494,-1.2066,-1.2837,-1.3584,-1.4305,-1.4452,-1.5459,-1.7305,-1.7302,-1.6395,-1.4847,-1.5453,-1.5263,-1.4581,-1.6009,0.0,0.0,0.0,0.0,0.0,0.0,0.0,0.0,0.0,0.0,0.0,-1.5062,-1.5108,-1.5153,-1.5379,0.0,0.0,0.0,0.0,0.0,-1.7264,-1.8263,-1.887,-1.843,-1.8733,-1.9133,-1.9316,-1.9263,-1.9275,-1.9512,-2.0002,-2.0553,-2.1267,-2.2121,-2.3258,-2.4783,-2.6505,-2.8147,0.0,0.0,-3.0406,-3.1206,0.0,0.0,0.0,0.0,0.0,0.0,0.0,0.0,0.0,0.0,0.0,-3.0986,-3.0849,-3.0609,-3.0444,-3.0444,-3.0292,-3.0088,-3.0952,-3.116,-3.0771,-3.1851,-3.234,0.0,0.0,0.0,-3.3081,-3.3081,-3.3081,-3.3081,-3.281,-3.2636,-3.2388,-3.2125,-3.195,-3.1749,0.0,0.0,0.0,0.0,0.0,0.0,0.0,0.0,0.0,0.0,0.0,0.0,0.0,0.0,0.0,0.0,0.0,0.0,0.0,0.0,-1.4501,-1.4506,-1.3855,-1.3387,-1.3016,-1.2811,-1.3242,-1.4486,-1.614,-1.7978,-1.9924,-1.8736,-1.7767,-1.6866,-1.6125,-1.6182,-1.684,-1.6457,-1.6782,0.0,0.0,0.0,0.0,0.0,0.0,0.0,0.0,0.0,0.0,0.0,-1.5691,-1.5703,-1.5836,0.0,0.0,0.0,0.0,0.0,-1.7515,-1.8425,-1.9166,-1.9448,-2.0109,-2.068,-2.0748,-2.0471,-2.0263,-2.0457,-2.0722,-2.1126,-2.1832,-2.2585,-2.3813,-2.5857,-2.7902,-2.9366,-2.9986,-3.0398,-3.0686,0.0,0.0,0.0,0.0,0.0,0.0,0.0,0.0,0.0,0.0,0.0,0.0,0.0,-3.0609,-3.0457,-3.0228,-3.0228,-3.0152,-2.9946,-3.0675,-3.0846,-3.0645,-3.1411,-3.1763,0.0,0.0,-3.2365,-3.2641,-3.2771,-3.2896,-3.2896,-3.2636,-3.2388,-3.2125,-3.1282,-3.1003,-3.0913,0.0,0.0,0.0,0.0,0.0,0.0,0.0,0.0,0.0,0.0,0.0,0.0,0.0,0.0,0.0,0.0,0.0,0.0,0.0,-1.4114,-1.4693,-1.4725,-1.478,-1.4637,-1.4185,-1.3313,-1.3728,-1.5568,-1.7857,-1.9821,-2.1385,-1.9743,-1.8984,-1.8958,-1.7264,-1.7463,-1.89,-1.7249,-1.7209,0.0,0.0,0.0,0.0,0.0,0.0,0.0,0.0,0.0,0.0,0.0,0.0,0.0,0.0,0.0,0.0,-1.6231,-1.6231,-1.6453,-1.7461,-1.8251,-1.9095,-2.0079,-2.094,-2.1617,-2.1935,-2.1564,-2.1255,-2.1661,-2.1823,-2.2106,-2.2623,-2.3477,-2.4823,-2.6994,-2.8833,-3.0099,-3.0186,-3.0712,0.0,0.0,0.0,0.0,0.0,0.0,0.0,0.0,0.0,0.0,0.0,0.0,0.0,0.0,-3.0444,-3.0292,-3.0075,-3.0088,-2.9934,-2.9804,-3.0357,-3.0545,-3.0444,-3.0972,-3.121,-3.1235,-3.165,-3.1976,-3.2252,-3.2436,-3.2599,-3.2711,-3.2388,-3.2025,-3.1472,-3.0543,-3.0068,-2.9886,0.0,0.0,0.0,0.0,0.0,0.0,0.0,0.0,0.0,0.0,0.0,0.0,0.0,0.0,0.0,0.0,0.0,0.0,0.0,-1.5261,-1.532,-1.5323,-1.3882,-1.3746,-1.5233,-1.518,-1.6295,-1.8665,-1.8894,-1.9086,-1.9235,-1.9085,-1.9,-1.9004,-1.8863,-1.8875,-1.8969,-1.8818,-1.8799,-1.8927,-1.8948,0.0,0.0,0.0,0.0,0.0,0.0,0.0,0.0,0.0,0.0,0.0,0.0,0.0,-1.6244,-1.6362,-1.6392,-1.6529,-1.723,-1.8169,-1.9108,-1.9723,-2.0232,-2.0902,-2.2026,-2.1781,-2.1624,-2.2752,-2.3452,-2.3828,-2.3866,-2.5772,-2.7462,-2.8219,-2.9622,-3.0633,-3.0633,0.0,0.0,0.0,0.0,0.0,0.0,0.0,0.0,0.0,0.0,0.0,0.0,0.0,0.0,0.0,0.0,-3.0075,-3.0075,-2.9934,-2.9792,-2.9804,-3.0357,-3.0344,-2.9867,-3.0419,-3.067,-3.067,-3.0721,-3.1298,-3.2215,-3.2025,-3.2264,-3.2636,-3.2201,-3.1282,-3.0351,-3.026,-2.9601,-2.8773,0.0,0.0,0.0,0.0,0.0,0.0,0.0,0.0,0.0,0.0,0.0,0.0,0.0,0.0,0.0,0.0,0.0,0.0,0.0,-1.4429,-1.5053,-1.5378,-1.4813,-1.4278,-1.3841,-1.4869,-1.6558,-1.8975,-1.9012,-1.9018,-1.8982,-1.9,-1.8975,-1.8992,-1.9024,-1.9019,-1.9017,-1.9004,-1.8988,-1.8995,-1.8988,0.0,0.0,0.0,0.0,0.0,0.0,0.0,0.0,0.0,-1.6392,-1.6392,-1.6392,-1.6392,-1.6392,-1.6436,-1.6479,-1.6679,-1.7639,-1.8455,-1.9233,-2.0125,-2.0765,-2.1425,-2.2514,-2.3153,-2.3716,-2.4506,-2.5121,-2.5523,-2.5523,-2.6559,-2.7599,-2.8286,-2.9489,-3.0394,0.0,0.0,0.0,0.0,0.0,0.0,0.0,0.0,0.0,0.0,0.0,0.0,0.0,0.0,0.0,0.0,0.0,-2.9934,-2.9934,-2.9869,-2.9546,-2.8961,-2.9758,-2.9993,-2.9804,-3.0005,-2.9845,-2.9279,-2.9621,-2.9731,-2.9618,-2.9588,-2.9839,-3.0155,-3.0032,-2.9704,-2.9235,-2.8588,-2.8111,-2.7746,0.0,0.0,0.0,0.0,0.0,0.0,0.0,0.0,0.0,0.0,0.0,0.0,0.0,0.0,0.0,0.0,0.0,0.0,-1.2819,-1.3727,-1.455,-1.5235,-1.5065,-1.4305,-1.2929,-1.4763,-1.6911,-1.9242,-1.9253,-1.9228,-1.9273,-1.9059,-1.9068,-1.9263,-1.9273,-1.9261,-1.9254,-1.9248,-1.9273,-1.9254,-1.923,-1.9446,0.0,0.0,0.0,0.0,0.0,0.0,0.0,0.0,-1.6522,-1.6522,-1.6522,-1.6522,-1.6522,-1.6522,-1.6647,-1.6961,-1.7739,-1.848,-1.9296,-2.0441,-2.1204,-2.2133,-2.3577,-2.4381,-2.5071,-2.595,-2.6452,-2.6766,-2.6942,-2.7293,-2.7792,0.0,-2.9453,0.0,0.0,0.0,0.0,0.0,0.0,0.0,0.0,0.0,0.0,0.0,0.0,0.0,0.0,0.0,0.0,0.0,0.0,0.0,-2.9792,-2.9546,-2.9118,-2.8462,-2.8791,-2.8961,-2.8961,-2.8961,-2.8633,-2.8075,-2.8431,-2.8351,-2.7954,-2.7924,-2.8096,-2.8533,-2.8668,-2.8495,-2.8121,-2.7463,-2.701,-2.6733,0.0,0.0,0.0,0.0,0.0,0.0,0.0,0.0,0.0,0.0,0.0,0.0,0.0,0.0,0.0,0.0,0.0,0.0,-1.3263,-1.3445,-1.3929,-1.4842,-1.4377,-1.3719,-1.293,-1.5308,-1.7577,-1.9744,-1.9746,-1.9775,-1.9749,-1.9233,-1.9269,-1.9818,-1.98,-1.9788,-1.9741,-1.9788,-1.9788,-1.9778,-1.982,-1.98,-1.957,0.0,0.0,0.0,0.0,0.0,0.0,0.0,-1.6522,-1.6522,-1.6522,-1.6522,-1.6547,-1.6522,-1.6936,-1.74,-1.74,-1.8204,-1.9309,-2.0401,-2.1506,-2.2912,-2.5096,-2.5209,-2.531,-2.6967,-2.7306,-2.7469,-2.8009,-2.8109,-2.8298,-2.8837,-2.9555,0.0,0.0,0.0,0.0,0.0,0.0,0.0,0.0,0.0,0.0,0.0,0.0,0.0,0.0,0.0,0.0,0.0,0.0,0.0,-2.9792,-2.8961,-2.8462,-2.8462,-2.7557,-2.7069,-2.7069,-2.7069,-2.7069,-2.7069,-2.7069,-2.7449,-2.792,-2.7476,-2.762,-2.8105,-2.8484,-2.8006,-2.7179,-2.7179,-2.6542,-2.5732,0.0,0.0,0.0,0.0,0.0,0.0,0.0,0.0,0.0,0.0,0.0,0.0,0.0,0.0,0.0,0.0,0.0,0.0,-1.3165,-1.3527,-1.3907,-1.4296,-1.4737,-1.5082,-1.5417,-1.6109,-1.6833,-1.748,-1.747,-1.7506,-1.7538,-1.8906,-1.9636,-1.9791,-1.9808,-1.892,-1.7569,-1.9124,-1.9807,-1.9814,-1.9786,-1.9819,-1.9751,0.0,0.0,0.0,0.0,0.0,0.0,0.0,0.0,0.0,-1.6647,-1.7325,-1.8129,-1.735,-1.779,-1.8543,-1.8543,-1.9346,-2.0351,-2.1066,-2.2673,-2.4343,-2.536,-2.6088,-2.703,-2.8699,-2.8725,-2.8486,-2.8649,-2.8687,0.0,-2.89,0.0,0.0,0.0,0.0,0.0,0.0,0.0,0.0,0.0,0.0,0.0,0.0,0.0,0.0,0.0,0.0,0.0,0.0,0.0,0.0,-2.9792,-2.8961,-2.8131,-2.7476,-2.6565,-2.6483,-2.7069,-2.7069,-2.673,-2.6152,-2.6069,-2.5749,-2.5338,-2.5134,-2.5071,-2.5087,-2.5523,-2.551,-2.5282,-2.56,-2.554,-2.5312,0.0,0.0,0.0,0.0,0.0,0.0,0.0,0.0,0.0,0.0,-1.1711,-1.2169,0.0,0.0,0.0,0.0,0.0,0.0,0.0,-1.3695,-1.4107,-1.4663,-1.5074,-1.5906,-1.7162,-1.7606,-1.7831,-1.781,-1.78,-1.7799,-1.78,-1.8289,-1.8957,-1.9781,-1.8894,-1.7738,-1.6572,-1.7904,-1.8472,-1.8485,-1.8495,-1.8763,-1.9219,0.0,0.0,0.0,0.0,0.0,0.0,0.0,0.0,0.0,-1.73,-1.789,-1.8618,-1.8166,-1.8656,-1.9384,-1.961,-2.0476,-2.1506,-2.2297,-2.3816,-2.5448,-2.664,-2.7444,-2.8285,-2.9541,-2.934,-2.9001,-2.9227,-2.9089,0.0,0.0,0.0,0.0,0.0,0.0,0.0,0.0,0.0,0.0,0.0,0.0,0.0,0.0,0.0,0.0,0.0,0.0,0.0,0.0,0.0,0.0,-2.93,-2.8383,-2.7476,-2.6565,-2.5673,-2.5589,-2.6091,-2.6091,-2.5757,-2.5179,-2.4914,-2.4509,-2.3891,-2.4048,-2.3959,-2.3828,-2.4248,-2.4414,-2.4443,-2.4717,-2.4922,-2.5107,0.0,0.0,0.0,0.0,0.0,0.0,0.0,0.0,0.0,0.0,-1.2224,-1.2323,0.0,0.0,0.0,0.0,0.0,0.0,0.0,-1.3967,-1.456,-1.5588,-1.5531,-1.6329,-1.8131,-1.9218,-1.976,-1.9645,-1.9634,-1.9588,-1.9452,-1.7421,-1.7629,-1.9577,-1.7568,-1.6636,-1.665,-1.6551,-1.6503,-1.6503,-1.6492,-1.7121,-1.8141,-1.9107,0.0,0.0,0.0,0.0,0.0,0.0,0.0,0.0,-1.8229,-1.8304,-1.8505,-1.892,-1.9459,-2.0062,-2.0539,-2.1506,-2.2648,-2.3728,-2.4921,-2.6377,-2.8524,-2.9001,-2.9151,-2.9679,-2.9377,-2.9164,-2.9691,-2.9365,-2.9176,0.0,0.0,0.0,0.0,0.0,0.0,0.0,0.0,0.0,0.0,0.0,0.0,0.0,0.0,0.0,0.0,0.0,0.0,0.0,0.0,0.0,-2.8542,-2.7476,-2.6565,0.0,-2.4946,-2.454,-2.454,-2.454,-2.4368,-2.412,-2.3937,-2.3667,-2.3533,-2.3831,-2.39,-2.3769,-2.415,-2.4297,-2.4307,-2.4346,-2.4639,-2.501,0.0,0.0,0.0,0.0,0.0,0.0,0.0,0.0,0.0,0.0,0.0,0.0,0.0,0.0,0.0,0.0,0.0,0.0,0.0,-1.449,-1.5028,-1.5744,-1.6638,-1.7276,-1.7703,-1.9101,-1.9389,-1.8549,-1.8526,-1.8091,-1.7193,-1.6729,-1.7254,-1.8516,-1.8073,-1.7809,-1.7766,-1.6867,-1.6516,-1.6497,-1.6475,-1.6645,-1.6904,-1.7107,-1.8289,0.0,0.0,0.0,0.0,0.0,0.0,0.0,-1.8342,-1.9095,-1.9987,-1.9246,-2.0024,-2.1054,-2.0806,-2.1782,-2.3125,-2.3828,-2.5799,-2.7921,-2.9289,-2.9603,-2.9641,-2.9767,-2.9691,-2.9641,-2.9767,-2.9691,0.0,0.0,0.0,0.0,0.0,0.0,0.0,0.0,0.0,0.0,0.0,0.0,0.0,0.0,0.0,0.0,0.0,0.0,0.0,0.0,0.0,-2.8712,-2.8462,-2.6894,-2.5986,0.0,-2.4946,-2.454,-2.454,-2.454,-2.4282,-2.3841,-2.3677,-2.3406,-2.3144,-2.3242,-2.3281,-2.3291,-2.3379,-2.3408,-2.3457,-2.3799,-2.4189,-2.4609,0.0,0.0,0.0,0.0,0.0,0.0,0.0,0.0,0.0,0.0,0.0,0.0,0.0,0.0,0.0,0.0,0.0,0.0,0.0,-1.5037,-1.5567,-1.6107,-1.701,-1.7497,-1.7517,-1.8505,-1.8742,-1.8226,-1.7934,-1.735,-1.6512,-1.706,-1.765,-1.8158,-1.7616,-1.7387,-1.7338,-1.6747,-1.6486,-1.6491,-1.6492,-1.651,-1.6502,-1.6517,-1.7201,-1.8339,-1.9429,0.0,0.0,0.0,0.0,0.0,0.0,0.0,-2.0188,-1.9899,-2.0426,-2.1154,-2.1393,-2.2485,-2.3941,-2.5561,-2.7042,-2.8398,-2.9528,-2.9792,-2.9792,-2.9792,-2.9792,-2.9792,-2.9792,0.0,0.0,0.0,0.0,0.0,0.0,0.0,0.0,0.0,0.0,0.0,0.0,0.0,0.0,0.0,0.0,0.0,0.0,0.0,0.0,0.0,-2.8712,-2.8051,-2.7058,-2.6152,-2.5411,-2.4829,-2.4348,-2.4186,-2.4186,-2.4186,-2.4013,-2.3754,-2.3406,-2.3232,-2.3135,-2.3135,-2.3135,-2.3135,-2.3135,-2.3135,-2.3164,-2.3389,-2.375,-2.418,0.0,0.0,0.0,0.0,0.0,0.0,0.0,0.0,0.0,0.0,0.0,0.0,0.0,0.0,0.0,0.0,0.0,0.0,0.0,-1.5512,-1.6144,-1.6616,-1.7124,-1.7426,-1.7526,-1.7978,-1.8154,-1.8066,-1.7601,-1.719,-1.6818,-1.765,-1.8116,-1.8144,-1.7147,-1.668,-1.6633,-1.6548,-1.651,-1.6522,-1.6522,-1.6522,-1.6504,-1.6515,-1.6636,-1.7015,-1.8917,-1.9711,-1.9798,-1.9798,0.0,0.0,0.0,0.0,-1.9899,-2.0376,-2.0643,-2.092,-2.1782,-2.2987,-2.4632,-2.7306,-2.8034,-2.8398,-2.9528,-2.9792,-2.9792,-2.9792,-2.9792,-2.9792,0.0,0.0,0.0,0.0,0.0,0.0,0.0,0.0,0.0,0.0,0.0,0.0,0.0,0.0,0.0,0.0,0.0,0.0,0.0,0.0,-2.9197,-2.845,-2.8119,-2.7128,-2.5484,-2.5326,-2.4744,-2.3841,-2.3841,-2.3841,-2.3841,-2.3754,-2.3754,-2.3754,-2.3309,-2.3135,-2.3135,-2.3135,-2.3135,-2.3135,-2.3135,-2.3135,-2.3135,-2.3135,-2.3418,-2.3848,0.0,0.0,0.0,0.0,0.0,0.0,0.0,0.0,0.0,0.0,-1.2686,-1.2958,-1.3589,-1.3267,0.0,0.0,0.0,0.0,-1.4923,0.0,0.0,-1.7237,-1.7338,-1.7601,-1.8078,-1.8166,-1.7978,-1.7488,-1.7413,-1.7614,-1.7947,-1.7664,-1.7739,-1.8179,-1.7551,-1.7256,-1.7227,-1.6723,-1.6516,-1.6522,-1.6522,-1.6522,-1.6479,-1.6485,-1.7122,-1.8059,-1.8634,-1.928,-1.9798,-1.9798,-1.9798,0.0,0.0,0.0,-1.9823,-1.9899,-2.0275,-2.0756,-2.084,-2.241,-2.4544,-2.6829,-2.7758,-2.8398,-2.9528,-2.9792,-2.9792,0.0,-2.9792,0.0,0.0,0.0,0.0,0.0,0.0,0.0,0.0,0.0,0.0,0.0,0.0,0.0,0.0,0.0,0.0,0.0,0.0,0.0,0.0,-2.8858,-2.8255,-2.8176,-2.6449,-2.5462,-2.5126,-2.4402,-2.3917,-2.3841,-2.3841,-2.3841,-2.3754,-2.358,-2.3503,-2.3503,-2.3232,-2.3135,-2.3135,-2.3135,-2.3135,-2.3135,-2.3135,-2.3135,-2.3135,-2.3135,-2.3418,-2.3848,0.0,0.0,0.0,0.0,0.0,0.0,0.0,0.0,0.0,0.0,0.0,-1.3055,-1.3732,-1.3297,0.0,0.0,0.0,0.0,-1.4925,-1.562,0.0,-1.6434,-1.7049,-1.7338,-1.7262,-1.7576,-1.7463,-1.6898,-1.6898,-1.7652,-1.9095,-1.8857,-1.9208,-2.0012,-1.912,-1.8731,-1.8656,-1.7501,-1.681,-1.6522,-1.6522,-1.6992,-1.7675,-1.7264,-1.7567,-1.824,-1.8596,-1.9171,-1.9798,-1.9798,-1.9798,-1.9798,-1.9798,0.0,0.0,0.0,-1.9987,-2.0388,-2.133,-2.2535,-2.4054,-2.6264,-2.7231,-2.7934,-2.9051,-2.9566,-2.9792,-2.9792,-2.9792,0.0,0.0,0.0,0.0,0.0,0.0,0.0,0.0,0.0,0.0,0.0,0.0,0.0,0.0,0.0,0.0,0.0,0.0,0.0,-2.8712,-2.7706,-2.6953,-2.6449,-2.5535,0.0,-2.4231,-2.3831,-2.358,-2.3396,-2.3396,-2.3396,-2.3406,-2.3319,-2.3319,-2.3503,-2.3232,-2.3135,-2.3135,-2.3135,-2.3135,-2.3135,-2.3135,-2.3135,-2.3135,-2.3135,-2.3262,-2.3397,0.0,0.0,0.0,0.0,0.0,0.0,0.0,0.0,0.0,0.0,0.0,-1.3248,-1.3967,0.0,0.0,0.0,0.0,0.0,-1.4878,0.0,0.0,0.0,-1.6678,-1.6961,-1.6577,-1.6948,-1.6948,-1.6522,-1.6522,-1.7639,-1.9798,-1.9798,-2.0715,-2.2272,-2.0865,-2.015,-1.9924,-1.843,-1.7626,-1.735,-1.735,-1.7932,-1.8748,-1.8741,-1.8783,-1.883,-1.8919,-1.942,-1.9999,-1.9849,-1.9798,-1.9798,-1.9798,-1.9798,0.0,0.0,0.0,-2.0112,-2.1518,-2.2397,-2.3389,-2.5347,-2.6465,-2.7369,-2.8461,-2.9164,-2.9616,0.0,0.0,0.0,0.0,0.0,0.0,0.0,0.0,0.0,0.0,0.0,0.0,0.0,0.0,0.0,0.0,0.0,0.0,0.0,0.0,0.0,-2.7476,-2.6554,-2.5724,-2.5041,-2.4713,-2.4221,-2.3406,-2.3406,-2.3319,-2.3135,-2.3135,-2.3135,-2.3135,-2.3135,-2.3232,-2.3416,-2.3232,-2.3135,-2.3135,-2.3135,-2.3135,-2.3135,-2.3135,-2.3135,-2.3135,-2.3135,-2.3057,-2.3027,0.0,0.0,0.0,0.0,0.0,0.0,0.0,0.0,0.0,0.0,0.0,0.0,-1.4525,-1.4294,-1.4266,-1.4798,-1.4839,0.0,0.0,0.0,0.0,0.0,0.0,0.0,-1.6675,-1.6602,-1.6547,-1.6522,-1.6522,-1.7639,-1.9798,-1.9798,-2.1531,-2.4556,-2.2372,-2.1104,-2.0605,-1.9422,-1.9208,-1.9635,-1.9635,-1.9371,-1.9195,-2.1082,-2.1271,-2.0514,-1.9949,-2.0125,-2.0592,-1.9987,-1.9798,-1.9798,-1.9798,-1.9798,-1.9798,0.0,0.0,0.0,-2.0577,-2.1543,-2.2636,-2.3828,-2.5322,-2.6791,-2.7896,0.0,-2.9126,0.0,0.0,0.0,0.0,0.0,0.0,0.0,0.0,0.0,0.0,0.0,0.0,0.0,0.0,0.0,0.0,0.0,0.0,0.0,0.0,0.0,-2.6565,-2.5462,-2.4872,-2.4787,-2.38,-2.3135,-2.3135,-2.3135,-2.3135,-2.3135,-2.3135,-2.3135,-2.3135,-2.3135,-2.3144,-2.3135,-2.3144,-2.3135,-2.3135,-2.3135,-2.3135,-2.3135,-2.3135,-2.3135,-2.3135,-2.3135,-2.2969,-2.2861,0.0,0.0,0.0,0.0,0.0,0.0,0.0,0.0,0.0,0.0,0.0,0.0,0.0,-1.4317,-1.4472,-1.5337,-1.5117,0.0,0.0,0.0,0.0,0.0,0.0,0.0,-1.6565,-1.6522,-1.6522,-1.6522,-1.6522,-1.7476,-1.9309,-1.9648,-2.0639,-2.2133,-2.1694,-2.1581,-2.1606,-1.9798,-1.8932,-1.8807,-1.9158,-1.961,-2.019,-2.0879,-2.1382,-2.1644,-2.1079,-2.079,-2.0693,-2.0426,-2.0112,-1.9798,-1.9798,-1.9798,-1.9798,-1.9798,-1.9798,-1.9924,-2.0567,-2.0953,-2.1606,-2.3075,-2.4431,-2.5699,-2.6804,-2.7745,-2.8561,0.0,0.0,0.0,0.0,0.0,0.0,0.0,0.0,0.0,0.0,0.0,0.0,0.0,0.0,0.0,0.0,0.0,0.0,0.0,0.0,0.0,-2.5242,-2.4231,-2.3714,-2.3714,-2.3299,-2.3135,-2.3135,-2.3135,-2.3135,-2.3135,-2.3135,-2.3135,-2.3135,-2.3135,-2.3135,-2.3135,-2.3135,-2.3135,-2.3135,-2.3135,-2.3135,-2.3135,-2.3135,-2.3135,-2.3047,-2.2969,-2.2882,-2.2735,0.0,0.0,0.0,0.0,0.0,0.0,0.0,0.0,-1.3193,-1.291,0.0,0.0,0.0,0.0,-1.4783,-1.5624,-1.5191,-1.4916,-1.4916,-1.5392,0.0,0.0,0.0,0.0,-1.6577,-1.6522,-1.6522,-1.6522,-1.6522,-1.7287,-1.8756,-1.9108,-1.9773,-2.0718,-2.0665,-2.1179,-2.1933,-2.0275,-1.9472,-1.9359,-1.9911,-2.0451,-2.1071,-2.1782,-2.2284,-2.2573,-2.2397,-2.1845,-2.1217,-2.1217,-2.0715,-2.0062,-1.9861,-1.9685,-1.9547,-1.9547,-1.966,-1.9886,-2.0275,-2.0567,-2.102,-2.2259,-2.3288,-2.4318,-2.5624,-2.6615,-2.7482,0.0,0.0,0.0,0.0,0.0,0.0,0.0,0.0,0.0,0.0,0.0,0.0,0.0,0.0,0.0,0.0,0.0,0.0,0.0,0.0,0.0,-2.4069,-2.3474,-2.3135,-2.3135,-2.3135,-2.3135,-2.3135,-2.3135,-2.3135,-2.3135,-2.3135,-2.3135,-2.3135,-2.3135,-2.3135,-2.3047,-2.2784,-2.2784,-2.3135,-2.3135,-2.3135,-2.3135,-2.3135,-2.3057,-2.2969,-2.2891,-2.2715,-2.2539,0.0,0.0,0.0,0.0,0.0,0.0,0.0,0.0,-1.293,-1.29,0.0,0.0,0.0,0.0,0.0,-1.5736,-1.5266,-1.4979,-1.4979,-1.5429,-1.5772,0.0,0.0,0.0,-1.6675,-1.6577,-1.6522,-1.6522,-1.6522,-1.7087,-1.8179,-1.8191,-1.9058,-2.0605,-1.9497,-1.9911,-2.1355,-2.084,-2.0941,-2.1506,-2.2046,-2.197,-2.1769,-2.3929,-2.4092,-2.319,-2.3803,-2.3288,-2.2359,-2.2359,-2.1619,-2.0643,-1.9987,-1.9459,-1.8995,-1.8995,-1.9409,-1.9798,0.0,0.0,0.0,-2.133,-2.1882,0.0,-2.433,0.0,-2.585,0.0,0.0,0.0,0.0,0.0,0.0,0.0,0.0,0.0,0.0,0.0,0.0,0.0,0.0,0.0,0.0,0.0,0.0,0.0,0.0,-2.3135,-2.3135,-2.3047,-2.3047,-2.3135,-2.3057,-2.3057,-2.3135,-2.3047,-2.3047,-2.3135,-2.3135,-2.3135,-2.3135,-2.3047,-2.3047,-2.3047,-2.2059,-2.2148,-2.3047,-2.3047,-2.3047,-2.3047,-2.3047,-2.2969,-2.2803,-2.2803,-2.2451,-2.2097,0.0,0.0,0.0,0.0,0.0,-1.4853,-1.4175,-1.4209,-1.4033,0.0,0.0,0.0,-1.4596,-1.5566,-1.652,-1.7443,-1.7011,-1.6728,-1.6728,-1.6434,-1.6296,-1.6338,-1.6434,-1.6522,-1.6565,-1.6522,-1.6522,-1.6522,-1.6522,-1.6886,-1.7614,-1.8016,-1.8455,-1.8894,-1.8982,-1.9058,-1.9133,-1.9371,-2.0024,-2.0903,-2.1054,-2.1744,-2.2698,-2.2924,-2.3565,-2.433,-2.4092,-2.3803,-2.354,-2.354,-2.2523,-2.1091,-2.0112,-1.971,-1.9585,-1.9585,-1.9685,-1.9798,-1.9798,0.0,0.0,0.0,0.0,0.0,0.0,0.0,0.0,0.0,0.0,0.0,0.0,0.0,0.0,0.0,0.0,0.0,0.0,0.0,0.0,0.0,0.0,0.0,0.0,0.0,0.0,0.0,-2.3135,-2.3135,-2.3135,-2.2969,-2.2969,-2.3135,-2.2784,-2.2794,-2.3135,-2.2969,-2.2969,-2.3135,-2.3135,-2.3135,-2.3047,-2.2413,-2.2059,-2.205,-2.1051,-2.0773,-2.1051,-2.1784,-2.2059,-2.2148,-2.2696,-2.2891,-2.2803,-2.2451,-2.2185,-2.2097,0.0,0.0,0.0,-1.541,-1.541,-1.5244,-1.4746,-1.4736,-1.4609,0.0,0.0,0.0,-1.5049,-1.6178,-1.7134,-1.7761,-1.7763,-1.7626,-1.74,-1.7061,-1.6773,-1.6522,-1.6522,-1.6635,-1.6873,-1.6886,-1.6986,-1.7225,-1.7225,-1.7388,-1.7739,-1.8053,-1.8204,-1.8216,-1.8543,-1.8505,-1.8229,-1.8543,-1.9183,-2.0037,-2.0727,-2.1732,-2.2777,-2.2824,-2.3427,-2.4288,-2.4068,-2.3969,-2.3833,-2.3717,-2.244,-2.0704,-1.9468,-1.9148,-1.9233,-1.8851,-1.9032,-1.9335,-1.9117,-1.9109,-1.9243,-1.9788,0.0,0.0,0.0,-2.1213,0.0,0.0,0.0,0.0,0.0,0.0,0.0,0.0,0.0,0.0,0.0,0.0,0.0,0.0,0.0,0.0,0.0,0.0,0.0,0.0,-2.2969,-2.2969,-2.2784,-2.2706,-2.2706,-2.2784,-2.253,-2.252,-2.2794,-2.2794,-2.2882,-2.2969,-2.2696,-2.2511,-2.2511,-2.1507,-2.1051,-2.1051,-2.0059,-1.9604,-1.9695,-2.024,-2.0692,-2.115,-2.1516,-2.1882,-2.1989,-2.1722,-2.1731,-2.1919,0.0,0.0,-1.541,-1.541,-1.541,-1.5391,-1.5352,-1.5107,-1.4912,0.0,-1.4795,-1.5026,-1.5801,-1.6653,-1.7288,-1.7446,-1.7921,-1.7984,-1.7589,-1.7451,-1.7149,-1.6635,-1.6609,-1.6823,-1.7275,-1.74,-1.7689,-1.8116,-1.8179,-1.8242,-1.8292,-1.8292,-1.8292,-1.8292,-1.8229,-1.8119,-1.8022,-1.8072,-1.8373,-1.8895,-2.0569,-2.1668,-2.2399,-2.3079,-2.3466,-2.3708,-2.3943,-2.384,-2.3582,-2.3306,-2.1955,-2.0086,-1.8657,-1.8441,-1.8578,-1.7699,-1.8141,-1.8794,-1.8391,-1.8265,-1.8302,-1.8747,-1.8429,0.0,-1.9573,-1.9744,0.0,0.0,0.0,0.0,0.0,0.0,0.0,0.0,0.0,0.0,0.0,0.0,0.0,0.0,0.0,0.0,0.0,0.0,-2.3057,-2.2803,-2.2794,-2.2618,-2.2432,-2.2353,-2.2353,-2.2441,-2.2353,-2.2353,-2.2441,-2.2618,-2.2706,-2.2618,-2.1971,-2.1606,-2.1507,-2.0503,-2.0051,-1.996,-1.9055,-1.8611,-1.8611,-1.8611,-1.9147,-2.0051,-2.0141,-2.043,-2.0808,-2.0898,-2.1177,-2.1553,-1.4893,-1.5176,-1.541,-1.541,-1.541,-1.5293,-1.4961,-1.542,-1.5684,-1.5332,-1.5521,-1.5971,-1.6819,-1.6751,-1.7213,-1.8534,-1.8316,-1.8289,-1.8657,-1.7877,-1.7338,-1.7212,-1.7212,-1.7049,-1.6685,-1.7576,-1.7877,-1.7551,-1.799,-1.843,-1.8869,-1.8869,-1.8869,-1.8844,-1.8405,-1.7694,-1.6961,-1.7303,-1.744,-1.7497,-1.8815,-2.0668,-2.2594,-2.1789,-2.2555,-2.393,-2.358,-2.372,-2.3849,-2.2926,-2.2366,-2.1704,-1.981,-1.9488,-1.9621,-1.8737,-1.8885,-1.933,-1.9239,-1.9088,-1.8892,-1.8669,-1.8643,0.0,-1.8029,-1.7852,-1.7903,0.0,0.0,0.0,0.0,0.0,0.0,0.0,0.0,0.0,0.0,0.0,0.0,0.0,0.0,0.0,0.0,0.0,-2.3057,-2.2803,-2.2618,-2.2441,-2.2441,-2.2264,-2.2264,-2.2344,-2.1998,-2.1998,-2.2441,-2.2441,-2.2167,-2.1606,-2.1695,-2.1239,-2.0413,-1.9513,-1.9055,-1.9063,-1.8056,-1.7598,-1.7598,-1.7598,-1.8149,-1.9155,-1.953,-1.9712,-1.9803,-2.0257,-2.0529,-2.0529,-1.5059,-1.5264,-1.541,-1.541,-1.5586,-1.5742,-1.5752,-1.6123,-1.6537,-1.6806,-1.6768,-1.6742,-1.6782,-1.684,-1.7169,-1.8015,-1.8077,-1.8251,-1.8509,-1.8044,-1.777,-1.7802,-1.779,-1.779,-1.7777,-1.8329,-1.8606,-1.8593,-1.8869,-1.9096,-1.927,-1.899,-1.8824,-1.8721,-1.8136,-1.7455,-1.6726,-1.6942,-1.7043,-1.7111,-1.8481,-2.0284,-2.2043,-2.1396,-2.2132,-2.3452,-2.2758,-2.275,-2.2856,-2.1987,-2.1594,-2.1152,-1.9487,-1.9391,-1.9781,-1.8877,-1.8881,-1.9027,-1.8624,-1.8373,-1.8126,-1.7931,-1.7747,0.0,0.0,-1.693,-1.685,-1.7529,0.0,0.0,0.0,0.0,0.0,0.0,0.0,0.0,0.0,0.0,0.0,0.0,0.0,0.0,0.0,0.0,-2.2573,-2.2432,-2.2176,-2.2087,-2.2087,-2.2008,-2.1919,-2.2087,-2.182,-2.183,-2.2087,-2.1704,-2.1329,-2.0962,-2.0331,-1.9786,-1.9239,-1.8427,-1.8056,-1.8056,-1.7512,-1.7326,-1.7326,-1.7326,-1.7606,-1.8064,-1.8164,-1.8442,-1.8812,-1.898,-1.9247,-1.9521,-1.5312,-1.541,-1.541,-1.541,-1.5703,-1.6064,-1.6426,-1.6553,-1.6978,-1.8098,-1.793,-1.7523,-1.6974,-1.7185,-1.7489,-1.769,-1.8047,-1.8262,-1.8389,-1.8175,-1.8046,-1.8031,-1.8115,-1.8264,-1.8487,-1.8809,-1.9069,-1.9275,-1.9322,-1.9319,-1.9226,-1.8727,-1.8447,-1.8298,-1.7696,-1.7167,-1.6629,-1.6629,-1.6697,-1.6983,-1.8284,-1.9683,-2.096,-2.0917,-2.1586,-2.2444,-2.1962,-2.1807,-2.1697,-2.1107,-2.0737,-2.0317,-1.894,-1.9147,-1.9686,-1.8606,-1.8578,-1.87,-1.7887,-1.7607,-1.748,-1.7229,-1.6894,-1.6631,0.0,0.0,0.0,-1.6875,0.0,0.0,0.0,0.0,0.0,0.0,0.0,0.0,0.0,0.0,0.0,0.0,0.0,0.0,0.0,0.0,-2.1855,-2.1836,-2.1526,-2.1456,-2.1603,-2.1435,-2.1382,-2.1454,-2.1275,-2.1186,-2.1186,-2.061,-2.0232,-2.0051,-1.8972,-1.8342,-1.8064,-1.7512,-1.7326,-1.7326,-1.7326,-1.7326,-1.7326,-1.7326,-1.7239,-1.7239,-1.6972,-1.7254,-1.7807,-1.7692,-1.7963,-1.8511,-1.5254,-1.541,-1.541,-1.541,-1.5449,-1.5508,-1.5557,-1.5889,-1.6569,-1.7825,-1.8207,-1.8491,-1.8775,-1.8338,-1.8437,-1.9554,-1.8993,-1.8766,-1.9309,-1.8517,-1.7848,-1.7433,-1.7882,-1.768,-1.6708,-1.8052,-1.8272,-1.7311,-1.769,-1.7852,-1.7852,-1.7743,-1.7743,-1.7665,-1.712,-1.6642,-1.616,-1.6052,-1.615,-1.6437,-1.697,-1.7895,0.0,-1.967,-2.0281,-2.0762,-2.1507,-2.1807,-2.1714,0.0,-2.1063,-2.0803,0.0,-1.9486,-1.9808,-1.8512,-1.8613,-1.9032,-1.8539,-1.8534,0.0,0.0,-1.7386,0.0,0.0,0.0,-1.6037,-1.5693,0.0,0.0,0.0,0.0,0.0,0.0,0.0,0.0,0.0,0.0,0.0,0.0,0.0,0.0,0.0,0.0,0.0,-2.0969,-2.0421,-2.0438,-2.1145,-2.0386,-2.0102,-2.043,-1.9613,-1.9155,-1.9155,-1.9231,-1.8864,-1.8056,-1.8241,-1.7978,-1.716,-1.7239,-1.7326,-1.7326,-1.7326,-1.7326,-1.7326,-1.7326,-1.7153,-1.6972,-1.6777,-1.6683,-1.6864,-1.7232,-1.7419,-1.7512,-1.5342,-1.541,-1.541,-1.541,-1.541,-1.5498,-1.5752,-1.6707,-1.7486,-1.7725,-1.8489,-1.8934,-1.8537,-1.8602,-1.8754,-1.8866,-1.8564,-1.8467,-1.8797,-1.8401,-1.8313,-1.8554,-1.8412,-1.8081,-1.7648,-1.7893,-1.7858,-1.733,-1.7532,-1.7578,-1.7479,-1.7146,-1.6922,-1.6821,-1.678,-1.6499,-1.612,-1.6587,-1.6618,0.0,0.0,-1.7496,0.0,-1.9178,-2.0173,-2.0917,-2.1293,-2.1425,-2.1324,0.0,-2.043,0.0,0.0,0.0,0.0,-1.9272,0.0,-1.8984,0.0,0.0,0.0,0.0,0.0,0.0,-1.6074,0.0,-1.5703,0.0,0.0,0.0,0.0,0.0,0.0,0.0,0.0,0.0,0.0,0.0,0.0,0.0,0.0,0.0,0.0,0.0,0.0,0.0,0.0,-1.9924,-1.9945,-1.9635,-1.9363,-1.9191,-1.8757,-1.8581,-1.8788,-1.8326,-1.787,-1.7512,-1.7232,-1.6965,-1.6508,-1.6972,-1.716,-1.7153,-1.7239,-1.7326,-1.7326,-1.7326,-1.7153,-1.6979,-1.6683,-1.6494,-1.6407,-1.6393,-1.6393,-1.6393,-1.5391,-1.541,-1.541,-1.541,-1.541,-1.5557,-1.6056,-1.7254,-1.8061,-1.7982,-1.8843,-1.9383,-1.9104,-1.9236,-1.9328,-1.9247,-1.8944,-1.8731,-1.8721,-1.8628,-1.8698,-1.8868,-1.86,-1.8275,-1.7959,-1.763,-1.7333,-1.709,-1.7024,-1.6978,-1.6821,-1.6368,-1.6151,-1.6056,-1.6384,-1.6367,-1.6174,-1.6875,-1.6968,-1.6671,-1.7303,-1.7655,-1.7899,-1.9163,-2.0272,-2.1205,-2.1205,-2.1205,-2.1094,-2.0236,-2.0121,0.0,-1.9897,0.0,-1.9657,0.0,0.0,0.0,-1.8389,0.0,0.0,0.0,0.0,0.0,0.0,0.0,0.0,0.0,0.0,0.0,0.0,0.0,-1.6348,-1.6607,0.0,0.0,0.0,0.0,0.0,0.0,0.0,0.0,0.0,0.0,0.0,0.0,0.0,0.0,-1.8684,-1.8462,-1.8102,-1.7749,-1.7497,-1.7529,-1.7781,-1.7062,-1.6743,-1.6736,-1.6282,-1.6101,-1.6188,-1.6664,-1.6944,-1.6937,-1.7108,-1.7252,-1.7326,-1.7239,-1.7059,-1.6878,-1.6588,-1.6312,-1.6028,-1.5832,-1.5832,-1.5832,-1.5332,-1.541,-1.541,-1.541,-1.541,-1.5557,-1.6056,-1.6997,-1.7932,-1.8854,-1.93,-2.0042,-2.1232,-2.0657,-2.0661,-2.1883,-2.1019,-2.0259,-1.9807,-1.9505,-1.8761,-1.7345,-1.7924,-1.7764,-1.6568,-1.7005,-1.6719,-1.573,-1.5594,-1.5468,-1.5468,-1.5468,-1.541,-1.543,-1.5879,-1.6135,-1.6154,-1.6553,-1.6982,-1.7344,-1.7373,-1.8115,-1.9281,0.0,-2.0346,-2.1205,-2.1205,0.0,0.0,-2.0672,-2.0511,0.0,0.0,0.0,0.0,0.0,0.0,0.0,0.0,0.0,0.0,-1.7178,0.0,0.0,0.0,0.0,-1.6572,0.0,0.0,0.0,0.0,-1.6709,-1.6646,-1.6446,-1.6812,0.0,0.0,0.0,0.0,0.0,0.0,0.0,0.0,0.0,0.0,0.0,0.0,0.0,-1.7335,-1.6468,-1.611,-1.6426,-1.5582,-1.5073,-1.508,-1.508,-1.5221,-1.5503,-1.5695,-1.5879,-1.6134,-1.6422,-1.6697,-1.6872,-1.6872,-1.7047,-1.7232,-1.7066,-1.6878,-1.6588,-1.6312,-1.6028,-1.5832,-1.5832,-1.5832,-1.5832,-1.5381,-1.541,-1.541,-1.541,-1.541,-1.5664,-1.6396,-1.7066,-1.7742,-1.8595,-1.9239,-1.9879,-2.0597,-2.0807,-2.0821,-2.0801,-2.0532,-2.0108,-1.97,-1.9303,-1.9184,-1.9344,-1.84,-1.791,-1.8088,-1.7316,-1.6596,-1.5969,-1.5909,-1.5693,-1.541,-1.541,-1.541,-1.5459,-1.6484,-1.6777,-1.6572,-1.7568,-1.792,-1.7852,0.0,-1.9238,-2.0137,0.0,0.0,-2.0809,-2.0809,-2.0809,0.0,-2.0631,-2.047,-2.0262,-2.0325,-2.0078,-1.9742,-1.9639,-1.9566,0.0,0.0,0.0,-1.9365,-1.793,0.0,0.0,0.0,0.0,0.0,0.0,0.0,0.0,0.0,-1.6834,-1.6944,-1.6869,-1.6682,-1.6351,0.0,0.0,0.0,0.0,0.0,0.0,0.0,0.0,0.0,0.0,0.0,0.0,0.0,-1.5715,-1.5454,-1.5168,-1.4838,-1.4763,-1.4963,-1.4963,-1.5017,-1.511,-1.5388,-1.5479,-1.5375,-1.5826,-1.6035,-1.6141,-1.6317,-1.6679,-1.7066,-1.6878,-1.6683,-1.6581,-1.6312,-1.6028,-1.5832,-1.5832,-1.5832,-1.5832,-1.541,-1.541,-1.541,-1.541,-1.5674,-1.6123,-1.6855,-1.7461,-1.8076,-1.8779,-1.9383,-1.989,-2.0401,-2.0795,-2.0974,-2.0916,-2.0839,-2.0592,-2.0019,-1.9851,-1.9826,-1.9839,-1.8983,-1.8597,-1.8764,-1.7832,-1.7041,-1.6299,-1.6143,-1.584,-1.541,-1.541,-1.541,-1.5459,-1.6631,-1.6992,-1.6743,-1.7939,-1.835,-1.8311,0.0,-1.9844,0.0,0.0,-2.0566,-2.0566,0.0,-2.0566,-2.0566,-2.0566,-2.0468,-2.0367,-2.0566,-2.0272,-1.9934,-1.9883,-1.9834,-1.9678,-1.9365,-1.959,0.0,-1.8516,-1.8232,0.0,-1.6787,0.0,0.0,0.0,0.0,0.0,0.0,-1.6573,-1.6532,-1.6464,-1.6096,-1.548,0.0,-1.377,0.0,0.0,0.0,0.0,0.0,0.0,-1.432,-1.4985,0.0,0.0,0.0,0.0,-1.4747,-1.4362,-1.4362,-1.4456,-1.4649,-1.4656,-1.4703,-1.4803,-1.4987,-1.4987,-1.4987,-1.5246,-1.5445,-1.5639,-1.5924,-1.6331,-1.6815,-1.6546,-1.6494,-1.6588,-1.6211,-1.5927,-1.5832,-1.5832,-1.5832,-1.5832,-1.5439,-1.5459,-1.5488,-1.5508,-1.6182,-1.6885,0.0,0.0,-1.8769,0.0,-1.9648,-2.0164,-2.0779,-2.0751,-2.1017,-2.2096,-2.204,-2.1533,-2.0684,-2.1145,-2.0633,-1.8867,-1.9659,-1.9698,-1.8779,-1.8611,-1.8047,-1.6763,-1.6338,-1.5869,-1.5439,-1.542,-1.541,-1.5449,-1.6338,-1.6665,-1.6787,-1.7646,-1.8271,-1.874,-1.96,-1.9941,-1.999,-2.041,0.0,-2.0566,-2.0566,-2.0566,-2.0566,-2.0566,-2.0566,-2.0566,-2.0566,-2.0566,-2.0478,-2.0068,-2.0244,-2.0391,-1.957,-1.9639,-1.9746,-1.8906,0.0,0.0,0.0,0.0,-1.8184,0.0,0.0,0.0,0.0,-1.5886,-1.5455,-1.5267,-1.5033,-1.4503,-1.3636,-1.3526,0.0,0.0,0.0,0.0,-1.3404,-1.2527,-1.2104,-1.2755,-1.2815,-1.3006,0.0,0.0,0.0,-1.4088,-1.4088,-1.4088,-1.4088,-1.4088,-1.4222,-1.4496,-1.4496,-1.4589,-1.4863,-1.4856,-1.495,-1.5245,-1.5539,-1.5944,-1.6458,-1.6289,-1.6312,-1.6494,-1.6015,-1.5832,-1.5832,-1.5832,-1.5832,-1.5832,-1.583,-1.6162,-1.6494,-1.6816,-1.6797,-1.6885,0.0,0.0,0.0,0.0,-1.9648,-2.0078,-2.0605,-2.0869,-2.1152,-2.1458,-2.1699,-2.1787,-2.1562,-2.1115,-2.0909,-2.1045,-2.0105,-1.9879,-2.0557,-1.9224,-1.8407,-1.8076,-1.708,-1.6328,-1.5889,-1.5566,-1.541,-1.5449,-1.6338,-1.6665,-1.6787,-1.7646,-1.8437,-1.9199,-2.0049,-2.04,0.0,0.0,-2.0566,-2.0566,-2.0566,-2.0566,-2.0566,-2.0566,-2.0566,-2.0566,-2.0566,-2.0566,-2.0547,-2.043,-2.0478,-2.0518,-2.0303,-2.0312,-2.0273,-1.9727,-1.8813,-1.7998,0.0,0.0,0.0,0.0,0.0,0.0,0.0,0.0,-1.53,-1.5065,-1.4166,-1.3256,-1.2473,-1.2109,0.0,-1.2004,0.0,0.0,0.0,-1.2053,-1.2024,-1.2385,-1.2694,0.0,0.0,0.0,0.0,-1.4082,-1.4088,-1.4088,-1.4088,-1.4088,-1.4122,-1.4202,-1.4352,-1.4352,-1.4287,-1.4443,-1.4681,-1.5028,-1.5102,-1.5616,-1.6303,-1.5994,-1.6021,-1.6312,-1.5927,-1.5832,-1.5832,-1.5832,-1.5832,-1.5832,-1.6309,-1.6865,-1.7314,-1.7373,0.0,0.0,-1.7891,-1.8135,0.0,-1.9199,-1.9648,0.0,-2.0254,-2.085,-2.1309,-2.1504,-2.1914,0.0,-2.1894,0.0,-2.1387,-2.1309,-2.0742,-2.0684,-2.1221,-1.9902,-1.9102,-1.8926,-1.7451,-1.6504,-1.6115,-1.5615,-1.541,-1.5449,-1.6338,-1.6665,-1.6743,-1.7842,-1.8672,-1.9346,-2.0019,0.0,0.0,-2.0566,-2.0566,-2.0566,-2.0566,-2.0566,-2.0566,-2.0566,-2.0566,-2.0566,-2.0566,-2.0566,-2.0566,-2.0566,-2.0566,-2.0489,-2.0167,-2.001,-1.9875,-1.9232,-1.8529,-1.7867,-1.7327,-1.7037,-1.6588,0.0,0.0,0.0,0.0,0.0,0.0,-1.3797,-1.3049,-1.2353,-1.1935,-1.1724,0.0,0.0,-1.187,0.0,0.0,0.0,0.0,0.0,0.0,0.0,0.0,0.0,0.0,0.0,-1.3895,-1.3955,-1.4088,-1.4088,-1.4088,-1.4088,-1.4243,-1.4243,-1.4088,-1.4243,-1.4426,-1.4589,-1.4716,-1.5203,-1.5828,-1.5678,-1.5812,-1.613,-1.5927,-1.5832,-1.5832,-1.5832,-1.5832,-1.5832,-1.6885,-1.7473,-1.7891,0.0,0.0,0.0,0.0,-1.8721,0.0,-1.9316,0.0,-2.0019,-2.0078,-2.082,-2.1494,-2.1934,0.0,-2.2441,-2.207,-2.2344,-2.2012,-2.0869,-2.1445,-2.165,-2.1328,-2.04,-1.9707,-1.9287,-1.7627,-1.6553,-1.6115,-1.5615,-1.541,-1.5449,-1.6279,-1.6709,-1.6904,-1.8184,-1.8936,-1.9326,-1.9805,-2.0225,-2.0566,-2.0566,-2.0566,-2.0566,-2.0566,-2.0566,-2.0566,-2.0566,-2.0566,-2.0566,-2.0566,-2.0489,-2.0411,-2.0411,-2.0323,-2.0089,-1.9381,-1.9134,-1.8975,-1.8158,-1.7874,-1.7595,-1.6942,-1.6711,-1.6403,-1.5385,-1.5038,0.0,0.0,0.0,0.0,-1.2351,-1.2091,-1.1924,-1.1924,-1.1924,-1.1911,-1.187,0.0,0.0,0.0,0.0,0.0,0.0,0.0,0.0,0.0,0.0,0.0,0.0,-1.3546,0.0,-1.4028,0.0,-1.4088,-1.4088,-1.4088,-1.4088,-1.4088,-1.4088,-1.4108,-1.4162,-1.4409,-1.4791,-1.5286,-1.5376,-1.5665,-1.6123,-1.5927,-1.5832,-1.5832,-1.5832,-1.5832,-1.5832,-1.7725,-1.8056,-1.8189,0.0,0.0,-1.876,-1.9121,-1.918,-1.9326,-1.9746,-2.0185,-2.0596,-2.0967,-2.1465,-2.1943,-2.2363,-2.2783,0.0,0.0,0.0,0.0,-2.2178,-2.1641,-2.1484,-2.1768,-2.0547,-1.9707,-1.9287,-1.793,-1.6855,-1.6115,-1.5615,-1.541,-1.543,-1.5947,-1.6582,-1.7353,-1.8633,0.0,-1.9355,-2.0137,-2.0498,-2.0566,-2.0566,-2.0566,-2.0566,-2.0566,-2.0566,-2.0566,-2.0566,-2.0566,-2.0566,-2.0566,-2.0089,-1.9539,-1.9539,-1.9045,-1.8399,-1.8238,-1.8238,-1.8158,-1.7827,-1.7023,-1.6158,-1.5952,-1.5305,-1.4669,-1.4353,-1.4344,-1.4358,-1.3823,0.0,0.0,0.0,0.0,0.0,0.0,0.0,-1.2138,-1.1897,0.0,0.0,0.0,0.0,0.0,0.0,0.0,0.0,0.0,0.0,0.0,0.0,0.0,0.0,0.0,0.0,0.0,-1.4088,-1.4088,-1.4088,-1.4088,-1.4088,-1.4215,-1.4449,-1.4496,-1.4823,-1.5409,-1.5371,-1.5571,-1.5832,-1.5832,-1.5832,-1.5832,-1.5832,-1.5832,-1.5832,-1.837,-1.8562,-1.8567,-1.8366,0.0,0.0,0.0,-1.9589,0.0,-1.9912,-2.0098,-2.0391,-2.084,-2.1484,-2.206,-2.248,-2.2891,-2.3135,-2.3135,-2.2744,-2.251,-2.251,-2.1699,-2.1345,-2.169,-2.0722,-1.9963,-1.9471,-1.7913,-1.6788,-1.5932,-1.4865,-1.4401,-1.4488,-1.5482,-1.6619,0.0,0.0,0.0,-1.9346,-1.9507,-1.9733,-1.9854,-1.9441,-1.9274,-1.9274,-1.9274,-1.9274,-1.9362,-1.9766,-1.9932,-1.9854,-1.9362,-1.8966,-1.8647,-1.8647,-1.8327,-1.7917,-1.7359,-1.7196,-1.6985,-1.6145,-1.5499,-1.494,-1.4612,-1.4193,-1.3849,-1.3845,-1.3912,-1.3884,-1.3667,-1.3287,0.0,0.0,0.0,0.0,0.0,0.0,-1.2251,-1.2111,-1.2218,-1.2138,0.0,0.0,0.0,0.0,0.0,0.0,0.0,0.0,0.0,0.0,0.0,0.0,0.0,0.0,0.0,-1.4088,-1.4088,-1.4088,-1.4088,-1.4088,-1.4162,-1.4295,-1.4295,-1.4543,-1.4963,-1.5271,-1.5565,-1.5832,-1.5832,-1.5832,-1.5832,-1.5832,-1.5832,-1.5832,-1.8778,-1.8769,0.0,0.0,-1.9126,0.0,-1.9336,-1.9841,-2.0139,-2.0022,-2.0137,-2.0361,-2.0801,-2.1553,-2.2187,-2.2607,-2.2861,-2.3047,-2.3135,-2.2571,-2.2233,-2.2149,-2.1259,-2.079,-2.0763,-2.0212,-1.9542,0.0,-1.7396,-1.6269,-1.5386,-1.4141,-1.3619,0.0,0.0,0.0,0.0,0.0,-1.8427,-1.8853,-1.8583,-1.8695,-1.8975,-1.8238,-1.7997,-1.7997,-1.7997,-1.7997,-1.8078,-1.8567,-1.8895,-1.8895,-1.8238,-1.7836,-1.7755,-1.7755,-1.7594,-1.7196,-1.6386,-1.6064,-1.5734,-1.4519,-1.4149,-1.4017,-1.3468,-1.3328,-1.3396,-1.34,-1.3554,-1.3546,-1.3567,-1.3367,0.0,0.0,0.0,0.0,0.0,0.0,-1.2278,-1.2218,-1.2204,-1.2184,0.0,0.0,0.0,0.0,0.0,0.0,-1.1857,-1.187,0.0,0.0,0.0,0.0,-1.3547,0.0,-1.4021,0.0,-1.4088,-1.4088,-1.4088,-1.4088,-1.4088,-1.4088,-1.4088,-1.4289,-1.4656,-1.5184,-1.5565,-1.5832,-1.5832,-1.5832,-1.5832,-1.5832,-1.5832,-1.5832,0.0,0.0,0.0,0.0,0.0,0.0,0.0,-1.9686,-2.001,-2.0207,-2.0711,-2.1279,-2.1709,-2.2178,-2.2627,-2.3047,-2.2764,-2.2734,-2.3115,-2.2184,-2.1465,-2.1053,-2.006,-1.9159,-1.8347,-1.7868,-1.7066,0.0,0.0,-1.5184,-1.4082,-1.3958,0.0,0.0,0.0,0.0,0.0,-1.6433,-1.7114,-1.7579,-1.7959,-1.8043,-1.8078,-1.7997,-1.7997,-1.7997,-1.7997,-1.7997,-1.7917,-1.7188,-1.7432,-1.8078,-1.7997,-1.7432,-1.6854,-1.6854,-1.6139,-1.5333,-1.5249,-1.5075,-1.4747,-1.4192,-1.3822,-1.3461,-1.3006,-1.2862,-1.2876,-1.2903,-1.326,-1.3567,-1.33,-1.3227,-1.312,0.0,0.0,0.0,0.0,0.0,-1.2204,-1.1944,-1.1911,-1.1804,0.0,0.0,0.0,0.0,0.0,0.0,-1.187,-1.187,0.0,-1.2331,0.0,-1.2939,-1.3247,-1.354,0.0,-1.4088,-1.4088,-1.4088,-1.4088,-1.4088,-1.4088,-1.4088,-1.4088,-1.4402,-1.495,-1.5264,-1.5565,-1.5832,-1.5832,-1.5832,-1.5832,-1.5832,-1.5832,-1.5832,0.0,0.0,0.0,0.0,0.0,0.0,0.0,-1.8923,-1.9255,-1.9408,-2.0301,-2.0904,-2.0948,-2.1627,-2.1977,-2.1826,-2.2183,-2.2524,-2.2687,-2.1816,-2.1466,-2.1789,-2.0717,-1.9761,-1.8981,-1.891,-1.7938,0.0,0.0,0.0,0.0,0.0,0.0,0.0,0.0,-1.4895,-1.5766,-1.6513,-1.6977,-1.7145,-1.7202,-1.7188,-1.7188,-1.6632,-1.6476,-1.6476,-1.6476,-1.6476,-1.6394,-1.5899,-1.6378,-1.7107,-1.6632,-1.6147,-1.5733,-1.5733,-1.5318,-1.4824,-1.4741,-1.4566,-1.4413,-1.3872,-1.3581,-1.3198,-1.2896,-1.2605,-1.2532,-1.2788,-1.3086,-1.3347,-1.3233,-1.306,-1.2953,0.0,0.0,0.0,0.0,0.0,0.0,-1.2144,-1.2131,-1.2084,0.0,0.0,0.0,0.0,0.0,0.0,0.0,0.0,0.0,-1.2031,0.0,-1.2899,-1.3206,-1.35,-1.3794,-1.4088,-1.4088,-1.4088,-1.4088,-1.4088,-1.4088,-1.4088,-1.4088,-1.4422,-1.497,-1.509,-1.5411,-1.5832,-1.5832,-1.5832,-1.5832,-1.5832,-1.5832,-1.5832,-1.9059,0.0,-1.8221,0.0,-1.9254,-1.8905,-1.7916,-1.8309,-1.8614,-1.8549,-1.9331,-2.0129,-2.067,-2.1209,-2.1392,-2.1025,-2.1221,-2.1389,-2.1507,-2.0762,-2.0445,-2.0846,-1.9898,0.0,-1.8096,-1.8258,-1.7446,-1.5617,-1.5072,0.0,0.0,0.0,0.0,0.0,-1.3989,-1.456,-1.5413,-1.5897,-1.6222,-1.6333,-1.6188,-1.6185,-1.6194,-1.5555,-1.5367,-1.5447,-1.5447,-1.5447,-1.5439,-1.517,-1.5624,-1.6095,-1.5445,-1.5082,-1.4999,-1.4999,-1.4824,-1.4566,-1.4482,-1.4398,-1.4169,-1.3714,-1.3487,-1.3233,-1.2916,-1.2585,-1.2472,-1.2592,-1.2859,-1.3073,-1.3073,-1.2893,-1.2896,0.0,0.0,0.0,0.0,-1.2438,0.0,-1.2305,-1.2225,-1.2204,-1.2291,0.0,0.0,0.0,0.0,0.0,0.0,0.0,0.0,0.0,0.0,0.0,0.0,0.0,-1.3794,-1.4088,-1.4088,-1.4088,-1.4088,-1.4088,-1.4088,-1.4088,-1.4088,-1.4369,-1.4843,-1.493,-1.5257,-1.5712,-1.5798,-1.5832,-1.5832,-1.5832,-1.5832,-1.573,-1.7581,-1.6953,-1.6602,-1.747,-1.8033,-1.8121,-1.7199,-1.7879,-1.8272,-1.7786,-1.8049,-1.9162,-2.1558,-2.1359,-2.1033,-2.1042,-1.9703,-1.9019,-1.9472,-1.8539,-1.7779,0.0,0.0,-1.5768,-1.4616,-1.4522,-1.4235,-1.3641,0.0,0.0,-1.32,0.0,0.0,-1.32,-1.32,-1.352,-1.4028,-1.4028,-1.4282,-1.4727,-1.4734,-1.4923,-1.5196,-1.5196,-1.5385,-1.5644,-1.5644,-1.5644,-1.5602,-1.5294,-1.5196,-1.514,-1.4832,-1.4734,-1.4734,-1.4734,-1.4566,-1.4398,-1.4398,-1.4243,-1.4015,-1.3714,-1.3641,-1.348,-1.2879,-1.2822,-1.2735,-1.2365,-1.2545,-1.2829,-1.2829,-1.2829,-1.2822,-1.2829,0.0,0.0,0.0,0.0,0.0,-1.2305,-1.2051,-1.1991,-1.2271,0.0,0.0,0.0,0.0,0.0,0.0,0.0,0.0,-1.2285,-1.2592,0.0,-1.3206,-1.35,-1.3794,-1.4088,-1.4088,-1.4088,-1.4088,-1.4088,-1.4088,-1.4088,-1.4088,-1.4255,-1.4549,-1.4843,-1.5137,-1.5431,-1.5718,-1.5832,-1.5832,-1.5832,-1.5832,-1.5642,-1.7613,-1.7325,-1.7145,-1.7572,-1.7825,-1.7499,-1.611,-1.6308,-1.6659,-1.682,-1.7071,-1.7908,-1.9594,-1.9629,-1.9239,0.0,-1.8684,-1.8843,0.0,-1.8441,-1.8166,-1.8323,-1.7838,-1.7062,-1.5848,-1.6056,-1.542,-1.3948,0.0,0.0,0.0,-1.3507,-1.3507,-1.3514,-1.3714,-1.4052,-1.4321,-1.4498,-1.4847,-1.5115,-1.5276,-1.542,-1.5511,-1.5511,-1.5574,-1.5562,-1.5562,-1.5562,-1.5548,-1.5383,-1.526,-1.5246,-1.4974,-1.474,-1.4482,-1.4482,-1.4321,-1.4166,-1.4166,-1.4166,-1.4062,-1.3968,-1.3794,-1.3594,-1.34,-1.3039,-1.2735,-1.2365,-1.2538,-1.2822,-1.2822,-1.2822,-1.2822,-1.2822,0.0,0.0,0.0,0.0,-1.2305,-1.2305,-1.2218,-1.2204,0.0,-1.1951,0.0,0.0,0.0,0.0,0.0,0.0,0.0,0.0,-1.256,0.0,-1.3206,-1.35,-1.3794,-1.4088,-1.4088,-1.4088,-1.4088,-1.4088,-1.4088,-1.4088,-1.4088,-1.4369,-1.483,-1.4923,-1.5251,-1.5698,-1.5792,-1.5832,-1.5737,-1.5064,-1.4777,-1.4675,-1.6755,-1.6584,-1.6514,-1.6766,-1.6946,-1.6594,-1.5462,-1.567,-1.5951,-1.5881,-1.6196,-1.6807,-1.7569,-1.7684,0.0,-1.7326,-1.7505,-1.7684,-1.7684,-1.7405,-1.7383,-1.7669,-1.7398,-1.6865,-1.5998,0.0,0.0,-1.4416,-1.4482,-1.4335,-1.3975,-1.3975,-1.3975,-1.3988,-1.4282,-1.4516,-1.4689,-1.4872,-1.5069,-1.5232,-1.5315,-1.5459,-1.5562,-1.5562,-1.5631,-1.5636,-1.5636,-1.5636,-1.5622,-1.5429,-1.5312,-1.5291,-1.5087,-1.4791,-1.4634,-1.4433,-1.4247,-1.4088,-1.4088,-1.4088,-1.4088,-1.4088,-1.3948,-1.3754,-1.3534,-1.3193,-1.2832,-1.2532,-1.2712,-1.2886,-1.2842,-1.2839,-1.2846,-1.2619,0.0,-1.2432,-1.2318,0.0,0.0,0.0,0.0,0.0,0.0,-1.1395,0.0,0.0,0.0,0.0,0.0,0.0,0.0,-1.1591,-1.2461,0.0,-1.3206,-1.3607,-1.3901,-1.4088,-1.4088,-1.4088,-1.4088,-1.4088,-1.4088,-1.4088,-1.4088,-1.4355,-1.4803,-1.4545,-1.4675,-1.4999,-1.4721,-1.4663,-1.4567,-1.3896,-1.3709,-1.3516,-1.5055,-1.497,0.0,0.0,-1.5609,0.0,-1.5068,-1.5644,-1.5931,-1.517,-1.5464,-1.5805,-1.5825,-1.5832,-1.6204,-1.7138,0.0,0.0,0.0,-1.5832,-1.5832,-1.5832,-1.5832,0.0,-1.5404,-1.5418,-1.5297,-1.5023,-1.4703,-1.4563,-1.4583,-1.4563,-1.4549,-1.4563,-1.4843,-1.4977,-1.499,-1.499,-1.501,-1.5023,-1.5023,-1.519,-1.5424,-1.5424,-1.5591,-1.5832,-1.5832,-1.5832,-1.5792,-1.5518,-1.5424,-1.5378,-1.511,-1.501,-1.4937,-1.4636,-1.4342,-1.4115,-1.4115,-1.4102,-1.4088,-1.4088,-1.4088,-1.3941,-1.3373,-1.324,-1.3153,-1.2839,-1.3026,-1.3153,-1.2936,-1.3026,-1.3026,-1.2458,-1.2559,-1.2694,-1.2345,0.0,0.0,0.0,0.0,0.0,0.0,-1.0351,-0.9895,0.0,0.0,0.0,0.0,0.0,0.0,-1.1129,-1.2454,-1.316,-1.324,-1.3801,-1.4088,-1.4088,-1.4088,-1.4088,-1.4088,-1.4088,-1.4088,-1.4088,-1.4088,-1.4262,-1.4482,-1.3835,-1.364,-1.3737,-1.3121,-1.2727,-1.2727,-1.263,-1.2635,-1.2436,0.0,0.0,-1.5177,-1.4796,-1.5156,-1.5327,-1.4683,-1.4987,-1.5307,-1.5355,-1.5418,-1.5585,-1.5805,-1.5832,-1.592,-1.6109,-1.5927,-1.5832,-1.5832,-1.5832,-1.5832,-1.5832,-1.5832,-1.5691,-1.5404,-1.5611,-1.5691,-1.5625,-1.511,-1.497,-1.5184,-1.4963,-1.4863,-1.4863,-1.4937,-1.5084,-1.5297,-1.5297,-1.5424,-1.5625,-1.5625,-1.5665,-1.5732,-1.5732,-1.5765,-1.5832,-1.5832,-1.5832,-1.5818,-1.5752,-1.5732,-1.5712,-1.5645,-1.5471,-1.5237,-1.4943,-1.4649,-1.4422,-1.4422,-1.4255,-1.4088,-1.4088,-1.4088,-1.3995,-1.3621,-1.354,-1.3454,-1.316,-1.3333,-1.352,-1.3447,-1.3307,-1.316,-1.3019,-1.2665,-1.2385,-1.2311,-1.1781,0.0,0.0,-1.0651,-1.0196,-1.0196,-1.0045,-0.9895,0.0,0.0,0.0,0.0,0.0,-1.0889,-1.1407,-1.2098,-1.2795,-1.3459,-1.3901,-1.4088,-1.4088,-1.4088,-1.4088,-1.4088,-1.4088,-1.4088,-1.4088,-1.4088,-1.4382,-1.4863,-1.4655,-1.4425,-1.4201,-1.3974,-1.3414,-1.263,-1.1853,-1.156,-1.1365,-1.4408,-1.4683,-1.4937,-1.4756,-1.4983,-1.5137,-1.495,-1.5057,-1.5204,-1.5311,-1.5484,-1.5651,-1.5812,-1.5832,-1.5832,-1.5832,-1.5832,-1.5832,-1.5832,-1.5832,-1.5832,-1.5832,-1.5832,-1.5758,-1.5598,-1.5752,-1.5832,-1.5832,-1.5384,-1.5244,-1.5391,-1.5237,-1.5164,-1.5164,-1.5297,-1.5444,-1.5591,-1.5591,-1.5685,-1.5832,-1.5832,-1.5832,-1.5832,-1.5832,-1.5832,-1.5832,-1.5832,-1.5832,-1.5832,-1.5832,-1.5832,-1.5832,-1.5832,-1.5718,-1.5565,-1.5404,-1.5057,-1.4696,-1.4556,-1.4402,-1.4255,-1.4122,-1.4088,-1.4008,-1.3707,-1.3748,-1.3761,-1.3467,-1.3641,-1.3808,-1.3667,-1.3514,-1.332,-1.3046,-1.2413,-1.2003,-1.2244,-1.1329,0.0,-1.1037,-1.0056,-0.9372,-0.9372,-0.8993,-0.8841,-0.8841,0.0,0.0,-0.8302,-0.8881,-0.9577,-1.0334,-1.1213,-1.1892,-1.2395,-1.3084,-1.3652,-1.4088,-1.4088,-1.4088,-1.4088,-1.4088,-1.4088,-1.4088,-1.3652,-1.3796,-1.4218,-1.3308,-1.2966,-1.2829,-1.2349,-1.1765,-1.1179,-1.069,-1.0498,-1.04,-1.4088,-1.4322,-1.4589,-1.4796,-1.4903,-1.505,-1.5291,-1.5364,-1.5378,-1.5337,-1.5618,-1.5832,-1.5832,-1.5832,-1.5832,-1.5832,-1.5832,-1.5832,-1.5832,-1.5832,-1.5832,-1.5832,-1.5832,-1.5832,-1.5832,-1.5832,-1.5832,-1.5832,-1.5585,-1.5464,-1.5464,-1.5464,-1.5464,-1.5471,-1.5718,-1.5832,-1.5832,-1.5832,-1.5832,-1.5832,-1.5832,-1.5832,-1.5832,-1.5832,-1.5832,-1.5832,-1.5832,-1.5832,-1.5832,-1.5832,-1.5832,-1.5832,-1.5832,-1.5832,-1.5832,-1.5832,-1.5478,-1.5017,-1.4676,-1.4522,-1.4396,-1.4148,-1.4088,-1.4021,-1.3768,-1.3908,-1.4015,-1.3761,-1.3908,-1.4008,-1.3761,-1.3634,-1.3407,-1.2899,-1.2043,-1.1593,-1.2035,0.0,-0.9976,-1.0657,-0.9453,-0.8551,-0.8551,-0.7863,-0.7484,-0.7484,-0.7508,0.0,0.0,-0.7947,-0.8311,-0.8866,-1.0135,-1.0863,-1.0947,-1.1991,-1.2875,-1.3652,-1.3652,-1.3652,-1.3652,-1.3652,-1.3652,-1.3652,-1.279,-1.2732,-1.3018,-1.1385,-1.0896,-1.1077,-1.0207,-0.9723,-0.9628,-0.9628,-0.9628,-0.9628,-1.4088,-1.4322,-1.4456,-1.4255,-1.4636,-1.4977,-1.5023,-1.5237,-1.5478,-1.5712,-1.5792,-1.5832,-1.5832,-1.5832,-1.5832,-1.5832,-1.5832,-1.5832,-1.5832,-1.5832,-1.5832,-1.5832,-1.5832,-1.5832,-1.5832,-1.5832,-1.5832,-1.5832,-1.5785,-1.5758,-1.5758,-1.5758,-1.5758,-1.5765,-1.5805,-1.5832,-1.5832,-1.5832,-1.5832,-1.5832,-1.5832,-1.5832,-1.5832,-1.5832,-1.5832,-1.5832,-1.5832,-1.5832,-1.5832,-1.5832,-1.5832,-1.5832,-1.5832,-1.5832,-1.5832,-1.5832,-1.5765,-1.5578,-1.5044,-1.4529,-1.4142,-1.4095,-1.4088,-1.4075,-1.4028,-1.4055,-1.4075,-1.4028,-1.4055,-1.4075,-1.4028,-1.3614,-1.3247,-1.3153,-1.2018,-1.116,0.0,0.0,-0.8927,-0.9079,-0.8246,-0.771,-0.771,-0.7557,-0.7484,-0.7484,-0.7626,-0.7732,-0.7836,-0.8069,-0.832,-0.8375,-0.9515,-1.0413,-1.1273,-1.1391,-1.1585,-1.1757,-1.1757,-1.1757,-1.1757,-1.1757,-1.1757,-1.1757,-1.1585,-1.1762,-1.2199,-1.1925,-1.1546,-1.1175,-1.0979,-1.04,-0.9628,-0.9628,-0.9628,-0.9628,-1.4088,-1.4362,-1.4543,-1.4355,-1.4589,-1.4843,-1.495,-1.5211,-1.5504,-1.5792,-1.5832,-1.5832,-1.5832,-1.5832,-1.5832,-1.5832,-1.5832,-1.5832,-1.5832,-1.5832,-1.5832,-1.5832,-1.5832,-1.5832,-1.5832,-1.5832,-1.5832,-1.5832,-1.5832,-1.5832,-1.5832,-1.5832,-1.5832,-1.5832,-1.5832,-1.5832,-1.5832,-1.5832,-1.5832,-1.5832,-1.5832,-1.5832,-1.5832,-1.5832,-1.5832,-1.5832,-1.5832,-1.5832,-1.5832,-1.5832,-1.5832,-1.5832,-1.5832,-1.5832,-1.5832,-1.5832,-1.5611,-1.5304,-1.5037,-1.4536,-1.4088,-1.4088,-1.4088,-1.4088,-1.4088,-1.4088,-1.4088,-1.4088,-1.4088,-1.3913,-1.3483,-1.2978,-1.2544,-1.2044,-1.0802,0.0,0.0,-0.9148,-0.8246,-0.8623,-0.8016,-0.7484,-0.7484,-0.7484,-0.7525,-0.7622,-0.7711,-0.7841,-0.8036,-0.8203,-0.8337,-0.8438,-0.8952,-0.9602,-1.0549,-1.0549,-1.0809,-1.1327,-1.1327,-1.1327,-1.1327,-1.1327,-1.1327,-1.1241,-1.0809,-1.0795,-1.1109,-1.0653,-1.0428,-1.0306,-1.0306,-1.0015,-0.9628,-0.9628,-0.9628,-0.9628,-1.4088,-1.4329,-1.4509,-1.4436,-1.4482,-1.4629,-1.4917,-1.515,-1.5424,-1.5785,-1.5832,-1.5832,-1.5832,-1.5832,-1.5832,-1.5832,-1.5832,-1.5832,-1.5832,-1.5832,-1.5832,-1.5832,-1.5832,-1.5832,-1.5832,-1.5832,-1.5832,-1.5832,-1.5832,-1.5832,-1.5832,-1.5832,-1.5832,-1.5832,-1.5832,-1.5832,-1.5832,-1.5832,-1.5832,-1.5832,-1.5832,-1.5832,-1.5832,-1.5832,-1.5832,-1.5832,-1.5832,-1.5832,-1.5832,-1.5832,-1.5832,-1.5832,-1.5832,-1.5832,-1.5832,-1.5832,-1.5464,-1.505,-1.4983,-1.4536,-1.4088,-1.4088,-1.3913,-1.3828,-1.4082,-1.3743,-1.3483,-1.3743,-1.3568,-1.3222,-1.2534,-1.2152,-1.1727,-1.1061,0.0,0.0,0.0,-0.8631,-0.7836,-0.8458,-0.7996,-0.7606,-0.7606,-0.7606,-0.7667,-0.7809,-0.7821,-0.7939,-0.8211,-0.8268,-0.8377,-0.856,-0.8568,-0.8911,-0.9602,-0.9602,-0.9946,-1.0636,-1.0636,-1.0636,-1.0636,-1.0636,-1.0636,-1.0636,-0.9946,-0.983,-1.0107,-0.9376,-0.9307,-0.9628,-0.9628,-0.9628,-0.9628,-0.9628,-0.9628,-0.9628,-1.4088,-1.4108,-1.4128,-1.4122,-1.4122,-1.4315,-1.4877,-1.4983,-1.5197,-1.5758,-1.5832,-1.5832,-1.5832,-1.5832,-1.5832,-1.5832,-1.5832,-1.5832,-1.5832,-1.5832,-1.5832,-1.5832,-1.5832,-1.5832,-1.5832,-1.5832,-1.5832,-1.5832,-1.5832,-1.5832,-1.5832,-1.5832,-1.5832,-1.5832,-1.5832,-1.5832,-1.5832,-1.5832,-1.5832,-1.5832,-1.5832,-1.5832,-1.5832,-1.5832,-1.5832,-1.5832,-1.5832,-1.5832,-1.5832,-1.5832,-1.5832,-1.5832,-1.5832,-1.5832,-1.5832,-1.5832,-1.5611,-1.5304,-1.5037,-1.4536,-1.4088,-1.4088,-1.3483,-1.3052,-1.3913,-1.279,-1.1757,-1.2619,-1.21,-1.1499,-1.1413,-1.1218,-1.0977,-1.0893,0.0,0.0,-0.9294,-0.8552,-0.7975,-0.8057,-0.7975,-0.7975,-0.7975,-0.7975,-0.7979,-0.7996,-0.7996,-0.8008,-0.8032,-0.8195,-0.8377,-0.856,-0.8568,-0.8656,-0.8652,-0.8652,-0.874,-0.8828,-0.8828,-0.8828,-0.8828,-0.8828,-0.8828,-0.8828,-0.874,-0.8857,-0.9189,-0.9096,-0.9307,-0.9628,-0.9628,-0.9628,-0.9628,-0.9628,-0.9628,-0.9529,-1.4088,-1.4088,-1.4088,-1.4088,-1.4088,-1.4222,-1.4629,-1.4843,-1.511,-1.5504,-1.5718,-1.5832,-1.5832,-1.5832,-1.5832,-1.5832,-1.5832,-1.5832,-1.5832,-1.5832,-1.5832,-1.5832,-1.5832,-1.5832,-1.5832,-1.5832,-1.5832,-1.5832,-1.5832,-1.5832,-1.5832,-1.5832,-1.5832,-1.5832,-1.5832,-1.5832,-1.5832,-1.5832,-1.5832,-1.5832,-1.5832,-1.5832,-1.5832,-1.5832,-1.5832,-1.5832,-1.5832,-1.5832,-1.5832,-1.5832,-1.5832,-1.5832,-1.5832,-1.5832,-1.5635,-1.5064,-1.4666,-1.4377,-1.4107,-1.3762,-1.3435,-1.3266,-1.2534,-1.1929,-1.2272,-1.1843,-1.158,-1.2534,-1.1929,-1.1327,-1.1327,-1.0737,-1.0086,-0.9574,0.0,-0.8602,-0.8602,-0.8251,-0.8012,-0.8012,-0.8012,-0.8012,-0.8012,-0.8012,-0.8012,-0.8012,-0.8012,-0.8065,-0.8178,-0.8361,-0.8495,-0.8564,-0.8568,-0.8568,-0.8568,-0.8568,-0.8568,-0.8568,-0.8568,-0.8568,-0.8568,-0.8568,-0.8568,-0.8568,-0.8568,-0.8702,-0.8926,-0.8926,-0.9072,-0.9311,-0.9417,-0.9458,-0.9474,-0.9587,-0.9529,-0.9335,-1.4088,-1.4088,-1.4088,-1.4088,-1.4088,-1.4182,-1.4476,-1.477,-1.507,-1.5357,-1.5651,-1.5832,-1.5832,-1.5832,-1.5832,-1.5832,-1.5832,-1.5832,-1.5832,-1.5832,-1.5832,-1.5832,-1.5832,-1.5832,-1.5832,-1.5832,-1.5832,-1.5832,-1.5832,-1.5832,-1.5832,-1.5832,-1.5832,-1.5832,-1.5832,-1.5832,-1.5832,-1.5832,-1.5832,-1.5832,-1.5832,-1.5832,-1.5832,-1.5832,-1.5832,-1.5832,-1.5832,-1.5832,-1.5832,-1.5832,-1.5832,-1.5832,-1.5832,-1.5832,-1.5642,-1.4968,-1.4634,-1.4415,-1.4141,-1.3417,-1.278,-1.2703,-1.2186,-1.1752,-1.1752,-1.1499,-1.158,-1.2534,-1.1757,-1.0895,-1.0895,-1.0115,-0.9257,-0.8652,-0.8463,-0.8377,-0.8377,-0.8268,-0.8187,-0.8187,-0.8187,-0.8187,-0.8187,-0.8187,-0.8162,-0.8105,-0.8101,-0.8154,-0.8284,-0.841,-0.8507,-0.8564,-0.8568,-0.8568,-0.8568,-0.8568,-0.8568,-0.8568,-0.8568,-0.8568,-0.8568,-0.8568,-0.8568,-0.8568,-0.8568,-0.8666,-0.882,-0.882,-0.893,-0.9108,-0.923,-0.9307,-0.9272,-0.9397,-0.9284,-0.9031,-1.4088,-1.4088,-1.4088,-1.4088,-1.4088,-1.4182,-1.4476,-1.477,-1.5064,-1.5357,-1.5645,-1.5825,-1.5825,-1.5832,-1.5832,-1.5832,-1.5832,-1.5832,-1.5832,-1.5832,-1.5832,-1.5832,-1.5832,-1.5832,-1.5832,-1.5832,-1.5832,-1.5832,-1.5832,-1.5832,-1.5832,-1.5832,-1.5832,-1.5832,-1.5832,-1.5832,-1.5832,-1.5832,-1.5832,-1.5832,-1.5832,-1.5832,-1.5832,-1.5832,-1.5832,-1.5832,-1.5832,-1.5825,-1.5825,-1.5825,-1.5737,-1.5737,-1.5737,-1.5737,-1.573,-1.573,-1.573,-1.567,-1.5478,-1.3786,-1.2281,-1.2579,-1.2705,-1.2705,-1.2705,-1.1929,-1.1585,-1.2443,-1.1149,-0.9859,-0.9859,-0.917,-0.8568,-0.8568,-0.8568,-0.8568,-0.8568,-0.8568,-0.8568,-0.8568,-0.8568,-0.8568,-0.8568,-0.8568,-0.8491,-0.8304,-0.8292,-0.8292,-0.8292,-0.8292,-0.8377,-0.856,-0.8568,-0.8568,-0.8568,-0.8568,-0.8568,-0.8568,-0.8568,-0.8568,-0.8568,-0.8568,-0.8568,-0.8568,-0.8568,-0.8662,-0.8816,-0.8816,-0.8926,-0.9092,-0.9096,-0.9013,-0.8968,-0.8972,-0.8882,-0.8722,-1.4088,-1.4088,-1.4088,-1.4088,-1.4088,-1.4182,-1.4476,-1.4596,-1.4756,-1.5057,-1.5344,-1.5524,-1.5524,-1.5705,-1.5832,-1.5832,-1.5832,-1.5832,-1.5832,-1.5832,-1.5832,-1.5832,-1.5832,-1.5832,-1.5832,-1.5832,-1.5832,-1.5832,-1.5832,-1.5832,-1.5832,-1.5832,-1.5832,-1.5832,-1.5832,-1.5832,-1.5832,-1.5832,-1.5832,-1.5832,-1.5832,-1.5832,-1.5832,-1.5832,-1.5832,-1.5832,-1.5832,-1.535,-1.4777,-1.4777,-1.4286,-1.3601,-1.3601,-1.3113,-1.2528,-1.2528,-1.2528,-1.248,-1.2152,-1.2135,-1.2259,-1.2137,-1.0927,-0.9864,-0.9864,-0.9602,-0.9689,-1.0549,-0.9777,-0.917,-0.9772,-0.917,-0.8568,-0.8568,-0.8568,-0.8568,-0.8568,-0.8568,-0.8568,-0.8568,-0.8568,-0.8568,-0.8568,-0.8568,-0.8491,-0.8304,-0.8292,-0.8292,-0.8292,-0.8414,-0.8511,-0.8564,-0.8568,-0.8568,-0.8568,-0.8568,-0.8568,-0.8568,-0.8568,-0.8568,-0.8568,-0.8568,-0.8568,-0.8568,-0.8568,-0.8504,-0.8367,-0.8367,-0.831,-0.8282,-0.8405,-0.839,-0.837,-0.8604,-0.862,-0.8387,-1.4088,-1.4088,-1.4088,-1.4088,-1.4088,-1.4142,-1.4322,-1.4449,-1.4583,-1.4763,-1.5144,-1.5398,-1.5398,-1.5658,-1.5832,-1.5832,-1.5832,-1.5832,-1.5832,-1.5832,-1.5832,-1.5832,-1.5832,-1.5832,-1.5832,-1.5832,-1.5832,-1.5832,-1.5832,-1.5832,-1.5832,-1.5832,-1.5832,-1.5832,-1.5832,-1.5832,-1.5737,-1.535,-1.5255,-1.5159,-1.4765,-1.4567,-1.4567,-1.4567,-1.4567,-1.4567,-1.4567,-1.4184,-1.3709,-1.3709,-1.3221,-1.2727,-1.2727,-1.2242,-1.1755,-1.1755,-1.1755,-1.1726,-1.1596,-1.1592,-1.1655,-1.1477,-1.0641,-0.9698,-0.9187,-0.9432,-0.9777,-1.0381,-0.9777,-0.9257,-0.9772,-0.917,-0.8568,-0.8568,-0.8568,-0.8568,-0.8568,-0.8568,-0.8568,-0.8568,-0.8568,-0.8568,-0.8568,-0.8568,-0.8519,-0.8406,-0.8333,-0.8321,-0.8398,-0.8507,-0.8568,-0.8568,-0.8568,-0.8568,-0.8568,-0.8568,-0.8568,-0.8568,-0.8568,-0.8568,-0.8568,-0.8568,-0.8568,-0.8568,-0.8476,-0.838,-0.8201,-0.8113,-0.8028,-0.7863,-0.7968,-0.7956,-0.7942,-0.8135,-0.8153,-0.7948,-1.4088,-1.4088,-1.4088,-1.4088,-1.4088,-1.4088,-1.4088,-1.4309,-1.4482,-1.4482,-1.499,-1.5357,-1.5357,-1.5645,-1.5832,-1.5832,-1.5832,-1.5832,-1.5832,-1.5832,-1.5832,-1.5832,-1.5832,-1.5832,-1.5832,-1.5832,-1.5832,-1.5832,-1.5832,-1.5832,-1.5832,-1.5832,-1.5832,-1.5832,-1.573,-1.5635,-1.5635,-1.4586,-1.4202,-1.41,-1.3119,-1.2727,-1.2727,-1.2727,-1.2727,-1.2727,-1.2727,-1.2635,-1.2533,-1.2441,-1.2436,-1.2436,-1.2436,-1.2436,-1.2436,-1.2436,-1.2436,-1.2436,-1.2436,-1.1616,-1.0801,-1.0782,-1.1134,-1.1133,-1.0022,-1.0487,-1.1089,-1.1073,-1.0376,-0.9772,-0.9772,-0.9174,-0.8568,-0.8568,-0.8568,-0.8568,-0.8568,-0.8568,-0.8568,-0.8568,-0.8568,-0.8568,-0.8568,-0.8568,-0.8568,-0.8568,-0.841,-0.839,-0.8556,-0.8564,-0.8564,-0.8568,-0.8568,-0.8568,-0.8564,-0.8568,-0.8568,-0.8568,-0.8568,-0.8568,-0.8564,-0.8564,-0.8564,-0.8568,-0.8292,-0.8201,-0.8113,-0.794,-0.7856,-0.7852,-0.7852,-0.7763,-0.7619,-0.7633,-0.7639,-0.76,-1.4088,-1.4088,-1.4088,-1.4088,-1.4088,-1.4088,-1.4088,-1.4142,-1.4182,-1.4182,-1.4689,-1.5057,-1.5057,-1.5518,-1.5832,-1.5832,-1.5832,-1.5832,-1.5832,-1.5832,-1.5832,-1.5832,-1.5832,-1.5832,-1.5832,-1.5832,-1.5832,-1.5832,-1.5832,-1.5832,-1.5832,-1.5832,-1.5832,-1.5737,-1.4968,-1.4586,-1.4586,-1.3511,-1.3022,-1.3022,-1.2829,-1.2727,-1.2727,-1.2727,-1.2727,-1.2727,-1.2727,-1.2145,-1.1365,-1.06,-1.0306,-1.0306,-1.0306,-1.0306,-1.0306,-1.0306,-1.0306,-1.0306,-1.0306,-1.0083,-0.9824,-0.9769,-0.9767,-0.9712,-0.9194,-0.9208,-0.9344,-0.9205,-0.8999,-0.8911,-0.8911,-0.874,-0.8568,-0.8568,-0.8568,-0.8568,-0.8568,-0.8568,-0.8568,-0.8568,-0.8568,-0.8568,-0.8568,-0.8568,-0.8568,-0.8568,-0.8528,-0.8432,-0.8288,-0.8292,-0.8204,-0.8032,-0.8032,-0.8116,-0.8292,-0.8116,-0.8212,-0.8568,-0.8568,-0.8476,-0.8292,-0.8292,-0.8204,-0.8032,-0.8032,-0.7856,-0.768,-0.7591,-0.7503,-0.7231,-0.7231,-0.7248,-0.7293,-0.7416,-0.7482,-0.7441,-1.4088,-1.4088,-1.4088,-1.4088,-1.4088,-1.4088,-1.4088,-1.4088,-1.4088,-1.4088,-1.4476,-1.4803,-1.495,-1.5357,-1.5678,-1.5818,-1.5832,-1.5635,-1.5159,-1.5064,-1.4867,-1.4376,-1.428,-1.428,-1.428,-1.428,-1.4765,-1.5832,-1.5832,-1.5832,-1.5832,-1.5832,-1.5832,-1.573,-1.4777,-1.4298,-1.4202,-1.2635,-1.195,-1.195,-1.1468,-1.1179,-1.1179,-1.1179,-1.1179,-1.1179,-1.1179,-1.0886,-1.0306,-0.9821,-0.9628,-0.9628,-0.9628,-0.9628,-0.9628,-0.9628,-0.9628,-0.9628,-0.9628,-0.9628,-0.9604,-0.9506,-0.9486,-0.9368,-0.8922,-0.882,-0.8771,-0.8605,-0.8568,-0.8568,-0.8568,-0.8568,-0.8568,-0.8568,-0.8568,-0.8568,-0.8568,-0.8568,-0.8568,-0.8568,-0.8568,-0.8568,-0.8568,-0.8568,-0.8568,-0.8568,-0.8568,-0.8564,-0.8384,-0.8384,-0.8384,-0.8212,-0.8208,-0.83,-0.8384,-0.8296,-0.8388,-0.8568,-0.8388,-0.8208,-0.8028,-0.8028,-0.8028,-0.7856,-0.7768,-0.7595,-0.7507,-0.7326,-0.7231,-0.7139,-0.7139,-0.7139,-0.7149,-0.7231,-0.7309,-0.7383,-1.4088,-1.4088,-1.4088,-1.4088,-1.4088,-1.4088,-1.4088,-1.4088,-1.4088,-1.4088,-1.4342,-1.4616,-1.4863,-1.5197,-1.5511,-1.5805,-1.5832,-1.5425,-1.4518,-1.4321,-1.3837,-1.2956,-1.2764,-1.2689,-1.2727,-1.2727,-1.3499,-1.5248,-1.5248,-1.5248,-1.5248,-1.5248,-1.5248,-1.5248,-1.419,-1.3806,-1.3613,-1.176,-1.0886,-1.0886,-0.9916,-0.9628,-0.9628,-0.9628,-0.9628,-0.9628,-0.9628,-0.9628,-0.9628,-0.9628,-0.9628,-0.9628,-0.9628,-0.9628,-0.9628,-0.9628,-0.9628,-0.9628,-0.9628,-0.9628,-0.9628,-0.9628,-0.9628,-0.9502,-0.9019,-0.8889,-0.8812,-0.8609,-0.8568,-0.8568,-0.8568,-0.8568,-0.8568,-0.8568,-0.8568,-0.8568,-0.8568,-0.8568,-0.8568,-0.8568,-0.8568,-0.8568,-0.8568,-0.8568,-0.8568,-0.8568,-0.8568,-0.8568,-0.8564,-0.8564,-0.8476,-0.848,-0.848,-0.8476,-0.8564,-0.8476,-0.8476,-0.8564,-0.812,-0.794,-0.794,-0.794,-0.7944,-0.7856,-0.7595,-0.7507,-0.7415,-0.7231,-0.7139,-0.7139,-0.7139,-0.7139,-0.7139,-0.7139,-0.7221,-0.7333,-1.4088,-1.4088,-1.4088,-1.4088,-1.4088,-1.4088,-1.4088,-1.4088,-1.4088,-1.4088,-1.4342,-1.4536,-1.4576,-1.507,-1.5511,-1.5805,-1.5832,-1.5624,-1.5285,-1.4509,-1.3936,-1.3643,-1.2886,-1.2612,-1.2721,-1.2727,-1.2823,-1.3119,-1.3119,-1.3119,-1.3119,-1.3119,-1.3119,-1.3113,-1.2047,-1.1658,-1.1565,-1.0306,-0.9821,-0.9821,-0.9624,-0.9628,-0.9628,-0.9628,-0.9628,-0.9628,-0.9628,-0.9628,-0.9628,-0.9628,-0.9628,-0.9628,-0.9628,-0.9628,-0.9628,-0.9628,-0.9628,-0.9628,-0.9628,-0.9628,-0.9628,-0.9628,-0.9628,-0.9567,-0.9336,-0.9165,-0.8966,-0.8637,-0.8568,-0.8568,-0.8568,-0.8568,-0.8568,-0.8568,-0.8568,-0.8568,-0.8568,-0.8568,-0.8568,-0.8568,-0.8568,-0.8568,-0.8568,-0.8568,-0.8568,-0.8568,-0.8568,-0.8476,-0.8288,-0.8288,-0.8204,-0.8032,-0.8032,-0.8116,-0.8288,-0.8116,-0.8116,-0.8288,-0.8028,-0.8028,-0.8201,-0.8201,-0.794,-0.7595,-0.7507,-0.7326,-0.7143,-0.7139,-0.7139,-0.7139,-0.7139,-0.7139,-0.7139,-0.7139,-0.7153,-0.7173,-1.4088,-1.4088,-1.4088,-1.4088,-1.4088,-1.4088,-1.4088,-1.4088,-1.4088,-1.4088,-1.4202,-1.4342,-1.4502,-1.5044,-1.5325,-1.4943,-1.4968,-1.4429,-1.3149,-1.2666,-1.2188,-1.1515,-1.1139,-1.0891,-1.0984,-1.0984,-1.0984,-1.0984,-1.215,-1.2727,-1.2727,-1.2727,-1.2727,-1.263,-1.1658,-1.117,-1.117,-1.0015,-0.9628,-0.9628,-0.9628,-0.9628,-0.9628,-0.9628,-0.9628,-0.9628,-0.9628,-0.9628,-0.9628,-0.9628,-0.9628,-0.9628,-0.9628,-0.9628,-0.9628,-0.9628,-0.9628,-0.9628,-0.9628,-0.9628,-0.9628,-0.9628,-0.9628,-0.9579,-0.9397,-0.9295,-0.9141,-0.8783,-0.871,-0.8678,-0.8584,-0.8568,-0.8568,-0.8568,-0.8568,-0.8568,-0.8568,-0.8568,-0.8568,-0.8568,-0.8568,-0.8568,-0.8568,-0.8568,-0.8568,-0.8568,-0.8568,-0.8564,-0.8472,-0.8384,-0.8384,-0.83,-0.83,-0.83,-0.8384,-0.83,-0.83,-0.8384,-0.83,-0.8208,-0.8028,-0.7852,-0.768,-0.7507,-0.7323,-0.7231,-0.7139,-0.7139,-0.7139,-0.7139,-0.7139,-0.7139,-0.7139,-0.7139,-0.7139,-0.7139]},{"header":{"parameterUnit":"m.s-1","parameterCategory":1,"la1":30.6,"la2":28.766,"lo1":-90.7593,"lo2":-88.6598,"dy":0.0162,"dx":0.0183,"nx":116,"ny":114,"refTime":"2024-06-03T18:00:00:Z","depth":0,"parameterNumber":3,"parameterNumberName":"V-component_of_WINDS"},"data":[0.0,0.0,0.0,0.0,0.0,0.0,0.0,0.0,0.0,0.0,0.0,0.0,0.0,0.0,0.0,0.0,0.0,0.0,0.0,0.0,0.0,0.0,0.0,0.0,0.0,0.0,0.0,0.0,0.0,0.0,0.0,0.0,0.0,0.0,0.0,0.0,0.0,0.0,0.0,0.0,0.0,0.0,0.0,0.0,0.0,0.0,0.0,0.0,0.0,0.0,0.0,0.0,0.0,0.0,0.0,0.0,0.0,0.0,0.0,0.0,0.0,0.0,0.0,0.0,0.0,0.0,0.0,0.0,0.0,0.0,0.0,0.0,0.0,0.0,0.0,0.0,0.0,0.0,0.0,0.0,0.0,0.0,0.0,0.0,0.0,0.0,0.0,0.0,0.0,0.0,0.0,0.0,0.0,0.0,0.0,0.0,0.0,0.0,0.0,0.0,0.0,0.0,0.0,0.0,0.0,0.0,0.0,0.0,0.0,0.0,0.0,0.0,0.0,0.0,0.0,0.0,0.0,0.0,0.0,0.0,0.0,0.0,0.0,0.0,0.0,0.0,0.0,0.0,0.0,0.0,0.0,0.0,0.0,0.0,0.0,0.0,0.0,0.0,0.0,0.0,0.0,0.0,0.0,0.0,0.0,0.0,0.0,0.0,0.0,0.0,0.0,0.0,0.0,0.0,0.0,0.0,0.0,0.0,0.0,0.0,0.0,0.0,0.0,0.0,0.0,0.0,0.0,0.0,0.0,0.0,0.0,0.0,0.0,0.0,0.0,0.0,0.0,0.0,0.0,0.0,0.0,0.0,0.0,0.0,0.0,0.0,0.0,0.0,0.0,0.0,0.0,0.0,0.0,0.0,0.0,0.0,0.0,0.0,0.0,0.0,0.0,0.0,0.0,0.0,0.0,0.0,0.0,0.0,0.0,0.0,0.0,0.0,0.0,0.0,0.0,0.0,0.0,0.0,0.0,0.0,0.0,0.0,0.0,0.0,0.0,0.0,0.0,0.0,0.0,0.0,0.0,0.0,0.0,0.0,0.0,0.0,0.0,0.0,0.0,0.0,0.0,0.0,0.0,0.0,0.0,0.0,0.0,0.0,0.0,0.0,0.0,0.0,0.0,0.0,0.0,0.0,0.0,0.0,0.0,0.0,0.0,0.0,0.0,0.0,0.0,0.0,0.0,0.0,0.0,0.0,0.0,0.0,0.0,0.0,0.0,0.0,0.0,0.0,0.0,0.0,0.0,0.0,0.0,0.0,0.0,0.0,0.0,0.0,0.0,0.0,0.0,0.0,0.0,0.0,0.0,0.0,0.0,0.0,0.0,0.0,0.0,0.0,0.0,0.0,0.0,0.0,0.0,0.0,0.0,0.0,0.0,0.0,0.0,0.0,0.0,0.0,0.0,0.0,0.0,0.0,0.0,0.0,0.0,0.0,0.0,0.0,0.0,0.0,0.0,0.0,0.0,0.0,0.0,0.0,0.0,0.0,0.0,0.0,0.0,0.0,0.0,0.0,0.0,0.0,0.0,0.0,0.0,0.0,0.0,0.0,0.0,0.0,0.0,0.0,0.0,0.0,0.0,0.0,0.0,0.0,0.0,0.0,0.0,0.0,0.0,0.0,0.0,0.0,0.0,0.0,0.0,0.0,0.0,0.0,0.0,0.0,0.0,0.0,0.0,0.0,0.0,0.0,0.0,0.0,0.0,0.0,0.0,0.0,0.0,0.0,0.0,0.0,0.0,0.0,0.0,0.0,0.0,0.0,0.0,0.0,0.0,0.0,0.0,0.0,0.0,0.0,0.0,0.0,0.0,0.0,0.0,0.0,0.0,0.0,0.0,0.0,0.0,0.0,0.0,0.0,0.0,0.0,0.0,0.0,0.0,0.0,0.0,0.0,0.0,0.0,0.0,0.0,0.0,0.0,0.0,0.0,0.0,0.0,0.0,0.0,0.0,0.0,0.0,0.0,0.0,0.0,0.0,0.0,0.0,0.0,0.0,0.0,0.0,0.0,0.0,0.0,0.0,0.0,0.0,0.0,0.0,0.0,0.0,0.0,0.0,0.0,0.0,0.0,0.0,0.0,0.0,0.0,0.0,0.0,0.0,0.0,0.0,0.0,0.0,0.0,0.0,0.0,0.0,0.0,0.0,0.0,0.0,0.0,0.0,0.0,0.0,0.0,0.0,0.0,0.0,0.0,0.0,0.0,0.0,0.0,0.0,0.0,0.0,0.0,0.0,0.0,0.0,0.0,0.0,0.0,0.0,0.0,0.0,0.0,0.0,0.0,0.0,0.0,0.0,0.0,0.0,0.0,0.0,0.0,0.0,0.0,0.0,0.0,0.0,0.0,0.0,0.0,0.0,0.0,0.0,0.0,0.0,0.0,0.0,0.0,0.0,0.0,0.0,0.0,0.0,0.0,0.0,0.0,0.0,0.0,0.0,0.0,0.0,0.0,0.0,0.0,0.0,0.0,0.0,0.0,0.0,0.0,0.0,0.0,0.0,0.0,0.0,0.0,0.0,0.0,0.0,0.0,0.0,0.0,0.0,0.0,0.0,0.0,0.0,0.0,0.0,0.0,0.0,0.0,0.0,0.0,0.0,0.0,0.0,0.0,0.0,0.0,0.0,0.0,0.0,0.0,0.0,0.0,0.0,0.0,0.0,0.0,0.0,0.0,0.0,0.0,0.0,0.0,0.0,0.0,0.0,0.0,0.0,0.0,0.0,0.0,0.0,0.0,0.0,0.0,0.0,0.0,0.0,0.0,0.0,0.0,0.0,0.0,0.0,0.0,0.0,0.0,0.0,0.0,0.0,0.0,0.0,0.0,0.0,0.0,0.0,0.0,0.0,0.0,0.0,0.0,0.0,0.0,0.0,0.0,0.0,0.0,0.0,0.0,0.0,0.0,0.0,0.0,0.0,0.0,0.0,0.0,0.0,0.0,0.0,0.0,0.0,0.0,0.0,0.0,0.0,0.0,0.0,0.0,0.0,0.0,0.0,0.0,0.0,0.0,0.0,0.0,0.0,0.0,0.0,0.0,0.0,0.0,0.0,0.0,0.0,0.0,0.0,0.0,0.0,0.0,0.0,0.0,0.0,0.0,0.0,0.0,0.0,0.0,0.0,0.0,0.0,0.0,0.0,0.0,0.0,0.0,0.0,0.0,0.0,0.0,0.0,0.0,0.0,0.0,0.0,0.0,0.0,0.0,0.0,0.0,0.0,0.0,0.0,0.0,0.0,0.0,0.0,0.0,0.0,0.0,0.0,0.0,0.0,0.0,0.0,0.0,0.0,0.0,0.0,0.0,0.0,0.0,0.0,0.0,0.0,0.0,0.0,0.0,0.0,0.0,0.0,0.0,0.0,0.0,0.0,0.0,0.0,0.0,0.0,0.0,0.0,0.0,0.0,0.0,0.0,0.0,0.0,0.0,0.0,0.0,0.0,0.0,0.0,0.0,0.0,0.0,0.0,0.0,0.0,0.0,0.0,0.0,0.0,0.0,0.0,0.0,0.0,0.0,0.0,0.0,0.0,0.0,0.0,0.0,0.0,0.0,0.0,0.0,0.0,0.0,0.0,0.0,0.0,0.0,0.0,0.0,0.0,0.0,0.0,0.0,0.0,0.0,0.0,0.0,0.0,0.0,0.0,0.0,0.0,0.0,0.0,0.0,0.0,0.0,0.0,0.0,0.0,0.0,0.0,0.0,0.0,0.0,0.0,0.0,0.0,0.0,0.0,0.0,0.0,0.0,0.0,0.0,0.0,0.0,0.0,0.0,0.0,0.0,0.0,0.0,0.0,0.0,0.0,0.0,0.0,0.0,0.0,0.0,0.0,0.0,0.0,0.0,0.0,0.0,0.0,0.0,0.0,0.0,0.0,0.0,0.0,0.0,0.0,0.0,0.0,0.0,0.0,0.0,0.0,0.0,0.0,0.0,0.0,0.0,0.0,0.0,0.0,0.0,0.0,0.0,0.0,0.0,0.0,0.0,0.0,0.0,0.0,0.0,0.0,0.0,0.0,0.0,0.0,0.0,0.0,0.0,0.0,0.0,0.0,0.0,0.0,0.0,0.0,0.0,0.0,0.0,0.0,0.0,0.0,0.0,0.0,0.0,0.0,0.0,0.0,0.0,0.0,0.0,0.0,0.0,0.0,0.0,0.0,0.0,0.0,0.0,0.0,0.0,0.0,0.0,0.0,0.0,0.0,0.0,0.0,0.0,0.0,0.0,0.0,0.0,0.0,0.0,0.0,0.0,0.0,0.0,0.0,0.0,0.0,0.0,0.0,0.0,0.0,0.0,0.0,0.0,0.0,0.0,0.0,0.0,0.0,0.0,0.0,0.0,0.0,0.0,0.0,0.0,0.0,0.0,0.0,0.0,0.0,0.0,0.0,0.0,0.0,0.0,0.0,0.0,0.0,0.0,0.0,0.0,0.0,0.0,0.0,0.0,0.0,0.0,0.0,0.0,0.0,0.0,0.0,0.0,0.0,0.0,0.0,0.0,0.0,0.0,0.0,0.0,0.0,0.0,0.0,0.0,0.0,0.0,0.0,0.0,0.0,0.0,0.0,0.0,0.0,0.0,0.0,0.0,0.0,0.0,0.0,0.0,0.0,0.0,0.0,0.0,0.0,0.0,0.0,0.0,0.0,0.0,0.0,0.0,0.0,0.0,0.0,0.0,0.0,0.0,0.0,0.0,0.0,0.0,0.0,0.0,0.0,0.0,0.0,0.0,0.0,0.0,0.0,0.0,0.0,0.0,0.0,0.0,0.0,0.0,0.0,0.0,0.0,0.0,0.0,0.0,0.0,0.0,0.0,0.0,0.0,0.0,0.0,0.0,0.0,0.0,0.0,0.0,0.0,0.0,0.0,0.0,0.0,0.0,0.0,0.0,0.0,0.0,0.0,0.0,0.0,0.0,0.0,0.0,0.0,0.0,0.0,0.0,0.0,0.0,0.0,0.0,0.0,0.0,0.0,0.0,0.0,0.0,0.0,0.0,0.0,0.0,0.0,0.0,0.0,0.0,0.0,0.0,0.0,0.0,0.0,0.0,0.0,0.0,0.0,0.0,0.0,0.0,0.0,0.0,0.0,0.0,0.0,0.0,0.0,0.0,0.0,0.0,0.0,0.0,0.0,0.0,0.0,0.0,0.0,0.0,0.0,0.0,0.0,0.0,0.0,0.0,0.0,0.0,0.0,0.0,0.0,0.0,0.0,0.0,0.0,0.0,0.0,0.0,0.0,0.0,0.0,0.0,0.0,0.0,0.0,0.0,0.0,0.0,0.0,0.0,0.0,0.0,0.0,0.0,0.0,0.0,0.0,0.0,0.0,0.0,0.0,0.0,0.0,0.0,0.0,0.0,0.0,0.0,0.0,0.0,0.0,0.0,0.0,0.0,0.0,0.0,0.0,0.0,0.0,0.0,0.0,0.0,0.0,0.0,0.0,0.0,0.0,0.0,0.0,0.0,0.0,0.0,0.0,0.0,0.0,0.0,0.0,0.0,0.0,0.0,0.0,0.0,0.0,0.0,0.0,0.0,0.0,0.0,0.0,0.0,0.0,0.0,0.0,0.0,0.0,0.0,0.0,0.0,0.0,0.0,0.0,0.0,0.0,0.0,0.0,0.0,0.0,0.0,0.0,0.0,0.0,0.0,0.0,0.0,0.0,0.0,0.0,0.0,0.0,0.0,0.0,0.0,0.0,0.0,0.0,0.0,0.0,0.0,0.0,0.0,0.0,0.0,0.0,0.0,0.0,0.0,0.0,0.0,0.0,0.0,0.0,0.0,0.0,0.0,0.0,0.0,0.0,0.0,0.0,0.0,0.0,0.0,0.0,0.0,0.0,0.0,0.0,0.0,0.0,0.0,0.0,0.0,0.0,0.0,0.0,0.0,0.0,0.0,0.0,0.0,0.0,0.0,0.0,0.0,0.0,0.0,0.0,0.0,0.0,0.0,0.0,0.0,0.0,0.0,0.0,0.0,0.0,0.0,0.0,0.0,0.0,0.0,0.0,0.0,0.0,0.0,0.0,0.0,0.0,0.0,0.0,0.0,0.0,0.0,0.0,0.0,0.0,0.0,0.0,0.0,0.0,0.0,0.0,0.0,0.0,0.0,-1.9074,0.0,0.0,0.0,0.0,0.0,0.0,0.0,0.0,0.0,0.0,0.0,0.0,0.0,0.0,0.0,0.0,0.0,0.0,0.0,0.0,0.0,0.0,0.0,0.0,-1.6687,-1.715,-1.8396,-1.8782,-1.8646,-1.787,0.0,0.0,0.0,0.0,0.0,-1.679,-1.6864,-1.6948,-1.7016,-1.717,-1.7683,-1.8566,-1.8079,-1.7423,-1.6651,0.0,0.0,0.0,0.0,0.0,0.0,0.0,0.0,0.0,0.0,0.0,0.0,0.0,0.0,0.0,0.0,0.0,0.0,0.0,0.0,0.0,0.0,0.0,0.0,0.0,0.0,0.0,0.0,0.0,0.0,0.0,0.0,0.0,0.0,0.0,0.0,0.0,0.0,0.0,0.0,0.0,0.0,0.0,0.0,0.0,0.0,0.0,0.0,0.0,0.0,0.0,0.0,0.0,0.0,0.0,0.0,0.0,0.0,0.0,0.0,0.0,0.0,0.0,0.0,0.0,0.0,0.0,0.0,0.0,0.0,0.0,-2.0303,0.0,0.0,0.0,0.0,0.0,0.0,0.0,0.0,0.0,0.0,0.0,0.0,0.0,0.0,0.0,0.0,0.0,0.0,0.0,0.0,0.0,-1.5925,-1.7397,-1.7677,-1.837,-1.9907,-1.9972,-1.9646,-1.8992,-1.8904,0.0,0.0,0.0,-1.7936,-1.7849,-1.7908,-1.8055,-1.8264,-1.864,-1.919,-1.9988,-2.069,-2.0263,-1.8878,-1.8428,0.0,0.0,0.0,0.0,0.0,0.0,0.0,0.0,0.0,0.0,0.0,0.0,0.0,0.0,0.0,0.0,0.0,0.0,0.0,0.0,0.0,0.0,0.0,0.0,0.0,0.0,0.0,0.0,0.0,0.0,0.0,0.0,0.0,0.0,0.0,0.0,0.0,0.0,0.0,0.0,0.0,0.0,0.0,0.0,0.0,0.0,0.0,0.0,0.0,0.0,0.0,0.0,0.0,0.0,0.0,0.0,0.0,0.0,0.0,0.0,0.0,0.0,0.0,-2.2337,-2.2769,-2.2796,-2.328,-2.3423,-2.316,-2.182,-2.1865,-2.2857,0.0,0.0,0.0,0.0,0.0,0.0,0.0,0.0,0.0,0.0,0.0,0.0,0.0,0.0,0.0,0.0,0.0,0.0,0.0,0.0,-1.6755,-1.7669,-1.8383,-1.9173,-2.0096,-2.0106,-2.0031,-1.9926,-1.9962,0.0,0.0,-1.9896,-1.9586,-1.8828,-1.889,-1.9313,-2.013,-2.1667,-2.2484,-2.2603,-2.272,-2.2646,-2.2337,-2.0127,-1.9558,-2.0144,0.0,0.0,0.0,0.0,0.0,0.0,0.0,0.0,0.0,0.0,0.0,0.0,0.0,0.0,0.0,0.0,0.0,0.0,0.0,0.0,0.0,0.0,0.0,0.0,0.0,0.0,0.0,0.0,0.0,0.0,0.0,0.0,0.0,0.0,0.0,0.0,0.0,0.0,0.0,0.0,0.0,-1.5358,-1.6277,0.0,0.0,0.0,0.0,0.0,0.0,0.0,0.0,0.0,0.0,0.0,0.0,0.0,0.0,-2.1209,-2.2184,-2.2736,-2.2811,-2.3464,-2.3514,-2.3025,-2.31,-2.3606,-2.4291,-2.406,0.0,-2.2456,-2.2284,0.0,0.0,0.0,0.0,0.0,0.0,0.0,0.0,0.0,0.0,0.0,0.0,0.0,0.0,0.0,0.0,0.0,0.0,0.0,0.0,0.0,-1.929,-2.0127,-2.0978,-2.1394,-2.1421,-2.0913,-2.0919,-2.0708,-2.0211,-2.0265,-2.0141,-1.9786,-2.0307,-2.1029,-2.1959,-2.3222,-2.3833,-2.3833,-2.4325,-2.456,-2.4481,-2.2878,-2.2115,-2.1881,-2.0183,0.0,0.0,0.0,0.0,0.0,0.0,0.0,0.0,0.0,0.0,0.0,0.0,0.0,0.0,0.0,0.0,0.0,0.0,0.0,0.0,0.0,0.0,0.0,0.0,0.0,0.0,0.0,0.0,0.0,0.0,0.0,0.0,0.0,0.0,0.0,0.0,0.0,0.0,0.0,-1.5542,-1.6062,-1.6111,-1.596,-1.5809,0.0,0.0,0.0,0.0,0.0,0.0,0.0,0.0,0.0,-2.0388,-2.1179,-2.2008,-2.2899,-2.3376,-2.3778,-2.4092,-2.4971,-2.5247,-2.5021,-2.5649,-2.5924,-2.5909,-2.6204,-2.5574,-2.4282,-2.3981,-2.3853,-2.3761,0.0,0.0,0.0,0.0,0.0,-2.5408,0.0,0.0,0.0,0.0,0.0,0.0,0.0,0.0,0.0,0.0,0.0,0.0,-1.9377,-2.0274,-2.1097,-2.1962,-2.254,-2.2583,-2.1926,-2.1685,-2.1251,-2.0612,-2.0424,-2.0372,-2.0421,-2.1497,-2.2507,-2.3423,-2.43,-2.4729,-2.4749,-2.54,-2.5693,-2.5668,-2.5024,-2.436,-2.3657,-2.1959,-2.112,-2.0726,0.0,0.0,0.0,0.0,0.0,0.0,0.0,0.0,0.0,0.0,0.0,0.0,0.0,0.0,0.0,0.0,0.0,0.0,0.0,0.0,0.0,0.0,0.0,0.0,0.0,0.0,0.0,0.0,0.0,0.0,0.0,0.0,0.0,0.0,0.0,0.0,0.0,-1.6035,-1.6621,-1.6229,-1.6779,-1.6999,0.0,0.0,0.0,0.0,0.0,0.0,-1.9648,-2.0702,-2.1619,-2.2322,-2.3012,-2.3853,-2.4833,-2.4983,-2.5259,-2.5674,-2.649,-2.6879,-2.6917,-2.7733,-2.7814,-2.7403,-2.7857,-2.7468,-2.6583,-2.5759,-2.5284,-2.4883,-2.4008,-2.3891,-2.4313,-2.5171,-2.5759,-2.6439,0.0,0.0,0.0,0.0,0.0,0.0,0.0,0.0,0.0,0.0,0.0,-1.9413,-2.0332,-2.1206,-2.2041,-2.2855,-2.2963,-2.2974,-2.2926,-2.2153,-2.1679,-2.1623,-2.0895,-2.0483,-2.0483,-2.2158,-2.3458,-2.4339,-2.5219,-2.5629,-2.5648,-2.5687,-2.5707,-2.5707,-2.5648,-2.5609,-2.5453,-2.3716,-2.2502,-2.1652,-2.0694,0.0,0.0,0.0,0.0,0.0,0.0,0.0,0.0,0.0,0.0,0.0,0.0,0.0,0.0,0.0,0.0,0.0,0.0,0.0,0.0,0.0,0.0,0.0,0.0,0.0,0.0,0.0,0.0,0.0,0.0,0.0,0.0,0.0,0.0,0.0,0.0,0.0,0.0,-1.7282,-1.8242,0.0,0.0,0.0,0.0,-1.9635,-2.0225,-2.0869,-2.1343,-2.241,-2.3514,-2.4619,-2.5699,-2.6527,-2.7118,-2.7645,-2.7908,-2.7934,-2.7996,-2.8021,-2.8021,-2.8084,-2.8157,-2.8337,-2.8567,-2.8756,-2.8705,-2.7222,-2.6005,-2.5022,-2.4896,-2.4872,-2.4921,-2.6231,-2.707,-2.7679,0.0,0.0,0.0,0.0,0.0,-1.525,-1.5235,-1.6017,-1.6805,-1.7408,-1.896,-2.0365,-2.123,-2.2614,-2.3565,-2.3812,-2.4349,-2.444,-2.3871,-2.3018,-2.2283,-2.1723,-2.1429,-2.1828,-2.2991,-2.3611,-2.4352,-2.5238,-2.5559,-2.5696,-2.5707,-2.5696,-2.5699,-2.5699,-2.5691,-2.5693,-2.5621,-2.4442,-2.3769,-2.3308,-2.1299,-1.9957,0.0,0.0,0.0,0.0,0.0,0.0,0.0,0.0,0.0,0.0,0.0,0.0,0.0,0.0,0.0,0.0,0.0,0.0,0.0,0.0,0.0,0.0,0.0,0.0,0.0,0.0,0.0,0.0,0.0,0.0,0.0,0.0,0.0,0.0,0.0,0.0,0.0,-1.8417,-1.9409,0.0,-2.0075,-2.0577,-2.0974,-2.1213,-2.2085,-2.2695,-2.2895,-2.4302,-2.534,-2.5862,-2.6942,-2.7607,-2.7808,-2.8009,-2.8109,-2.8109,-2.8461,-2.8637,-2.8649,-2.9026,-2.9063,-2.8946,-2.9538,-2.9516,-2.899,-2.8943,-2.8451,-2.7706,-2.7314,-2.7157,-2.7296,-2.8671,-2.9308,-2.9711,0.0,0.0,0.0,0.0,-1.5157,-1.5201,-1.5206,-1.6227,-1.721,-1.7819,-1.9671,-2.1271,-2.2148,-2.3535,-2.4492,-2.4745,-2.5276,-2.523,-2.4355,-2.3471,-2.2619,-2.1743,-2.1706,-2.2557,-2.4355,-2.4397,-2.4822,-2.5694,-2.5701,-2.5701,-2.5694,-2.5701,-2.5702,-2.5702,-2.5697,-2.5696,-2.5661,-2.5086,-2.4662,-2.4255,-2.2494,-2.1422,-2.0748,0.0,0.0,0.0,0.0,0.0,0.0,0.0,0.0,0.0,0.0,0.0,0.0,0.0,0.0,0.0,0.0,0.0,0.0,0.0,0.0,0.0,0.0,0.0,0.0,0.0,0.0,0.0,0.0,0.0,0.0,0.0,0.0,0.0,0.0,0.0,-1.9384,-1.9284,-2.0374,-2.1256,-2.1493,-2.1927,-2.2379,-2.2798,-2.3852,-2.4549,-2.4561,-2.5952,-2.6905,-2.7293,-2.7996,-2.8486,-2.8674,-2.8674,-2.8674,-2.8674,-2.9051,-2.9214,-2.9239,-2.9616,-2.9655,-2.9454,-3.0063,-2.9945,-2.9525,-3.0047,-3.0129,-2.9771,-2.8987,-2.8686,-2.8881,-3.0297,-3.0819,-3.1069,0.0,0.0,0.0,-1.5099,-1.5151,-1.5206,-1.5204,-1.669,-1.7813,-1.7891,-2.0208,-2.2162,-2.3008,-2.3906,-2.4785,-2.5625,-2.5622,-2.5219,-2.4381,-2.3471,-2.2583,-2.1789,-2.1779,-2.2615,-2.4394,-2.4436,-2.4854,-2.5703,-2.5703,-2.5703,-2.5703,-2.5703,-2.5703,-2.5703,-2.5701,-2.5698,-2.5694,-2.5709,-2.5205,-2.4429,-2.433,-2.3295,-2.1697,0.0,0.0,0.0,0.0,0.0,0.0,0.0,0.0,0.0,0.0,0.0,0.0,0.0,0.0,0.0,0.0,0.0,0.0,0.0,0.0,0.0,0.0,0.0,0.0,0.0,0.0,0.0,0.0,0.0,0.0,0.0,0.0,0.0,-1.6896,-1.8553,-1.9809,-1.9899,-2.1119,-2.2297,-2.3105,-2.3481,-2.3905,-2.457,-2.5549,-2.6156,-2.6263,-2.7209,-2.8176,-2.8913,-2.895,-2.9227,-2.9779,-2.9792,-2.9792,-2.9792,-2.9792,-2.9792,-2.9792,-2.9792,-2.9792,-2.9792,-3.0011,-3.0228,-3.0444,-3.0622,-3.0849,-3.0882,-2.9758,-2.9327,-2.9526,-3.0922,-3.1523,-3.1707,0.0,0.0,-1.5027,-1.5038,-1.5075,-1.5126,-1.5139,-1.6648,-1.7813,-1.7891,-2.0737,-2.2847,-2.3144,-2.4473,-2.5448,-2.5685,-2.5113,-2.4882,-2.5219,-2.3242,-2.2219,-2.2638,-2.3261,-2.412,-2.5242,-2.5325,-2.546,-2.5702,-2.5698,-2.5699,-2.5702,-2.5703,-2.5703,-2.5697,-2.5701,-2.5696,-2.57,-2.5646,-2.5496,-2.5211,-2.4555,-2.4015,-2.3498,0.0,0.0,0.0,0.0,0.0,0.0,0.0,0.0,0.0,0.0,0.0,0.0,0.0,0.0,0.0,0.0,0.0,0.0,0.0,0.0,0.0,0.0,0.0,0.0,0.0,0.0,0.0,0.0,0.0,0.0,0.0,0.0,-1.9392,-1.9141,-1.9768,-2.0758,-2.2063,-2.1842,-2.2603,-2.5012,-2.4893,-2.5109,-2.6334,-2.6894,-2.7151,-2.7151,-2.7816,-2.8399,-2.885,-2.934,-2.9628,-2.9792,-2.9792,-2.9792,-2.9792,-2.9792,-2.9792,-2.9792,-2.9792,-2.9792,-2.9792,-3.0011,-3.0228,-3.0444,-3.0622,-3.0849,-3.096,-3.0634,-3.0516,-3.0724,-3.2165,-3.3417,-3.4404,0.0,-1.4947,-1.5006,-1.5038,-1.5386,-1.5645,-1.5683,-1.7194,-1.8374,-1.8443,-2.1169,-2.3101,-2.3144,-2.4687,-2.5543,-2.5191,-2.5008,-2.4639,-2.4039,-2.2555,-2.225,-2.349,-2.4024,-2.4713,-2.5611,-2.5648,-2.568,-2.5696,-2.5709,-2.5709,-2.5696,-2.5703,-2.5702,-2.5693,-2.57,-2.57,-2.5701,-2.5627,-2.5609,-2.5543,-2.5024,-2.4799,-2.4703,-2.3824,-2.3508,-2.3403,-2.2609,-2.2337,-2.2276,-2.1797,0.0,0.0,0.0,0.0,0.0,0.0,0.0,0.0,0.0,0.0,0.0,0.0,0.0,0.0,0.0,0.0,0.0,0.0,0.0,0.0,0.0,0.0,0.0,0.0,-1.9761,-2.0957,-2.1264,-2.1186,-2.1596,-2.28,-2.2186,-2.2787,-2.5717,-2.4952,-2.4923,-2.6514,-2.7016,-2.73,-2.73,-2.8126,-2.8818,-2.9289,-2.9616,-2.9792,-2.9792,-2.9792,-2.9792,-2.9792,-2.9792,-2.9792,-2.9792,-2.9792,-2.9792,0.0,-2.9934,-3.0152,-3.0444,-3.0533,-3.0761,0.0,0.0,0.0,0.0,0.0,-3.4153,-3.5504,0.0,-1.4998,-1.5022,-1.5083,-1.5816,-1.6426,-1.6489,-1.7984,-1.9115,-1.919,-2.1383,-2.2964,-2.2968,-2.4434,-2.5132,-2.4452,-2.4955,-2.4341,-2.2062,-2.2049,-2.2774,-2.4233,-2.4389,-2.4838,-2.5677,-2.5631,-2.5642,-2.5681,-2.5696,-2.5698,-2.5683,-2.5681,-2.5759,-2.5832,-2.5739,-2.5742,-2.5837,-2.5668,-2.5605,-2.5576,-2.5511,-2.5492,-2.5421,-2.4639,-2.4348,-2.4264,-2.364,-2.3392,-2.3391,-2.3398,0.0,0.0,0.0,0.0,0.0,0.0,0.0,0.0,0.0,0.0,0.0,0.0,0.0,0.0,0.0,0.0,0.0,0.0,0.0,0.0,0.0,0.0,0.0,0.0,-2.097,-2.2198,-2.3175,-2.2739,-2.2495,-2.3027,-2.2385,-2.2915,-2.5545,-2.4399,-2.4094,-2.5761,-2.6624,-2.7038,-2.7117,0.0,0.0,0.0,0.0,-2.9792,-2.9792,-2.9792,-2.9792,-2.9792,-2.9792,-2.9792,-2.9792,-2.9792,-2.9792,-2.9792,-2.9792,-3.0011,-3.0368,-3.0368,-3.0672,-3.0986,-3.0986,-3.1123,-3.1408,-3.2733,-3.4153,0.0,0.0,-1.4998,-1.5022,-1.5083,-1.5816,-1.6426,-1.6489,-1.7984,-1.9115,-1.919,-2.0854,-2.2064,-2.2129,-2.3008,-2.3823,-2.4355,-2.3856,-2.3261,-2.2721,-2.3978,-2.4619,-2.4308,-2.4969,-2.5466,-2.569,-2.5697,-2.5659,-2.5628,-2.5617,-2.5617,-2.5609,-2.5615,-2.6017,-2.6718,-2.6016,-2.6094,-2.6694,-2.593,-2.5565,-2.5526,-2.5507,-2.5503,-2.5499,-2.5369,-2.5337,-2.5323,-2.5224,-2.5206,-2.5194,-2.5209,-2.4725,-2.4081,-2.3768,-2.3183,0.0,0.0,0.0,0.0,0.0,0.0,0.0,0.0,0.0,0.0,0.0,0.0,0.0,0.0,0.0,0.0,0.0,0.0,0.0,-2.1879,-2.2611,-2.3406,-2.4343,-2.4193,-2.4299,-2.4996,-2.3592,-2.3486,-2.5838,-2.497,-2.4697,-2.5749,-2.6782,-2.7485,-2.7658,-2.8585,0.0,-2.9792,-2.9792,-2.9792,-2.9792,-2.9792,-2.9792,-2.9792,0.0,0.0,-2.9792,-2.9792,-2.9792,-2.9792,-2.9792,-3.0036,-3.0369,-3.0381,-3.0672,-3.0986,-3.0986,-3.1763,-3.2804,-3.3073,-3.4153,-3.5504,-1.4938,-1.5006,-1.5202,-1.5668,-1.649,-1.7254,-1.7721,-1.8904,-1.9767,-1.9837,-2.0612,-2.1169,-2.1249,-2.162,-2.185,-2.1847,-2.1761,-2.2219,-2.3468,-2.4397,-2.4923,-2.5007,-2.5428,-2.5673,-2.5701,-2.5663,-2.5625,-2.5595,-2.5576,-2.5571,-2.56,-2.5595,-2.6104,-2.6987,-2.654,-2.6831,-2.7617,-2.7085,-2.6823,-2.6749,-2.6335,-2.6149,-2.6112,-2.5706,-2.5557,-2.5564,-2.5668,-2.5706,-2.5694,-2.5707,-2.5401,-2.4972,-2.4542,-2.41,-2.3494,0.0,0.0,0.0,0.0,0.0,0.0,0.0,0.0,0.0,0.0,0.0,0.0,0.0,0.0,-2.0563,-2.108,0.0,-2.265,-2.3064,-2.3669,-2.4343,-2.5096,-2.5103,-2.4915,-2.4482,-2.4039,-2.4198,-2.5501,-2.5373,-2.5529,-2.6603,-2.7302,-2.7718,-2.7799,-2.87,-2.9353,-2.9611,-2.9702,-2.9792,-2.9792,-2.9792,-2.9792,-2.9792,-2.9792,-2.9792,-2.9792,-2.9792,-2.9792,-2.9792,-2.9792,-3.0049,-3.0381,-3.0622,-3.0823,-3.1061,-3.1394,-3.2232,-3.3213,-3.363,-3.4491,-3.5504,-1.531,-1.5372,-1.5565,-1.6284,-1.7318,-1.8268,-1.8987,-1.9838,-2.043,-2.0487,-2.0504,-2.0531,-2.0583,-2.0599,-2.0363,-1.9825,-2.062,-2.2041,-2.4072,-2.4425,-2.4907,-2.566,-2.571,-2.5698,-2.5696,-2.5654,-2.562,-2.5609,-2.5556,-2.5546,-2.5595,-2.5779,-2.6347,-2.7245,-2.7253,-2.7735,-2.85,-2.8251,-2.8112,-2.802,-2.7152,-2.6796,-2.6691,-2.5848,-2.5512,-2.5531,-2.5639,-2.5679,-2.5683,-2.5673,-2.5683,-2.5586,-2.4864,-2.4646,-2.4332,-2.2775,-2.2754,0.0,0.0,0.0,0.0,0.0,0.0,0.0,0.0,-2.1022,-2.1135,-2.2362,-2.2385,-2.2426,-2.3183,-2.3941,-2.4269,-2.3999,-2.4507,-2.5159,-2.5686,-2.5762,-2.5265,-2.3793,-2.4492,-2.5059,-2.5171,-2.5394,-2.6046,-2.7186,-2.7383,-2.7545,-2.7879,-2.8858,-2.9419,-2.9509,-2.9702,-2.9792,-2.9792,-2.9792,-2.9792,-2.9792,-2.9792,-2.9792,-2.9792,-2.9792,-2.9792,-2.9792,-2.9856,-3.01,-3.0445,-3.0849,-3.0986,-3.1061,-3.1955,-3.2648,-3.3283,-3.4041,-3.4824,-3.5504,0.0,-1.666,-1.6284,-1.6387,-1.776,-1.8924,-1.9084,-1.9838,-2.0416,-2.0495,-2.0492,-2.0521,-2.0583,-2.0601,-2.0818,-2.1386,-2.2979,-2.4025,-2.42,-2.5041,-2.559,-2.5697,-2.5696,-2.5703,-2.5703,-2.5684,-2.5658,-2.5597,-2.5593,-2.5597,-2.5615,-2.6395,-2.7263,-2.8142,-2.8141,-2.8613,-2.9303,-2.8524,-2.8159,-2.8016,-2.7156,-2.6753,-2.6629,-2.5881,-2.5585,-2.56,-2.5613,-2.5601,-2.5601,-2.5605,-2.5658,-2.5673,-2.5595,-2.5558,-2.5351,-2.4387,-2.4174,-2.3964,-2.2684,-2.2136,-2.2027,-2.2315,-2.2708,-2.2905,0.0,-2.2769,-2.3149,-2.2994,-2.3375,-2.3762,-2.3809,-2.4512,-2.5067,-2.511,-2.5304,-2.5711,-2.6345,-2.6433,-2.5995,-2.4921,-2.5701,-2.5972,-2.5127,-2.4984,-2.5262,-2.6191,-2.6284,-2.6778,-2.8016,-2.8924,-2.9509,-2.9792,-2.9792,-2.9792,-2.9792,-2.9792,-2.9792,-2.9792,-2.9792,-2.9792,-2.9792,-2.9792,-2.9792,-2.9792,-3.0203,-3.0343,-3.0457,-3.0823,-3.0986,-3.1123,-3.2519,-3.3143,-3.3283,-3.4041,-3.4824,-3.5504,0.0,-1.7308,-1.7845,-1.7845,-1.8512,-1.9239,-1.9761,-2.0167,-2.0421,-2.0488,-2.0051,-1.9763,-1.9838,-1.9385,-1.9409,-2.0176,-2.1854,-2.3069,-2.3466,-2.4841,-2.5652,-2.5696,-2.5693,-2.5699,-2.5701,-2.5663,-2.5634,-2.5598,-2.5564,-2.5559,-2.56,-2.5973,-2.689,-2.8237,-2.8232,-2.8996,-3.0229,-2.9835,-2.935,-2.8779,-2.7918,-2.7232,-2.6662,-2.5912,-2.5604,-2.5605,-2.5593,-2.5601,0.0,-2.5601,-2.5317,-2.4937,-2.4935,-2.4603,-2.4121,-2.374,-2.3945,-2.4212,-2.3858,-2.3197,-2.2787,-2.359,-2.3803,-2.3824,-2.3849,-2.3996,-2.4253,-2.4637,-2.4895,-2.5149,-2.5488,-2.5938,-2.6163,-2.5853,-2.5959,-2.6189,-2.6496,-2.6533,-2.6094,-2.5158,-2.6058,-2.6339,-2.5093,-2.6084,-2.6894,-2.7209,-2.729,-2.7695,-2.8834,-2.9353,-2.9599,-2.9599,-2.9702,-2.9792,-2.9792,-2.9792,-2.9792,-2.9792,-2.9792,-2.9792,-2.9792,-2.9792,-3.003,-3.0419,-3.0764,-3.0933,-3.1074,-3.1317,-3.1563,-3.1736,-3.2791,-3.3492,-3.3905,-3.4691,-3.5198,-3.5564,0.0,-1.7927,-1.8977,-1.9219,-1.9374,-1.9664,-2.0302,-2.0411,-2.0413,-2.0492,-1.9955,-1.9589,-1.9659,-1.9108,-1.8939,-1.9519,-2.0958,-2.2153,-2.2956,-2.4421,-2.5398,-2.5683,-2.5681,-2.5666,-2.5672,-2.5644,-2.5621,-2.5638,-2.558,-2.5581,-2.5622,-2.5853,-2.6629,-2.7854,-2.8333,-2.926,-3.0438,-3.0393,-2.9978,-2.9311,-2.8197,-2.7356,-2.6715,-2.5918,-2.5587,-2.5549,-2.5328,-2.524,-2.5201,-2.4953,-2.451,-2.4039,-2.4035,-2.3609,-2.3144,-2.3389,-2.3965,-2.4551,-2.4664,-2.4226,-2.3932,-2.4581,-2.4729,-2.4763,-2.4879,-2.4832,-2.4942,-2.5733,-2.588,-2.5959,-2.6411,-2.6624,-2.6617,-2.6174,-2.6206,-2.6276,-2.6508,-2.6533,-2.6164,-2.5382,-2.6441,-2.6712,-2.5404,-2.6755,-2.7897,-2.8291,-2.8131,-2.845,-2.9341,-2.9689,-2.9702,-2.9509,-2.9702,-2.9792,-2.9792,-2.9792,-2.9792,-2.9792,-2.9792,-2.9792,-2.9804,-2.998,-3.0344,-3.0914,-3.1325,-3.1536,-3.1746,-3.1993,-3.2256,-3.2636,-3.3447,-3.4227,-3.4918,-3.5733,-3.5923,-3.5863,0.0,0.0,-1.9161,-2.0005,-2.0272,-2.036,-2.0399,-2.039,-2.042,-2.0496,-2.048,-2.0485,-2.0558,-2.0534,-2.0504,-2.0453,-2.1333,-2.2218,-2.2952,-2.3897,-2.481,-2.5651,-2.5645,-2.5597,-2.5605,-2.5657,-2.5694,-2.5702,-2.5694,-2.5689,-2.5709,-2.65,-2.6895,-2.7008,-2.8704,-2.9489,-2.9536,-2.9536,-2.9479,-2.9253,-2.7531,-2.6825,-2.6709,-2.5913,-2.5551,-2.5402,-2.4626,-2.4329,-2.4219,-2.3366,-2.3104,-2.3149,-2.3131,-2.3118,-2.3278,-2.4114,-2.4841,-2.5288,-2.4977,-2.5152,-2.5355,-2.4987,-2.5472,-2.5893,-2.5311,-2.5278,-2.5406,-2.5508,-2.577,-2.598,-2.5912,-2.6099,-2.6226,-2.6121,-2.5859,-2.5824,-2.6445,-2.6533,-2.6314,-2.591,-2.7001,-2.7285,0.0,-2.6364,-2.7349,-2.8676,-2.8223,-2.8279,-2.9341,-2.9689,-2.9792,-2.9792,-2.9792,-2.9792,-2.9792,-2.9792,-2.9792,-2.9792,-2.9792,-2.9792,-2.9817,-3.0365,-3.0721,-3.096,-3.1775,-3.222,-3.2354,-3.2593,-3.3169,-3.3949,-3.4729,-3.5552,-3.6341,-3.707,-3.6971,-3.6552,0.0,0.0,0.0,-2.0159,-2.0311,-2.0399,-2.0399,-2.039,-2.043,-2.048,-2.0543,0.0,0.0,0.0,0.0,0.0,-2.1315,-2.1945,-2.2193,-2.3575,-2.4521,-2.4813,-2.5336,-2.5616,-2.5673,-2.5683,-2.5696,-2.5703,-2.5666,-2.5634,-2.5642,-2.5868,-2.6279,-2.6859,-2.7439,-2.8029,-2.8579,-2.8579,-2.8553,-2.8442,-2.7271,-2.6805,-2.6715,-2.586,-2.5524,-2.5318,0.0,-2.3798,-2.4174,-2.3282,-2.266,-2.2241,-2.2247,-2.2232,-2.2498,-2.386,-2.5093,-2.5907,-2.554,-2.5818,-2.6245,-2.6231,-2.6428,-2.658,-2.6328,-2.6116,-2.5963,-2.5803,-2.5617,-2.5605,-2.5809,-2.6015,-2.612,-2.6054,-2.6156,-2.6253,-2.6445,-2.6848,-2.6864,-2.651,-2.7236,0.0,0.0,0.0,0.0,-2.8291,-2.8291,-2.8712,-2.9611,-2.9779,-2.9792,-2.9792,-2.9792,-2.9792,-2.9792,-2.9792,-2.9792,-2.9792,-2.9792,-3.0018,-3.0365,-3.0633,-3.1334,-3.2295,-3.2705,-3.3044,-3.3206,-3.3887,-3.4322,-3.4785,-3.5595,-3.6328,-3.7104,-3.7829,-3.7928,-3.7778,0.0,0.0,0.0,0.0,0.0,0.0,0.0,0.0,0.0,0.0,0.0,0.0,0.0,0.0,0.0,0.0,0.0,-2.1464,-2.1776,-2.2836,-2.3716,-2.4335,-2.4559,-2.4981,-2.5648,-2.5383,-2.538,-2.5701,-2.5658,-2.5627,-2.56,-2.5568,-2.5816,-2.634,-2.6669,-2.7101,-2.7644,-2.7644,-2.7644,-2.7566,-2.6687,-2.6338,-2.6313,-2.5742,-2.5549,0.0,-2.3978,-2.3844,-2.408,-2.2604,-2.1971,-2.1806,-2.1792,-2.2202,-2.289,-2.3825,-2.5139,-2.6219,-2.5787,-2.6319,-2.7006,-2.7058,-2.713,-2.7173,-2.712,-2.6707,-2.6158,-2.5554,-2.5271,-2.5114,-2.5167,-2.5141,-2.53,-2.5876,-2.61,-2.6297,-2.6754,-2.7172,-2.7366,-2.7004,-2.7484,-2.7875,0.0,0.0,0.0,-2.8383,-2.8554,-2.8961,-2.9546,-2.9714,-2.9792,-2.9792,-2.9792,-2.9792,-2.9792,-2.9792,-2.9792,-2.9792,-2.9993,-3.0306,-3.0641,-3.1233,-3.2016,-3.2969,-3.3436,-3.3862,-3.4419,-3.4874,-3.5571,-3.6294,-3.6808,-3.7458,-3.8182,-3.8601,-3.8751,-3.8751,0.0,0.0,0.0,0.0,0.0,0.0,0.0,0.0,0.0,0.0,0.0,0.0,0.0,0.0,0.0,0.0,0.0,0.0,-2.1686,-2.1716,-2.245,-2.4091,-2.3467,-2.3844,-2.5499,-2.4829,-2.4868,-2.5709,-2.5701,-2.5664,-2.5604,-2.5596,-2.5575,-2.5531,-2.6364,-2.6745,-2.6745,-2.6745,-2.6772,-2.6726,-2.5851,-2.558,-2.5665,-2.5614,-2.5607,-2.5488,-2.4696,-2.4352,-2.3921,-2.146,-2.1184,-2.1865,-2.1903,-2.3004,-2.4247,-2.4069,-2.5124,-2.6244,-2.5831,-2.6722,-2.7706,-2.7525,-2.7585,-2.776,-2.773,-2.6997,-2.5981,-2.4832,-2.4623,-2.4474,-2.3991,-2.3611,-2.3928,-2.5672,-2.5781,-2.6104,-2.7183,-2.7651,-2.7792,-2.7557,-2.7797,-2.7973,-2.7753,-2.8602,0.0,-2.8803,0.0,-2.9131,-2.9131,-2.9546,-2.9792,-2.9792,-2.9817,-2.9817,-2.9792,-2.9817,-2.9829,-2.9842,-3.0394,-3.067,-3.0733,-3.201,-3.274,-3.3026,-3.3759,-3.4716,-3.5669,-3.5736,-3.6688,-3.8202,-3.8277,-3.8738,-3.9424,-3.9424,-3.9424,-3.9424,0.0,0.0,0.0,0.0,0.0,0.0,0.0,0.0,0.0,0.0,0.0,0.0,0.0,0.0,0.0,0.0,0.0,0.0,-2.0827,-2.1381,-2.192,-2.2416,-2.3415,-2.4199,-2.4705,-2.5138,-2.5476,-2.5703,-2.57,-2.5682,-2.5662,-2.5624,-2.5584,-2.5584,-2.5817,-2.5913,-2.5913,-2.5913,-2.6289,-2.68,-2.5933,-2.5975,-2.6494,-2.5846,-2.56,-2.5488,-2.4691,-2.4385,-2.4187,-2.2872,-2.2554,-2.2793,-2.34,-2.3777,-2.4215,-2.5357,-2.6236,-2.6889,-2.7288,-2.7969,-2.8552,-2.8354,-2.8322,-2.8309,-2.8035,-2.711,-2.6014,-2.5096,-2.4075,-2.3189,-2.2613,-2.3317,-2.4211,-2.5068,-2.619,-2.7103,-2.7626,-2.8097,-2.8262,-2.787,-2.8268,-2.8597,-2.8518,-2.873,0.0,0.0,-2.9378,-2.9624,-2.9624,-2.9714,-2.9792,-2.9792,-3.0193,-3.0206,-2.9792,-3.0206,-3.0407,-3.0407,-3.0934,-3.1493,-3.2073,-3.2587,-3.3193,-3.3772,-3.4178,-3.4868,-3.5749,-3.636,-3.7232,-3.8277,-3.8885,-3.9192,-3.9424,-3.9424,-3.9424,-3.9424,0.0,0.0,0.0,0.0,0.0,0.0,0.0,0.0,0.0,0.0,0.0,0.0,0.0,0.0,0.0,0.0,0.0,0.0,0.0,-2.092,-2.1348,-2.1737,-2.2325,-2.3186,-2.4369,-2.4497,-2.4938,-2.5702,-2.5702,-2.5702,-2.5703,-2.5671,-2.5639,-2.5609,-2.5609,-2.5609,-2.5609,-2.5609,-2.588,0.0,0.0,-2.5919,-2.632,-2.5804,-2.5605,-2.5544,-2.5093,-2.492,-2.485,-2.4692,-2.4335,-2.4177,-2.5332,-2.5571,-2.5588,-2.6375,-2.7027,-2.7549,-2.7874,-2.8419,-2.8834,-2.8712,-2.8612,-2.842,-2.7826,-2.7073,-2.6028,-2.4488,-2.3358,-2.2433,-2.169,-2.2539,-2.3635,-2.4416,-2.612,-2.7455,-2.7777,-2.8411,-2.8741,-2.8431,-2.8542,-2.8657,-2.8657,-2.8724,-2.8882,0.0,-2.9443,-2.9611,-2.9611,-2.9702,-2.9792,-2.9792,-3.0093,-3.0105,-2.9792,-3.0331,-3.062,-3.062,-3.1386,-3.2079,-3.2574,-3.3053,-3.3585,-3.416,0.0,-3.5413,-3.6281,-3.7141,-3.7933,-3.8738,-3.9192,-3.9424,-3.9424,-3.9424,-3.9424,-3.9424,0.0,0.0,0.0,0.0,0.0,0.0,0.0,0.0,0.0,0.0,0.0,0.0,0.0,0.0,0.0,0.0,0.0,0.0,0.0,0.0,-2.082,-2.1513,-2.1097,-2.1907,-2.4156,-2.3691,-2.4178,-2.5662,-2.5662,-2.5682,-2.5683,-2.5683,-2.5662,-2.559,-2.5603,-2.5606,-2.5593,-2.5612,-2.5593,-2.5593,-2.5593,-2.5632,-2.5671,0.0,-2.5585,-2.5582,-2.559,-2.554,-2.5589,-2.6332,-2.6034,-2.562,-2.7106,-2.7484,-2.7324,-2.7176,-2.7587,-2.8064,-2.8043,-2.8416,-2.881,-2.881,-2.8662,-2.8276,-2.7389,-2.6836,-2.5852,-2.3575,-2.2582,-2.1887,-2.1146,-2.1704,-2.2731,-2.4134,-2.6045,-2.7531,-2.8144,-2.8724,-2.911,-2.8949,-2.8657,-2.851,-2.851,-2.8645,-2.8882,-2.9052,-2.9275,-2.9419,-2.9419,-2.9689,-2.9829,-2.9892,-2.9829,-2.9829,-2.9917,-3.0432,-3.0708,-3.0703,-3.1825,-3.2495,-3.2771,-3.3495,-3.405,-3.4397,0.0,0.0,-3.7127,-3.7872,-3.8664,-3.9424,-3.9424,-3.9424,-3.9424,-3.9424,-3.9424,-3.9424,0.0,0.0,0.0,0.0,0.0,0.0,0.0,0.0,0.0,0.0,-2.1535,-2.1915,0.0,0.0,0.0,0.0,0.0,0.0,0.0,0.0,0.0,-2.0702,-2.195,-2.285,-2.3236,-2.4516,-2.5284,-2.552,-2.552,-2.5566,-2.5619,-2.5619,-2.5606,-2.5601,-2.5661,-2.5658,-2.56,-2.5651,-2.5612,-2.5522,-2.558,-2.5567,-2.5537,-2.5512,0.0,0.0,-2.5513,-2.5474,-2.5524,-2.6211,-2.6298,-2.6285,-2.7215,-2.7301,-2.7177,-2.7736,-2.7914,-2.8061,-2.8635,-2.886,-2.8881,-2.881,-2.8737,-2.842,-2.7414,-2.6339,-2.507,-2.3444,-2.2064,-2.111,-2.1033,-2.1704,-2.3025,-2.5212,-2.6664,-2.8071,-2.9781,-2.9621,-2.9328,-2.9499,-2.8961,-2.851,-2.851,-2.8645,0.0,0.0,0.0,-2.9509,-2.9702,-2.9792,-2.9993,-3.0457,-3.003,-2.9977,-3.0436,-3.0952,-3.1266,-3.1302,-3.2394,-3.3174,-3.3572,-3.4389,-3.5006,-3.5507,0.0,0.0,-3.7962,-3.8127,-3.8664,-3.9424,-3.9424,-3.9424,-3.9424,-3.9424,-3.9424,-3.9424,0.0,0.0,0.0,0.0,0.0,0.0,0.0,-2.1424,-2.2004,-2.2888,-2.3032,-2.3225,-2.3686,-2.3347,-2.3274,0.0,0.0,0.0,0.0,0.0,0.0,0.0,-2.1487,-2.2088,-2.2932,-2.378,-2.4613,-2.5454,0.0,-2.5529,-2.5543,-2.5544,-2.5551,-2.5557,-2.5585,-2.5576,-2.554,-2.559,-2.5563,-2.5511,-2.5549,-2.5534,-2.5503,0.0,0.0,0.0,-2.5278,-2.5214,-2.5287,-2.5972,-2.6076,-2.6172,-2.7424,-2.7942,-2.8172,-2.8479,-2.85,-2.8498,-2.8842,-2.8881,-2.8791,-2.8761,-2.8669,-2.8193,-2.6655,-2.5756,-2.4663,-2.2592,-2.1502,-2.0917,-2.0981,-2.1704,-2.2775,-2.43,-2.5635,-2.7117,-2.8935,-2.8651,-2.8644,-2.9566,-2.8961,-2.851,-2.851,-2.8578,-2.8736,-2.9052,0.0,-2.9443,-2.9792,-2.9792,-2.9917,-3.0181,-2.993,-2.9942,-3.0177,-3.0989,-3.1411,-3.1419,-3.2557,-3.3556,-3.4428,-3.4828,-3.5467,-3.636,0.0,0.0,-3.8202,-3.8664,-3.9046,-3.9424,-3.9424,-3.9424,-3.9424,-3.9424,-3.9424,-3.9424,0.0,0.0,0.0,0.0,0.0,0.0,0.0,-2.1823,-2.2474,-2.3999,-2.4354,-2.4509,-2.4553,-2.4011,-2.3912,0.0,0.0,0.0,0.0,0.0,0.0,0.0,0.0,-2.1798,-2.3121,0.0,0.0,-2.5365,-2.5409,0.0,0.0,0.0,0.0,0.0,-2.5473,-2.5456,-2.5386,-2.5418,-2.5399,0.0,0.0,-2.5346,0.0,0.0,0.0,0.0,0.0,-2.5107,-2.5023,-2.5514,-2.5624,-2.582,-2.7082,-2.803,-2.8677,-2.8695,-2.8712,-2.87,-2.8749,-2.8651,-2.8536,-2.8699,-2.8575,-2.7914,-2.61,-2.5382,-2.4419,-2.1873,-2.1039,-2.0897,-2.1164,-2.1675,-2.2451,-2.351,-2.4826,-2.6218,-2.7889,-2.8053,-2.8357,-2.9644,-2.9188,-2.8657,-2.851,-2.851,0.0,-2.9052,0.0,0.0,-2.9792,-2.9792,-2.9792,-2.9792,-2.9792,-2.9792,-2.9792,-3.0816,-3.1397,-3.1419,-3.2798,-3.3953,-3.4979,-3.5453,-3.6174,-3.7218,0.0,0.0,0.0,-3.9119,-3.9424,-3.9424,-3.9424,-3.9424,-3.9424,-3.9424,-3.9424,-3.9424,0.0,0.0,0.0,0.0,0.0,0.0,0.0,-2.218,-2.3052,-2.408,-2.49,-2.5379,-2.5389,-2.5382,-2.5399,0.0,0.0,0.0,0.0,0.0,0.0,0.0,0.0,0.0,0.0,0.0,0.0,-2.5214,-2.5222,0.0,0.0,0.0,0.0,0.0,0.0,-2.5274,-2.505,-2.5107,0.0,0.0,0.0,0.0,0.0,0.0,0.0,0.0,0.0,-2.5446,-2.479,-2.4617,-2.502,-2.5579,-2.5491,-2.6309,-2.7344,-2.7697,-2.7897,-2.8065,-2.829,-2.8129,-2.8028,-2.8706,-2.8457,-2.7741,-2.6498,-2.5548,-2.4264,-2.1966,-2.0959,-2.0829,-2.1736,-2.164,-2.2186,-2.4629,-2.5442,-2.6525,-2.8665,-2.9309,-2.9673,-2.998,-2.977,-2.9328,-2.859,-2.8657,-2.8882,0.0,0.0,0.0,-2.9792,-2.9792,-2.9792,-2.9792,-2.9792,-2.9792,-2.9792,-3.0817,-3.1381,-3.1419,-3.3501,-3.4746,-3.5061,-3.6802,-3.7767,-3.8113,0.0,0.0,0.0,-3.9337,-3.9424,-3.9424,-3.9424,-3.9424,-3.9424,-3.9424,-3.9424,-3.9424,0.0,0.0,0.0,0.0,0.0,0.0,-2.2062,-2.2125,-2.27,-2.4604,-2.4748,-2.4869,-2.5437,-2.5917,-2.603,-2.5634,0.0,0.0,0.0,0.0,0.0,0.0,0.0,0.0,0.0,0.0,-2.4889,-2.5862,-2.539,0.0,0.0,0.0,0.0,0.0,0.0,-2.4937,-2.4877,-2.4911,0.0,0.0,0.0,0.0,0.0,0.0,0.0,0.0,0.0,0.0,-2.4459,-2.4229,-2.4337,-2.4476,-2.4248,-2.4665,-2.5516,-2.6934,-2.7381,-2.7504,-2.7895,-2.7851,-2.7918,-2.8662,-2.8228,-2.7337,-2.6134,-2.5183,-2.388,-2.1552,-2.111,-2.129,-2.1889,-2.1953,-2.2391,-2.382,-2.4367,-2.53,-2.7265,-2.7865,-2.8454,-2.9442,-2.931,-2.8969,-2.8554,0.0,-2.8949,0.0,0.0,0.0,0.0,-2.9792,-2.9792,-2.9792,-2.9792,-3.005,-3.0467,-3.0741,-3.1589,-3.2883,-3.3779,-3.5022,-3.6568,-3.7434,-3.8234,-3.8958,0.0,0.0,0.0,-3.9424,-3.9424,-3.9424,-3.9424,-3.9424,-3.9424,-3.9424,-3.9424,-3.9424,0.0,0.0,0.0,0.0,0.0,-2.0621,-2.2143,-2.2092,-2.2607,-2.4648,-2.4647,-2.4703,-2.5337,-2.6073,-2.6323,-2.5851,-2.5224,0.0,0.0,0.0,0.0,0.0,0.0,0.0,0.0,0.0,-2.5064,-2.6502,-2.566,-2.5499,0.0,0.0,-2.4727,-2.4639,0.0,0.0,0.0,0.0,0.0,0.0,0.0,0.0,0.0,0.0,0.0,0.0,0.0,0.0,0.0,0.0,0.0,-2.361,-2.3369,-2.345,-2.399,-2.5699,-2.6411,-2.6676,-2.7099,-2.7409,-2.7788,-2.8308,-2.7967,-2.7152,-2.5761,-2.4775,-2.357,-2.155,-2.1268,-2.1589,-2.2193,-2.2297,-2.2582,-2.3422,-2.3885,-2.4751,-2.6461,-2.7228,-2.8023,-2.9183,-2.9228,-2.9038,-2.8614,-2.8785,-2.904,0.0,0.0,0.0,0.0,-2.9792,-2.9934,-3.0139,-3.0139,-3.0456,-3.1235,-3.1241,-3.2213,-3.3963,-3.4407,-3.5645,-3.7601,-3.8069,-3.8708,0.0,0.0,0.0,0.0,-3.9424,-3.9424,-3.9424,-3.9424,-3.9424,-3.9424,-3.9424,-3.9424,-3.9481,0.0,0.0,0.0,0.0,0.0,0.0,-2.1176,-2.2143,-2.308,-2.3918,-2.4764,-2.5265,-2.5203,-2.5853,-2.6301,-2.6294,-2.6224,0.0,0.0,0.0,0.0,0.0,0.0,0.0,0.0,0.0,-2.611,-2.6989,-2.6053,-2.5604,-2.5587,-2.4841,-2.4495,-2.4486,0.0,0.0,0.0,0.0,0.0,0.0,0.0,0.0,0.0,0.0,0.0,0.0,0.0,0.0,0.0,0.0,0.0,0.0,0.0,-2.2797,-2.2997,-2.3867,-2.4751,-2.5479,-2.5763,-2.6623,-2.7523,-2.7593,-2.7683,-2.7314,-2.5529,-2.4431,-2.3424,-2.2157,-2.151,-2.1565,-2.2762,-2.2596,-2.273,-2.3966,-2.4542,-2.5351,-2.6997,-2.8282,-2.9158,-2.9292,-2.9707,-2.968,-2.8888,-2.8954,0.0,0.0,0.0,0.0,0.0,-2.9792,-3.0139,-3.0895,-3.0895,-3.1267,-3.2074,-3.2597,-3.3329,-3.4231,-3.5822,-3.6985,-3.7829,-3.887,0.0,0.0,0.0,0.0,0.0,-3.9424,-3.9424,-3.9424,-3.9424,-3.9424,-3.9424,-3.9424,-3.9553,-3.9681,0.0,0.0,0.0,0.0,0.0,0.0,0.0,-2.0959,-2.1526,-2.3477,-2.3488,-2.3747,-2.4953,-2.6217,-2.6982,-2.6982,-2.7011,0.0,0.0,0.0,0.0,0.0,0.0,0.0,0.0,-2.4777,-2.5095,-2.5966,-2.5088,-2.5164,-2.6116,-2.5296,-2.4875,-2.4766,-2.4769,-2.4456,0.0,0.0,0.0,0.0,0.0,0.0,0.0,0.0,0.0,0.0,0.0,0.0,0.0,0.0,0.0,0.0,0.0,0.0,0.0,-2.2353,-2.351,-2.4751,-2.4607,-2.5196,-2.5861,-2.5896,-2.541,-2.4891,-2.4734,-2.3935,-2.309,-2.2488,-2.2483,-2.2646,-2.2945,-2.2969,-2.3393,-2.4673,-2.5214,-2.5959,-2.7342,-2.8886,-2.9822,-2.9663,-3.0321,-3.0769,0.0,0.0,0.0,0.0,0.0,0.0,0.0,-3.1368,-3.1206,-3.0895,-3.0895,-3.1549,-3.2861,-3.2554,-3.3315,-3.5167,-3.5296,-3.6317,-3.8046,-3.8493,0.0,0.0,0.0,0.0,0.0,-3.9424,-3.9424,-3.9424,-3.9424,-3.9424,-3.9424,-3.9553,-3.9625,-3.9753,0.0,0.0,0.0,0.0,0.0,0.0,0.0,-2.0479,-2.1043,-2.288,-2.2969,-2.3379,-2.4742,-2.6261,-2.7196,-2.7196,-2.7778,0.0,0.0,0.0,0.0,0.0,0.0,0.0,-2.4764,-2.4772,-2.5168,-2.6029,-2.5403,-2.5525,-2.6312,-2.5491,-2.5028,-2.4888,-2.4623,-2.4241,0.0,0.0,0.0,0.0,0.0,0.0,0.0,0.0,0.0,0.0,0.0,0.0,0.0,0.0,0.0,0.0,0.0,0.0,0.0,0.0,-2.2516,-2.3616,-2.3521,-2.4232,-2.4891,-2.4577,-2.4405,-2.421,-2.4007,-2.3574,-2.3148,-2.297,-2.3025,-2.3178,-2.3273,-2.3355,-2.3762,-2.4982,-2.538,-2.6105,-2.7715,-2.9131,-3.0088,-3.0427,-3.0929,0.0,0.0,0.0,0.0,0.0,0.0,0.0,0.0,0.0,-3.2001,-3.1756,-3.1769,-3.2349,-3.3673,-3.3241,-3.3972,-3.5673,-3.57,-3.6582,-3.8195,-3.859,0.0,0.0,0.0,0.0,0.0,-3.9424,-3.9424,-3.9424,-3.9424,-3.9424,-3.9409,-3.9625,-3.9768,-3.9839,0.0,0.0,0.0,0.0,0.0,0.0,0.0,-2.0493,-2.1377,-2.2173,-2.2973,-2.379,-2.4613,-2.6071,-2.699,-2.6972,0.0,0.0,0.0,0.0,0.0,0.0,0.0,0.0,-2.5124,-2.5452,-2.5982,-2.6774,-2.658,-2.6401,-2.6174,-2.5481,-2.509,-2.4938,-2.419,-2.384,0.0,0.0,0.0,0.0,0.0,0.0,0.0,0.0,0.0,0.0,0.0,0.0,0.0,0.0,0.0,0.0,0.0,0.0,0.0,0.0,0.0,0.0,0.0,-2.3603,-2.4403,-2.3596,-2.4265,-2.4762,-2.3342,-2.3321,0.0,-2.3482,-2.3259,-2.3254,-2.3779,-2.3699,-2.3941,-2.5162,-2.5267,-2.5959,-2.8166,-2.9131,-3.0116,-3.1516,-3.1652,0.0,-3.1422,0.0,0.0,0.0,0.0,0.0,0.0,0.0,-3.2577,-3.3297,-3.3297,-3.3659,-3.4414,-3.4631,-3.5058,-3.5834,-3.6704,-3.7565,-3.8347,-3.9035,0.0,0.0,0.0,0.0,0.0,-3.9424,-3.9424,-3.9424,-3.9424,-3.9424,-3.9424,-3.9625,-3.9839,-4.0066,0.0,0.0,0.0,0.0,0.0,0.0,0.0,0.0,0.0,0.0,-2.2253,-2.2924,-2.44,-2.5967,-2.6897,0.0,0.0,0.0,0.0,0.0,0.0,0.0,0.0,0.0,-2.4676,-2.458,-2.4971,-2.5764,-2.5517,-2.5649,-2.6103,-2.5731,-2.5546,-2.5488,-2.4796,-2.3745,0.0,0.0,0.0,0.0,0.0,0.0,0.0,0.0,0.0,0.0,-2.2136,-2.2136,0.0,0.0,0.0,0.0,0.0,0.0,0.0,0.0,-2.1037,-2.1258,-2.1866,0.0,-2.254,-2.2245,-2.2311,-2.2593,0.0,-2.3414,-2.348,-2.3912,-2.388,-2.3909,-2.446,-2.4418,-2.4786,-2.6379,-2.6967,-2.7686,-2.9117,-3.0618,-3.1961,-3.3194,-3.3433,-3.3407,0.0,0.0,0.0,0.0,0.0,0.0,0.0,0.0,-3.3977,-3.4113,-3.4113,-3.4196,-3.4414,-3.4631,-3.4838,-3.5171,-3.6037,-3.6894,-3.7659,-3.8332,0.0,0.0,0.0,0.0,0.0,-3.9424,-3.9424,-3.9424,-3.9424,-3.9481,-3.9625,-3.9854,-4.0066,-4.0277,0.0,0.0,0.0,0.0,0.0,0.0,0.0,0.0,0.0,0.0,0.0,-2.2627,-2.4262,-2.5876,0.0,0.0,0.0,0.0,0.0,0.0,0.0,0.0,0.0,-2.4545,-2.4378,-2.4489,-2.495,-2.5719,-2.5796,-2.5959,-2.6216,-2.5946,-2.5632,-2.5196,-2.4221,-2.3211,0.0,0.0,0.0,0.0,0.0,0.0,0.0,0.0,0.0,0.0,-2.1568,-2.1554,0.0,-2.1309,-2.1183,-2.1103,0.0,0.0,0.0,0.0,-2.0728,-2.0803,-2.1475,-2.1988,-2.2355,-2.2561,-2.2764,-2.3087,-2.3754,-2.3844,-2.383,-2.4048,-2.4024,-2.4152,-2.4597,-2.4597,-2.5114,-2.6806,-2.7357,-2.8232,-3.019,-3.1714,-3.2982,-3.3891,-3.4074,-3.4059,0.0,0.0,0.0,0.0,0.0,0.0,0.0,0.0,-3.4414,-3.4414,-3.4414,-3.4414,-3.4549,-3.4683,-3.4883,-3.5016,-3.6164,-3.7007,-3.7434,-3.8422,0.0,0.0,0.0,0.0,-3.9424,-3.9424,-3.9424,-3.9424,-3.9424,-3.9553,-3.9696,-3.9925,-4.0137,-4.0347,0.0,0.0,0.0,0.0,0.0,0.0,0.0,0.0,0.0,0.0,0.0,0.0,0.0,0.0,0.0,0.0,0.0,0.0,0.0,0.0,0.0,0.0,-2.5237,-2.4568,-2.4471,-2.4896,-2.5472,-2.615,-2.6626,-2.6674,-2.6395,-2.614,-2.5438,-2.4381,-2.3329,-2.2669,0.0,0.0,0.0,0.0,0.0,0.0,0.0,0.0,0.0,0.0,0.0,0.0,0.0,-2.086,-2.0794,-2.0794,-2.0761,0.0,0.0,0.0,0.0,0.0,-2.1388,-2.2274,-2.3083,-2.3437,-2.4035,-2.4467,-2.4302,-2.4276,-2.4234,-2.4024,-2.4058,-2.426,-2.4657,-2.4896,-2.5548,-2.7167,-2.7607,-2.8715,-3.1409,-3.263,-3.3489,-3.4041,-3.4128,0.0,0.0,0.0,0.0,0.0,0.0,0.0,0.0,0.0,0.0,-3.4414,-3.4414,-3.4549,-3.4698,-3.4802,-3.5001,-3.5228,-3.6724,-3.736,-3.7315,-3.8646,0.0,0.0,0.0,0.0,-3.9424,-3.9424,-3.9424,-3.9424,-3.9409,-3.9553,-3.9768,-3.9996,-4.0137,-4.0347,0.0,0.0,0.0,0.0,0.0,0.0,0.0,0.0,0.0,0.0,0.0,0.0,0.0,0.0,0.0,0.0,0.0,0.0,0.0,0.0,0.0,-2.6429,-2.618,-2.5968,-2.5729,-2.5747,-2.5957,-2.6347,-2.6756,-2.6776,-2.6395,-2.614,-2.5007,-2.3194,-2.3569,-2.2735,-2.1215,-2.3077,0.0,0.0,0.0,0.0,0.0,0.0,0.0,0.0,0.0,0.0,0.0,-2.0827,-2.0794,-2.0761,-2.0595,0.0,0.0,0.0,0.0,0.0,-2.1606,-2.2858,-2.3723,-2.3274,-2.3657,-2.4162,-2.4067,-2.4109,-2.4124,-2.3882,-2.4264,-2.4822,-2.5345,-2.6363,-2.7473,-2.8636,-2.9958,-3.1398,0.0,0.0,-3.3622,-3.4056,0.0,0.0,0.0,0.0,0.0,0.0,0.0,0.0,0.0,0.0,0.0,-3.4414,-3.4563,-3.475,-3.4868,-3.4868,-3.5001,-3.5228,-3.6724,-3.7135,-3.6671,-3.7958,-3.8542,0.0,0.0,0.0,-3.9424,-3.9424,-3.9424,-3.9424,-3.9625,-3.9768,-3.9996,-4.0207,-4.0347,-4.0455,0.0,0.0,0.0,0.0,0.0,0.0,0.0,0.0,0.0,0.0,0.0,0.0,0.0,0.0,0.0,0.0,0.0,0.0,0.0,0.0,-2.7129,-2.617,-2.6057,-2.5993,-2.5963,-2.5694,-2.5849,-2.6404,-2.621,-2.6037,-2.5849,-2.5205,-2.4342,-2.3428,-2.3353,-2.3003,-2.2551,-2.3503,-2.3967,0.0,0.0,0.0,0.0,0.0,0.0,0.0,0.0,0.0,0.0,0.0,-2.0357,-2.0373,-2.027,0.0,0.0,0.0,0.0,0.0,-2.163,-2.2652,-2.3459,-2.3909,-2.4832,-2.5651,-2.5621,-2.5393,-2.5134,-2.4927,-2.5138,-2.5514,-2.6019,-2.6916,-2.8129,-2.9876,-3.1538,-3.2902,-3.3449,-3.3761,-3.408,0.0,0.0,0.0,0.0,0.0,0.0,0.0,0.0,0.0,0.0,0.0,0.0,0.0,-3.475,-3.4883,-3.5082,-3.5082,-3.5148,-3.5374,-3.6395,-3.6761,-3.6522,-3.7434,-3.7853,0.0,0.0,-3.8571,-3.8901,-3.9403,-3.9553,-3.9553,-3.9768,-3.9996,-4.0207,-4.0768,-4.0956,-4.1024,0.0,0.0,0.0,0.0,0.0,0.0,0.0,0.0,0.0,0.0,0.0,0.0,0.0,0.0,0.0,0.0,0.0,0.0,0.0,-2.6826,-2.6781,-2.616,-2.5859,-2.5739,-2.5857,-2.5438,-2.5549,-2.6168,-2.5741,-2.5484,-2.5373,-2.46,-2.4081,-2.3727,-2.3331,-2.328,-2.3549,-2.385,-2.4238,0.0,0.0,0.0,0.0,0.0,0.0,0.0,0.0,0.0,0.0,0.0,0.0,0.0,0.0,0.0,0.0,-1.9955,-1.9955,-2.0228,-2.1371,-2.2239,-2.3062,-2.425,-2.5515,-2.6576,-2.6847,-2.6393,-2.6015,-2.6161,-2.6356,-2.6579,-2.6961,-2.7979,-2.9322,-3.1191,-3.2878,-3.3871,-3.382,-3.4109,0.0,0.0,0.0,0.0,0.0,0.0,0.0,0.0,0.0,0.0,0.0,0.0,0.0,0.0,-3.4868,-3.5001,-3.5213,-3.5228,-3.5359,-3.5519,-3.6178,-3.6402,-3.6282,-3.6911,-3.7195,-3.7225,-3.7719,-3.8108,-3.8437,-3.9174,-3.9546,-3.9681,-3.9996,-4.0261,-4.0646,-4.1276,-4.1575,-4.1706,0.0,0.0,0.0,0.0,0.0,0.0,0.0,0.0,0.0,0.0,0.0,0.0,0.0,0.0,0.0,0.0,0.0,0.0,0.0,-2.6168,-2.6269,-2.6809,-2.6109,-2.5717,-2.5731,-2.5263,-2.5212,-2.5573,-2.5768,-2.5676,-2.5295,-2.5212,-2.4539,-2.3364,-2.3928,-2.3518,-2.2506,-2.3764,-2.3953,-2.3477,-2.4035,0.0,0.0,0.0,0.0,0.0,0.0,0.0,0.0,0.0,0.0,0.0,0.0,0.0,-1.997,-1.9848,-1.9797,-1.9963,-2.0625,-2.1749,-2.2873,-2.3505,-2.4327,-2.5243,-2.6366,-2.6189,-2.6116,-2.7235,-2.7949,-2.8397,-2.8442,-3.0309,-3.2154,-3.2894,-3.3927,-3.4624,-3.4624,0.0,0.0,0.0,0.0,0.0,0.0,0.0,0.0,0.0,0.0,0.0,0.0,0.0,0.0,0.0,0.0,-3.5213,-3.5213,-3.5359,-3.5504,-3.5519,-3.6178,-3.6163,-3.5594,-3.6252,-3.6552,-3.6552,-3.6611,-3.73,-3.8392,-3.8677,-3.9139,-3.9768,-4.0121,-4.0768,-4.1393,-4.1459,-4.1885,-4.2458,0.0,0.0,0.0,0.0,0.0,0.0,0.0,0.0,0.0,0.0,0.0,0.0,0.0,0.0,0.0,0.0,0.0,0.0,0.0,-2.4867,-2.4929,-2.473,-2.4412,-2.4118,-2.3853,-2.4264,-2.4664,-2.4953,-2.4777,-2.4673,-2.4627,-2.4539,-2.4287,-2.3876,-2.4024,-2.3804,-2.3379,-2.3891,-2.3978,-2.3773,-2.3978,0.0,0.0,0.0,0.0,0.0,0.0,0.0,0.0,0.0,-1.9797,-1.9797,-1.9797,-1.9797,-1.9797,-1.9762,-1.9726,-1.9966,-2.1021,-2.1994,-2.2921,-2.3984,-2.4747,-2.5646,-2.695,-2.7715,-2.8389,-2.9205,-2.9939,-3.0417,-3.0417,-3.1511,-3.2601,-3.3119,-3.4224,-3.4964,0.0,0.0,0.0,0.0,0.0,0.0,0.0,0.0,0.0,0.0,0.0,0.0,0.0,0.0,0.0,0.0,0.0,-3.5359,-3.5359,-3.5439,-3.5683,-3.6085,-3.5939,-3.5744,-3.5519,-3.5759,-3.6045,-3.6481,-3.6907,-3.7544,-3.8425,-3.9087,-3.9778,-4.0567,-4.1336,-4.1836,-4.2141,-4.2583,-4.2876,-4.3136,0.0,0.0,0.0,0.0,0.0,0.0,0.0,0.0,0.0,0.0,0.0,0.0,0.0,0.0,0.0,0.0,0.0,0.0,-2.3487,-2.3896,-2.3978,-2.3572,-2.3309,-2.3005,-2.2621,-2.3062,-2.3491,-2.3975,-2.3564,-2.3534,-2.38,-2.3747,-2.3865,-2.4109,-2.38,-2.3785,-2.3991,-2.377,-2.38,-2.3991,-2.396,-2.3278,0.0,0.0,0.0,0.0,0.0,0.0,0.0,0.0,-1.969,-1.969,-1.969,-1.969,-1.969,-1.969,-1.9839,-2.0213,-2.1141,-2.2024,-2.2996,-2.4253,-2.527,-2.6378,-2.8098,-2.9056,-2.9879,-3.0926,-3.1524,-3.1898,-3.2108,-3.2527,-3.2975,0.0,-3.4486,0.0,0.0,0.0,0.0,0.0,0.0,0.0,0.0,0.0,0.0,0.0,0.0,0.0,0.0,0.0,0.0,0.0,0.0,0.0,-3.5504,-3.5683,-3.5958,-3.643,-3.6196,-3.6085,-3.6085,-3.6085,-3.6321,-3.6754,-3.7219,-3.7794,-3.8476,-3.9147,-4.0126,-4.113,-4.2104,-4.2645,-4.2892,-4.3317,-4.3647,-4.3839,0.0,0.0,0.0,0.0,0.0,0.0,0.0,0.0,0.0,0.0,0.0,0.0,0.0,0.0,0.0,0.0,0.0,0.0,-2.3442,-2.3405,-2.353,-2.3867,-2.3121,-2.2608,-2.2395,-2.166,-2.1705,-2.2613,-2.2221,-2.2352,-2.3022,-2.3023,-2.3375,-2.3934,-2.3286,-2.3374,-2.3947,-2.3271,-2.3374,-2.3993,-2.3831,-2.3389,-2.2712,0.0,0.0,0.0,0.0,0.0,0.0,0.0,-1.969,-1.969,-1.969,-1.969,-1.972,-1.969,-2.0183,-2.0737,-2.0737,-2.1695,-2.3011,-2.4313,-2.563,-2.7305,-2.9909,-3.0043,-3.0163,-3.2138,-3.2542,-3.2736,-3.338,-3.3499,-3.3724,-3.4367,-3.4912,0.0,0.0,0.0,0.0,0.0,0.0,0.0,0.0,0.0,0.0,0.0,0.0,0.0,0.0,0.0,0.0,0.0,0.0,0.0,-3.5504,-3.6085,-3.643,-3.643,-3.7071,-3.7429,-3.7429,-3.7429,-3.7429,-3.7429,-3.7429,-3.778,-3.8428,-3.8699,-3.9814,-4.1472,-4.2229,-4.2921,-4.3495,-4.3495,-4.3956,-4.457,0.0,0.0,0.0,0.0,0.0,0.0,0.0,0.0,0.0,0.0,0.0,0.0,0.0,0.0,0.0,0.0,0.0,0.0,-2.2574,-2.2291,-2.2148,-2.2225,-2.1746,-2.1341,-2.0931,-2.0899,-2.1449,-2.2678,-2.2562,-2.2609,-2.2855,-2.3243,-2.3093,-2.2468,-2.2687,-2.2649,-2.2386,-2.2194,-2.2192,-2.2395,-2.2861,-2.2599,-2.2033,0.0,0.0,0.0,0.0,0.0,0.0,0.0,0.0,0.0,-1.9839,-2.0647,-2.1605,-2.0677,-2.1201,-2.2099,-2.2099,-2.3056,-2.4253,-2.5106,-2.7021,-2.9011,-3.0223,-3.1091,-3.2213,-3.4203,-3.4233,-3.3948,-3.4143,-3.4188,0.0,-3.4442,0.0,0.0,0.0,0.0,0.0,0.0,0.0,0.0,0.0,0.0,0.0,0.0,0.0,0.0,0.0,0.0,0.0,0.0,0.0,0.0,-3.5504,-3.6085,-3.6662,-3.7131,-3.7764,-3.7822,-3.7429,-3.7429,-3.7648,-3.8051,-3.8108,-3.8537,-3.9204,-4.0029,-4.0712,-4.1343,-4.2061,-4.2456,-4.2707,-4.3244,-4.3575,-4.3842,0.0,0.0,0.0,0.0,0.0,0.0,0.0,0.0,0.0,0.0,-2.3362,-2.3501,0.0,0.0,0.0,0.0,0.0,0.0,0.0,-2.1705,-2.1415,-2.1039,-2.0843,-2.0636,-2.0453,-2.0614,-2.1345,-2.2693,-2.2178,-2.2078,-2.2378,-2.2686,-2.2592,-2.2163,-2.2517,-2.2501,-2.2092,-2.1816,-2.1724,-2.1739,-2.2139,-2.2066,-2.1723,0.0,0.0,0.0,0.0,0.0,0.0,0.0,0.0,0.0,-2.0617,-2.1321,-2.2188,-2.165,-2.2233,-2.3101,-2.337,-2.4403,-2.563,-2.6572,-2.8382,-3.0328,-3.1749,-3.2706,-3.3709,-3.5205,-3.4966,-3.4562,-3.4831,-3.4666,0.0,0.0,0.0,0.0,0.0,0.0,0.0,0.0,0.0,0.0,0.0,0.0,0.0,0.0,0.0,0.0,0.0,0.0,0.0,0.0,0.0,0.0,-3.5861,-3.6492,-3.7131,-3.7764,-3.8423,-3.8479,-3.8141,-3.8141,-3.8367,-3.8772,-3.892,-3.9222,-3.9761,-4.0622,-4.1083,-4.1271,-4.1999,-4.2286,-4.2337,-4.2811,-4.3166,-4.3487,0.0,0.0,0.0,0.0,0.0,0.0,0.0,0.0,0.0,0.0,-2.2632,-2.2579,0.0,0.0,0.0,0.0,0.0,0.0,0.0,-2.1507,-2.1086,-2.0314,-2.0333,-2.0528,-2.0858,-2.0881,-2.147,-2.2699,-2.1427,-2.1098,-2.1698,-2.1706,-2.1965,-2.2422,-2.2486,-2.2483,-2.2399,-2.1766,-2.1507,-2.1507,-2.159,-2.162,-2.162,-2.1691,0.0,0.0,0.0,0.0,0.0,0.0,0.0,0.0,-2.1724,-2.1814,-2.2054,-2.2547,-2.3191,-2.3909,-2.4477,-2.563,-2.6991,-2.8278,-2.9699,-3.1435,-3.3993,-3.4562,-3.4741,-3.537,-3.5011,-3.4756,-3.5385,-3.4996,-3.4771,0.0,0.0,0.0,0.0,0.0,0.0,0.0,0.0,0.0,0.0,0.0,0.0,0.0,0.0,0.0,0.0,0.0,0.0,0.0,0.0,0.0,-3.6368,-3.7131,-3.7764,0.0,-3.8969,-3.9272,-3.9272,-3.9272,-3.9379,-3.9554,-3.9642,-3.9781,-3.9951,-4.066,-4.0981,-4.117,-4.183,-4.2083,-4.21,-4.2168,-4.2675,-4.3318,0.0,0.0,0.0,0.0,0.0,0.0,0.0,0.0,0.0,0.0,0.0,0.0,0.0,0.0,0.0,0.0,0.0,0.0,0.0,-2.1182,-2.078,-2.0243,-2.0455,-2.1145,-2.2255,-2.2266,-2.2404,-2.2702,-2.1883,-2.156,-2.1712,-2.1703,-2.1212,-2.0385,-2.0882,-2.0852,-2.0347,-2.019,-2.0125,-2.0192,-2.0712,-2.0926,-2.0968,-2.1506,-2.17,0.0,0.0,0.0,0.0,0.0,0.0,0.0,-2.1859,-2.2757,-2.3819,-2.2936,-2.3864,-2.5091,-2.4686,-2.5959,-2.756,-2.8397,-3.0746,-3.3275,-3.4906,-3.528,-3.5325,-3.5474,-3.5385,-3.5325,-3.5474,-3.5385,0.0,0.0,0.0,0.0,0.0,0.0,0.0,0.0,0.0,0.0,0.0,0.0,0.0,0.0,0.0,0.0,0.0,0.0,0.0,0.0,0.0,-3.6258,-3.643,-3.7531,-3.8165,0.0,-3.8969,-3.9272,-3.9272,-3.9272,-3.9432,-3.9677,-3.9798,-3.9935,-4.0087,-4.0257,-4.0324,-4.0341,-4.0493,-4.0544,-4.0629,-4.1221,-4.1897,-4.2625,0.0,0.0,0.0,0.0,0.0,0.0,0.0,0.0,0.0,0.0,0.0,0.0,0.0,0.0,0.0,0.0,0.0,0.0,0.0,-2.0508,-2.0379,-1.998,-2.0452,-2.1038,-2.1728,-2.2054,-2.2237,-2.2209,-2.1564,-2.1235,-2.1229,-2.1544,-2.1317,-2.0705,-2.137,-2.1281,-2.0662,-2.0315,-1.9999,-1.9741,-2.0095,-2.0207,-2.0288,-2.0952,-2.1432,-2.1759,-2.2058,0.0,0.0,0.0,0.0,0.0,0.0,0.0,-2.4059,-2.3714,-2.4343,-2.5211,-2.5495,-2.6797,-2.8532,-3.0462,-3.2228,-3.3844,-3.519,-3.5504,-3.5504,-3.5504,-3.5504,-3.5504,-3.5504,0.0,0.0,0.0,0.0,0.0,0.0,0.0,0.0,0.0,0.0,0.0,0.0,0.0,0.0,0.0,0.0,0.0,0.0,0.0,0.0,0.0,-3.6258,-3.6723,-3.7413,-3.8051,-3.8574,-3.8974,-3.9345,-3.9468,-3.9468,-3.9468,-3.9573,-3.9729,-3.9935,-4.0037,-4.007,-4.007,-4.007,-4.007,-4.007,-4.007,-4.0121,-4.051,-4.1136,-4.188,0.0,0.0,0.0,0.0,0.0,0.0,0.0,0.0,0.0,0.0,0.0,0.0,0.0,0.0,0.0,0.0,0.0,0.0,0.0,-1.9854,-2.0025,-1.9891,-2.0408,-2.0767,-2.0887,-2.1425,-2.1635,-2.153,-2.0976,-2.076,-2.0862,-2.1317,-2.159,-2.1719,-2.2145,-2.2035,-2.1481,-2.0803,-2.0207,-1.969,-1.969,-1.969,-1.9756,-2.0303,-2.1008,-2.1778,-2.2345,-2.2977,-2.3595,-2.3595,0.0,0.0,0.0,0.0,-2.3714,-2.4283,-2.4492,-2.4821,-2.5959,-2.7395,-2.9355,-3.2542,-3.341,-3.3844,-3.519,-3.5504,-3.5504,-3.5504,-3.5504,-3.5504,0.0,0.0,0.0,0.0,0.0,0.0,0.0,0.0,0.0,0.0,0.0,0.0,0.0,0.0,0.0,0.0,0.0,0.0,0.0,0.0,-3.5894,-3.6415,-3.6646,-3.7338,-3.8502,-3.8629,-3.9028,-3.9677,-3.9677,-3.9677,-3.9677,-3.9729,-3.9729,-3.9729,-3.9969,-4.007,-4.007,-4.007,-4.007,-4.007,-4.007,-4.007,-4.007,-4.007,-4.0561,-4.1305,0.0,0.0,0.0,0.0,0.0,0.0,0.0,0.0,0.0,0.0,-2.2422,-2.222,-2.1748,-2.1028,0.0,0.0,0.0,0.0,-1.9273,0.0,0.0,-2.0543,-2.0662,-2.0976,-2.1545,-2.165,-2.1425,-2.0842,-2.0752,-2.0991,-2.1579,-2.1051,-2.1141,-2.1665,-2.1196,-2.0933,-2.0805,-2.0107,-1.9771,-1.969,-1.969,-1.969,-1.9726,-1.9822,-2.0587,-2.1714,-2.1817,-2.2574,-2.3595,-2.3595,-2.3595,0.0,0.0,0.0,-2.3625,-2.3714,-2.4163,-2.4627,-2.4837,-2.6707,-2.925,-3.1973,-3.308,-3.3844,-3.519,-3.5504,-3.5504,0.0,-3.5504,0.0,0.0,0.0,0.0,0.0,0.0,0.0,0.0,0.0,0.0,0.0,0.0,0.0,0.0,0.0,0.0,0.0,0.0,0.0,0.0,-3.6117,-3.6492,-3.6554,-3.7774,-3.8469,-3.869,-3.9242,-3.9609,-3.9677,-3.9677,-3.9677,-3.9729,-3.9833,-3.9901,-3.9901,-4.0037,-4.007,-4.007,-4.007,-4.007,-4.007,-4.007,-4.007,-4.007,-4.007,-4.0561,-4.1305,0.0,0.0,0.0,0.0,0.0,0.0,0.0,0.0,0.0,0.0,0.0,-2.2163,-2.1658,-2.0475,0.0,0.0,0.0,0.0,-1.8349,-1.8865,0.0,-1.9585,-2.0318,-2.0662,-2.0572,-2.0946,-2.0812,-2.0139,-2.0139,-2.1036,-2.2757,-2.2473,-2.2892,-2.3849,-2.2787,-2.2323,-2.2233,-2.0857,-2.0034,-1.969,-1.969,-2.0161,-2.0786,-2.0393,-2.131,-2.2726,-2.2359,-2.2847,-2.3595,-2.3595,-2.3595,-2.3595,-2.3595,0.0,0.0,0.0,-2.3819,-2.4298,-2.542,-2.6856,-2.8667,-3.13,-3.2452,-3.329,-3.4622,-3.5235,-3.5504,-3.5504,-3.5504,0.0,0.0,0.0,0.0,0.0,0.0,0.0,0.0,0.0,0.0,0.0,0.0,0.0,0.0,0.0,0.0,0.0,0.0,0.0,-3.6258,-3.6935,-3.744,-3.7774,-3.8398,0.0,-3.9348,-3.9661,-3.9833,-3.9918,-3.9918,-3.9918,-3.9935,-3.9986,-3.9986,-3.9901,-4.0037,-4.007,-4.007,-4.007,-4.007,-4.007,-4.007,-4.007,-4.007,-4.007,-4.029,-4.0731,0.0,0.0,0.0,0.0,0.0,0.0,0.0,0.0,0.0,0.0,0.0,-2.2049,-2.1507,0.0,0.0,0.0,0.0,0.0,-1.7652,0.0,0.0,0.0,-1.9788,-2.0213,-1.9669,-2.0198,-2.0198,-1.969,-1.969,-2.1021,-2.3595,-2.3595,-2.4687,-2.6542,-2.4866,-2.4014,-2.3744,-2.1964,-2.1006,-2.0677,-2.0677,-2.1183,-2.1951,-2.175,-2.2585,-2.3779,-2.3156,-2.3351,-2.3834,-2.3655,-2.3595,-2.3595,-2.3595,-2.3595,0.0,0.0,0.0,-2.3969,-2.5644,-2.6692,-2.7874,-3.0208,-3.1539,-3.2617,-3.3918,-3.4756,-3.5295,0.0,0.0,0.0,0.0,0.0,0.0,0.0,0.0,0.0,0.0,0.0,0.0,0.0,0.0,0.0,0.0,0.0,0.0,0.0,0.0,0.0,-3.7131,-3.7748,-3.8318,-3.8745,-3.8978,-3.9332,-3.9935,-3.9935,-3.9986,-4.007,-4.007,-4.007,-4.007,-4.007,-4.0037,-3.9952,-4.0037,-4.007,-4.007,-4.007,-4.007,-4.007,-4.007,-4.007,-4.007,-4.007,-4.0138,-4.029,0.0,0.0,0.0,0.0,0.0,0.0,0.0,0.0,0.0,0.0,0.0,0.0,-2.1134,-2.032,-1.928,-1.7872,-1.7685,0.0,0.0,0.0,0.0,0.0,0.0,0.0,-1.9611,-1.9698,-1.972,-1.969,-1.969,-2.1021,-2.3595,-2.3595,-2.5659,-2.9265,-2.6662,-2.5151,-2.4448,-2.3146,-2.2892,-2.34,-2.34,-2.3086,-2.2775,-2.3934,-2.4469,-2.4448,-2.3774,-2.3984,-2.4433,-2.3819,-2.3595,-2.3595,-2.3595,-2.3595,-2.3595,0.0,0.0,0.0,-2.4522,-2.5674,-2.6976,-2.8397,-3.0178,-3.1928,-3.3245,0.0,-3.4711,0.0,0.0,0.0,0.0,0.0,0.0,0.0,0.0,0.0,0.0,0.0,0.0,0.0,0.0,0.0,0.0,0.0,0.0,0.0,0.0,0.0,-3.7764,-3.8469,-3.8854,-3.8908,-3.961,-4.007,-4.007,-4.007,-4.007,-4.007,-4.007,-4.007,-4.007,-4.007,-4.0087,-4.007,-4.0087,-4.007,-4.007,-4.007,-4.007,-4.007,-4.007,-4.007,-4.007,-4.007,-4.0188,-4.0407,0.0,0.0,0.0,0.0,0.0,0.0,0.0,0.0,0.0,0.0,0.0,0.0,0.0,-2.0352,-1.9468,-1.844,-1.7936,0.0,0.0,0.0,0.0,0.0,0.0,0.0,-1.9654,-1.969,-1.969,-1.969,-1.969,-2.0827,-2.3011,-2.3415,-2.4597,-2.6378,-2.5854,-2.5719,-2.5749,-2.3595,-2.2562,-2.2413,-2.2832,-2.337,-2.3955,-2.4446,-2.5146,-2.5794,-2.5121,-2.4777,-2.4552,-2.4343,-2.3969,-2.3595,-2.3595,-2.3595,-2.3595,-2.3595,-2.3595,-2.3744,-2.4403,-2.4971,-2.5749,-2.75,-2.9116,-3.0627,-3.1943,-3.3066,-3.4038,0.0,0.0,0.0,0.0,0.0,0.0,0.0,0.0,0.0,0.0,0.0,0.0,0.0,0.0,0.0,0.0,0.0,0.0,0.0,0.0,0.0,-3.8684,-3.9348,-3.9662,-3.9662,-3.9952,-4.007,-4.007,-4.007,-4.007,-4.007,-4.007,-4.007,-4.007,-4.007,-4.007,-4.007,-4.007,-4.007,-4.007,-4.007,-4.007,-4.007,-4.007,-4.007,-4.0121,-4.0188,-4.0238,-4.0389,0.0,0.0,0.0,0.0,0.0,0.0,0.0,0.0,-2.2852,-2.2361,0.0,0.0,0.0,0.0,-1.9797,-1.8786,-1.8104,-1.7697,-1.7697,-1.8343,0.0,0.0,0.0,0.0,-1.9669,-1.969,-1.969,-1.969,-1.969,-2.0602,-2.2353,-2.2772,-2.3565,-2.4582,-2.4627,-2.5241,-2.6138,-2.4163,-2.3206,-2.3071,-2.3729,-2.4373,-2.5,-2.5959,-2.6557,-2.6901,-2.6692,-2.6033,-2.5285,-2.5285,-2.4687,-2.3909,-2.367,-2.346,-2.3295,-2.3295,-2.343,-2.3699,-2.4163,-2.4403,-2.494,-2.6527,-2.7754,-2.8981,-3.0537,-3.1719,-3.2751,0.0,0.0,0.0,0.0,0.0,0.0,0.0,0.0,0.0,0.0,0.0,0.0,0.0,0.0,0.0,0.0,0.0,0.0,0.0,0.0,0.0,-3.947,-3.985,-4.007,-4.007,-4.007,-4.007,-4.007,-4.007,-4.007,-4.007,-4.007,-4.007,-4.007,-4.007,-4.007,-4.0121,-4.0271,-4.0271,-4.007,-4.007,-4.007,-4.007,-4.007,-4.0138,-4.0188,-4.0255,-4.0355,-4.0453,0.0,0.0,0.0,0.0,0.0,0.0,0.0,0.0,-2.2395,-2.2344,0.0,0.0,0.0,0.0,0.0,-1.8921,-1.8194,-1.7772,-1.7772,-1.8388,-1.8713,0.0,0.0,0.0,-1.9611,-1.9669,-1.969,-1.969,-1.969,-2.0363,-2.1665,-2.168,-2.2712,-2.4448,-2.3236,-2.3729,-2.545,-2.4837,-2.4956,-2.563,-2.6273,-2.6183,-2.5944,-2.8517,-2.8712,-2.776,-2.8368,-2.7754,-2.6647,-2.6647,-2.5764,-2.4492,-2.3819,-2.3191,-2.2739,-2.2739,-2.3131,-2.3595,0.0,0.0,0.0,-2.542,-2.6078,0.0,-2.9124,0.0,-3.0806,0.0,0.0,0.0,0.0,0.0,0.0,0.0,0.0,0.0,0.0,0.0,0.0,0.0,0.0,0.0,0.0,0.0,0.0,0.0,0.0,-4.007,-4.007,-4.0121,-4.0121,-4.007,-4.0138,-4.0138,-4.007,-4.0121,-4.0121,-4.007,-4.007,-4.007,-4.007,-4.0121,-4.0121,-4.0121,-4.0628,-4.058,-4.0121,-4.0121,-4.0121,-4.0121,-4.0121,-4.0188,-4.0305,-4.0305,-4.0502,-4.0697,0.0,0.0,0.0,0.0,0.0,-2.5727,-2.4675,-2.4611,-2.4306,0.0,0.0,0.0,-2.2263,-2.1523,-2.1049,-2.088,-2.0273,-1.9848,-1.9848,-1.9585,-1.942,-1.9385,-1.9585,-1.969,-1.9654,-1.969,-1.969,-1.969,-1.969,-2.0124,-2.0991,-2.147,-2.1994,-2.2517,-2.2622,-2.2712,-2.2802,-2.3086,-2.3864,-2.4911,-2.5091,-2.5914,-2.7051,-2.732,-2.8083,-2.8996,-2.8712,-2.8368,-2.8053,-2.8053,-2.6841,-2.5136,-2.3969,-2.349,-2.334,-2.334,-2.346,-2.3595,-2.3595,0.0,0.0,0.0,0.0,0.0,0.0,0.0,0.0,0.0,0.0,0.0,0.0,0.0,0.0,0.0,0.0,0.0,0.0,0.0,0.0,0.0,0.0,0.0,0.0,0.0,0.0,0.0,-4.007,-4.007,-4.007,-4.0188,-4.0188,-4.007,-4.0271,-4.0288,-4.007,-4.0188,-4.0188,-4.007,-4.007,-4.007,-4.0121,-4.0434,-4.0628,-4.0611,-4.1094,-4.1213,-4.1094,-4.0754,-4.0628,-4.058,-4.032,-4.0255,-4.0305,-4.0502,-4.0648,-4.0697,0.0,0.0,0.0,-2.6691,-2.6691,-2.6404,-2.5541,-2.5524,-2.5304,0.0,0.0,0.0,-2.3063,-2.2165,-2.1734,-2.1933,-2.1452,-2.1006,-2.0737,-2.0333,-1.9989,-1.969,-1.969,-1.9824,-2.0109,-2.0124,-2.0243,-2.0528,-2.0528,-2.0722,-2.1141,-2.1515,-2.1695,-2.171,-2.2099,-2.2054,-2.1724,-2.2099,-2.2862,-2.3879,-2.4702,-2.5899,-2.7265,-2.7936,-2.893,-2.9993,-3.0394,-2.9999,-2.9431,-2.995,-2.8593,-2.6381,-2.4694,-2.4399,-2.4506,-2.3912,-2.4142,-2.4526,-2.425,-2.4131,-2.43,-2.4989,0.0,0.0,0.0,-2.8279,0.0,0.0,0.0,0.0,0.0,0.0,0.0,0.0,0.0,0.0,0.0,0.0,0.0,0.0,0.0,0.0,0.0,0.0,0.0,0.0,-4.0188,-4.0188,-4.0271,-4.0337,-4.0337,-4.0271,-4.0436,-4.0419,-4.0288,-4.0288,-4.0238,-4.0188,-4.032,-4.0402,-4.0402,-4.0879,-4.1094,-4.1094,-4.1587,-4.1803,-4.176,-4.1499,-4.1276,-4.1065,-4.0896,-4.0724,-4.071,-4.0853,-4.0871,-4.0793,0.0,0.0,-2.6691,-2.6691,-2.6691,-2.6657,-2.659,-2.6167,-2.5828,0.0,-2.4992,-2.4281,-2.3761,-2.3027,-2.253,-2.2532,-2.213,-2.1624,-2.0961,-2.0797,-2.0438,-1.9824,-1.9794,-2.0049,-2.0587,-2.0737,-2.1081,-2.159,-2.1665,-2.1739,-2.1799,-2.1799,-2.1799,-2.1799,-2.1724,-2.1689,-2.1669,-2.1729,-2.2189,-2.3024,-2.4732,-2.6053,-2.7173,-2.9408,-3.0443,-3.0897,-3.2505,-3.2071,-3.0871,-3.1785,-3.0497,-2.816,-2.5916,-2.5735,-2.6045,-2.4585,-2.5084,-2.5986,-2.5313,-2.514,-2.5306,-2.5803,-2.5599,0.0,-2.7567,-2.8067,0.0,0.0,0.0,0.0,0.0,0.0,0.0,0.0,0.0,0.0,0.0,0.0,0.0,0.0,0.0,0.0,0.0,0.0,-4.0138,-4.0305,-4.0288,-4.0387,-4.0468,-4.0534,-4.0534,-4.0485,-4.0534,-4.0534,-4.0485,-4.0387,-4.0337,-4.0387,-4.0676,-4.0849,-4.0879,-4.1348,-4.1569,-4.1613,-4.2056,-4.2297,-4.2297,-4.2297,-4.2015,-4.1569,-4.1525,-4.1428,-4.1283,-4.1237,-4.1117,-4.0965,-2.5795,-2.6285,-2.6691,-2.6691,-2.6691,-2.6488,-2.5913,-2.6708,-2.7165,-2.6556,-2.6219,-2.5809,-2.5171,-2.4487,-2.402,-2.3937,-2.3339,-2.2787,-2.2334,-2.1306,-2.0662,-2.0513,-2.0513,-2.0318,-1.9884,-2.0946,-2.1306,-2.0917,-2.144,-2.1964,-2.2488,-2.2488,-2.2488,-2.2458,-2.1934,-2.156,-2.1323,-2.1949,-2.2831,-2.3863,-2.441,-2.6335,-2.8919,-2.9312,-3.0761,-3.2636,-3.2455,-3.2499,-3.2525,-3.17,-3.1068,-3.0149,-2.7517,-2.7195,-2.7508,-2.6027,-2.6233,-2.6852,-2.6725,-2.6761,-2.6732,-2.6172,-2.6502,0.0,-2.7111,-2.7228,-2.7568,0.0,0.0,0.0,0.0,0.0,0.0,0.0,0.0,0.0,0.0,0.0,0.0,0.0,0.0,0.0,0.0,0.0,-4.0138,-4.0305,-4.0387,-4.0485,-4.0485,-4.0583,-4.0583,-4.0517,-4.0728,-4.0728,-4.0485,-4.0485,-4.0614,-4.0849,-4.0802,-4.1019,-4.1393,-4.1846,-4.2056,-4.2074,-4.2537,-4.275,-4.275,-4.275,-4.2498,-4.2032,-4.1881,-4.1796,-4.1753,-4.1534,-4.1401,-4.1401,-2.6082,-2.6437,-2.6691,-2.6691,-2.6996,-2.7266,-2.7283,-2.7926,-2.8499,-2.8817,-2.8045,-2.7055,-2.5967,-2.5322,-2.4981,-2.491,-2.443,-2.3785,-2.3061,-2.2382,-2.1749,-2.1216,-2.1201,-2.1201,-2.1186,-2.1844,-2.2173,-2.2158,-2.2488,-2.2858,-2.3272,-2.3451,-2.3559,-2.3641,-2.3529,-2.3163,-2.2708,-2.3106,-2.3565,-2.4212,-2.532,-2.7413,-2.9926,-3.0416,-3.1903,-3.3649,-3.3581,-3.3728,-3.3727,-3.1694,-3.142,-3.1507,-2.9026,-2.902,-2.9605,-2.8118,-2.8257,-2.8746,-2.8005,-2.7891,-2.7912,-2.748,-2.7459,0.0,0.0,-2.7627,-2.7768,-2.8887,0.0,0.0,0.0,0.0,0.0,0.0,0.0,0.0,0.0,0.0,0.0,0.0,0.0,0.0,0.0,0.0,-3.9897,-4.0468,-4.0631,-4.068,-4.068,-4.0745,-4.0793,-4.068,-4.0823,-4.084,-4.068,-4.0819,-4.0972,-4.1139,-4.1455,-4.1717,-4.1973,-4.2378,-4.2537,-4.2537,-4.2806,-4.2882,-4.2882,-4.2882,-4.2768,-4.2555,-4.2534,-4.2414,-4.2251,-4.2133,-4.199,-4.1864,-2.6522,-2.6691,-2.6691,-2.6691,-2.7199,-2.7824,-2.845,-2.867,-2.9259,-3.0572,-2.9694,-2.8455,-2.7164,-2.659,-2.6298,-2.6351,-2.5774,-2.5021,-2.4073,-2.3794,-2.3203,-2.2167,-2.2073,-2.2254,-2.2728,-2.2918,-2.3236,-2.3697,-2.3861,-2.3964,-2.4063,-2.4405,-2.4592,-2.4728,-2.4923,-2.4746,-2.4309,-2.4309,-2.4523,-2.4943,-2.6727,-2.8372,-2.9934,-3.1453,-3.2767,-3.3909,-3.464,-3.4899,-3.4554,-3.2194,-3.2085,-3.2514,-3.0311,-3.0642,-3.1504,-2.9921,-3.0168,-3.0666,-2.9332,-2.9159,-2.9235,-2.8816,-2.8538,-2.8376,0.0,0.0,0.0,-2.9228,0.0,0.0,0.0,0.0,0.0,0.0,0.0,0.0,0.0,0.0,0.0,0.0,0.0,0.0,0.0,0.0,-3.9225,-4.0216,-4.0272,-4.0353,-4.0629,-4.074,-4.0856,-4.0995,-4.1088,-4.1134,-4.1134,-4.1338,-4.1481,-4.1569,-4.2115,-4.2436,-4.2555,-4.2806,-4.2882,-4.2882,-4.2882,-4.2882,-4.2882,-4.2882,-4.2938,-4.2938,-4.3086,-4.2974,-4.2727,-4.2711,-4.2577,-4.232,-2.642,-2.6691,-2.6691,-2.6691,-2.6759,-2.686,-2.6945,-2.752,-2.8412,-2.9666,-3.0302,-3.0473,-3.0046,-2.949,-2.922,-2.9404,-2.8158,-2.7178,-2.6699,-2.5487,-2.4453,-2.3667,-2.3305,-2.3041,-2.2891,-2.374,-2.4138,-2.4046,-2.4687,-2.5028,-2.5028,-2.5105,-2.5105,-2.5112,-2.4564,-2.4442,-2.4648,-2.4718,-2.5721,-2.7356,-2.8243,-2.8362,0.0,-3.0728,-3.2144,-3.3065,-3.4419,-3.4899,-3.475,0.0,-3.3545,-3.3292,0.0,-3.149,-3.2324,-3.0209,-3.0673,-3.1675,-3.0855,-3.1153,0.0,0.0,-2.9812,0.0,0.0,0.0,-2.7637,-2.7182,0.0,0.0,0.0,0.0,0.0,0.0,0.0,0.0,0.0,0.0,0.0,0.0,0.0,0.0,0.0,0.0,0.0,-3.862,-3.8205,-3.8439,-3.9767,-4.0227,-4.0762,-4.1428,-4.1821,-4.2032,-4.2032,-4.1955,-4.2121,-4.2537,-4.2458,-4.2613,-4.3012,-4.2938,-4.2882,-4.2882,-4.2882,-4.2882,-4.2882,-4.2882,-4.2994,-4.3086,-4.3142,-4.3178,-4.3087,-4.292,-4.2844,-4.2806,-2.6573,-2.6691,-2.6691,-2.6691,-2.6691,-2.6843,-2.7283,-2.8648,-2.9686,-2.9794,-3.0771,-3.1049,-3.0102,-3.0061,-3.0013,-2.9758,-2.914,-2.8436,-2.7607,-2.7026,-2.6399,-2.5774,-2.5226,-2.4887,-2.4741,-2.4854,-2.4807,-2.475,-2.5038,-2.5221,-2.5313,-2.554,-2.5689,-2.5779,-2.6594,-2.6792,-2.6566,-2.747,-2.7794,0.0,0.0,-2.8975,0.0,-3.145,-3.3245,-3.4301,-3.4918,-3.5135,-3.4968,0.0,-3.3339,0.0,0.0,0.0,0.0,-3.1759,0.0,-3.1909,0.0,0.0,0.0,0.0,0.0,0.0,-2.7841,0.0,-2.7199,0.0,0.0,0.0,0.0,0.0,0.0,0.0,0.0,0.0,0.0,0.0,0.0,0.0,0.0,0.0,0.0,0.0,0.0,0.0,0.0,-3.807,-3.9356,-3.9598,-4.0144,-4.1155,-4.1398,-4.1734,-4.2198,-4.24,-4.2616,-4.2806,-4.292,-4.3068,-4.3287,-4.3086,-4.3012,-4.2994,-4.2938,-4.2882,-4.2882,-4.2882,-4.2994,-4.3104,-4.3178,-4.3251,-4.3305,-4.3268,-4.3268,-4.3268,-2.6657,-2.6691,-2.6691,-2.6691,-2.6691,-2.6945,-2.7671,-2.9437,-3.0662,-3.0527,-3.1515,-3.1942,-3.1175,-3.1391,-3.1541,-3.1408,-3.1066,-3.0418,-2.9387,-2.9099,-2.8519,-2.7582,-2.6937,-2.6591,-2.65,-2.6015,-2.5697,-2.5577,-2.5598,-2.5652,-2.5779,-2.6068,-2.6227,-2.633,-2.7955,-2.8349,-2.7874,-2.9228,-2.9242,-2.8443,-2.9522,-2.9972,-3.0236,-3.237,-3.4074,-3.5291,-3.5291,-3.5291,-3.5107,-3.3845,-3.3322,0.0,-3.3115,0.0,-3.2553,0.0,0.0,0.0,-3.1375,0.0,0.0,0.0,0.0,0.0,0.0,0.0,0.0,0.0,0.0,0.0,0.0,0.0,-2.8315,-2.8909,0.0,0.0,0.0,0.0,0.0,0.0,0.0,0.0,0.0,0.0,0.0,0.0,0.0,0.0,-3.8954,-3.9146,-3.9722,-4.082,-4.0971,-4.1297,-4.189,-4.223,-4.2505,-4.2759,-4.2976,-4.3065,-4.3011,-4.285,-4.274,-4.2722,-4.2612,-4.2701,-4.2882,-4.2938,-4.3031,-4.3123,-4.3214,-4.334,-4.3446,-4.3497,-4.3497,-4.3497,-2.6556,-2.6691,-2.6691,-2.6691,-2.6691,-2.6945,-2.7671,-2.8999,-3.0443,-3.1849,-3.2765,-3.3688,-3.4818,-3.4549,-3.4729,-3.5885,-3.481,-3.3717,-3.2964,-3.2143,-3.0766,-2.8724,-2.8135,-2.775,-2.7573,-2.7214,-2.6886,-2.6572,-2.6607,-2.6657,-2.6657,-2.6657,-2.6691,-2.6725,-2.7503,-2.7806,-2.784,-2.867,-2.9414,-3.004,-3.0091,-3.1376,-3.3229,0.0,-3.403,-3.5291,-3.5291,0.0,0.0,-3.4404,-3.4136,0.0,0.0,0.0,0.0,0.0,0.0,0.0,0.0,0.0,0.0,-2.9753,0.0,0.0,0.0,0.0,-2.8704,0.0,0.0,0.0,0.0,-2.8941,-2.8977,-2.9068,-2.9714,0.0,0.0,0.0,0.0,0.0,0.0,0.0,0.0,0.0,0.0,0.0,0.0,0.0,-3.8483,-3.9032,-3.9624,-4.0402,-4.086,-4.1134,-4.1152,-4.1152,-4.1537,-4.2307,-4.2258,-4.2189,-4.2029,-4.1959,-4.1851,-4.1759,-4.1759,-4.2194,-4.292,-4.3049,-4.3123,-4.3214,-4.334,-4.3446,-4.3497,-4.3497,-4.3497,-4.3497,-2.664,-2.6691,-2.6691,-2.6691,-2.6691,-2.7131,-2.8399,-2.9411,-3.0577,-3.2046,-3.2824,-3.358,-3.4449,-3.4801,-3.4997,-3.4964,-3.451,-3.3967,-3.3278,-3.2446,-3.2085,-3.2353,-3.0323,-2.966,-3.0555,-2.9106,-2.8034,-2.7383,-2.7418,-2.7182,-2.6691,-2.6691,-2.6691,-2.6776,-2.8552,-2.9059,-2.8704,-3.0429,-3.1038,-3.092,0.0,-3.3322,-3.4878,0.0,0.0,-3.5503,-3.5503,-3.5503,0.0,-3.52,-3.4751,-3.4398,-3.4678,-3.4257,-3.3684,-3.3676,-3.3719,0.0,0.0,0.0,-3.3541,-3.1055,0.0,0.0,0.0,0.0,0.0,0.0,0.0,0.0,0.0,-2.9454,-2.9797,-2.9816,-3.0724,-3.1078,0.0,0.0,0.0,0.0,0.0,0.0,0.0,0.0,0.0,0.0,0.0,0.0,0.0,-3.8413,-3.8982,-4.0035,-4.0221,-4.0561,-4.1111,-4.1111,-4.1258,-4.1515,-4.1434,-4.14,-4.1397,-4.1227,-4.1502,-4.2047,-4.1958,-4.2341,-4.3049,-4.3123,-4.3178,-4.3196,-4.334,-4.3446,-4.3497,-4.3497,-4.3497,-4.3497,-2.6691,-2.6691,-2.6691,-2.6691,-2.7148,-2.7926,-2.9194,-3.0243,-3.1309,-3.2527,-3.3237,-3.3936,-3.4633,-3.5127,-3.5429,-3.5508,-3.5554,-3.5133,-3.4155,-3.3869,-3.3657,-3.3513,-3.2227,-3.1729,-3.2174,-3.0886,-2.9516,-2.823,-2.796,-2.7435,-2.6691,-2.6691,-2.6691,-2.6776,-2.8805,-2.9431,-2.9146,-3.1072,-3.1782,-3.1715,0.0,-3.437,0.0,0.0,-3.5622,-3.5622,0.0,-3.5622,-3.5622,-3.5622,-3.5273,-3.4925,-3.5442,-3.4935,-3.4182,-3.4438,-3.4353,-3.4083,-3.3541,-3.3931,0.0,-3.207,-3.1579,0.0,-2.9076,0.0,0.0,0.0,0.0,0.0,0.0,-3.1005,-3.1093,-3.146,-3.1934,-3.1739,0.0,-2.9869,0.0,0.0,0.0,0.0,0.0,0.0,-3.415,-3.5735,0.0,0.0,0.0,0.0,-3.867,-3.946,-3.946,-3.9717,-4.0249,-4.0267,-4.0396,-4.0671,-4.0624,-4.0624,-4.0624,-4.0507,-4.0766,-4.1277,-4.1482,-4.1995,-4.2686,-4.3105,-4.3251,-4.3214,-4.3358,-4.3463,-4.3497,-4.3497,-4.3497,-4.3497,-2.6742,-2.6776,-2.6826,-2.686,-2.8027,-2.9245,0.0,0.0,-3.251,0.0,-3.4032,-3.4749,-3.5453,-3.5583,-3.6219,-3.7511,-3.7793,-3.7297,-3.5825,-3.6257,-3.538,-3.2679,-3.371,-3.3777,-3.2527,-3.2398,-3.1258,-2.918,-2.8298,-2.7486,-2.6742,-2.6708,-2.6691,-2.6759,-2.8298,-2.9011,-2.9076,-3.0565,-3.1647,-3.2459,-3.3947,-3.4539,-3.4624,-3.5351,0.0,-3.5622,-3.5622,-3.5622,-3.5622,-3.5622,-3.5622,-3.5622,-3.5622,-3.5622,-3.547,-3.4759,-3.5064,-3.5318,-3.3897,-3.4015,-3.4201,-3.2747,0.0,0.0,0.0,0.0,-3.2304,0.0,0.0,0.0,0.0,-3.3494,-3.2769,-3.3695,-3.3179,-3.2197,-3.0808,-3.0558,0.0,0.0,0.0,0.0,-3.3176,-3.2849,-3.3256,-3.4807,-3.4972,-3.5734,0.0,0.0,0.0,-3.8707,-3.8707,-3.8707,-3.8707,-3.8707,-3.9074,-3.9827,-3.9827,-3.9813,-3.9754,-3.9735,-3.9721,-3.9714,-4.0479,-4.1265,-4.205,-4.2994,-4.334,-4.3251,-4.341,-4.3497,-4.3497,-4.3497,-4.3497,-4.3497,-2.7418,-2.7994,-2.8569,-2.9127,-2.9093,-2.9245,0.0,0.0,0.0,0.0,-3.4032,-3.4776,-3.5509,-3.6146,-3.6637,-3.6979,-3.7584,-3.7736,-3.7347,-3.6388,-3.6033,-3.6451,-3.4648,-3.4259,-3.5605,-3.3465,-3.2043,-3.1467,-2.9583,-2.8281,-2.752,-2.6962,-2.6691,-2.6759,-2.8298,-2.9011,-2.9076,-3.0565,-3.1935,-3.3254,-3.4726,-3.5334,0.0,0.0,-3.5622,-3.5622,-3.5622,-3.5622,-3.5622,-3.5622,-3.5622,-3.5622,-3.5622,-3.5622,-3.5588,-3.5385,-3.547,-3.5537,-3.5165,-3.5182,-3.5115,-3.4167,-3.3765,-3.3321,0.0,0.0,0.0,0.0,0.0,0.0,0.0,0.0,-3.3379,-3.3057,-3.2581,-3.2202,-3.2074,-3.1545,0.0,-3.2107,0.0,0.0,0.0,-3.2672,-3.3036,-3.4027,-3.4642,0.0,0.0,0.0,0.0,-3.8689,-3.8707,-3.8707,-3.8707,-3.8707,-3.8799,-3.9019,-3.8902,-3.8902,-3.8988,-3.8889,-3.953,-4.0734,-4.0936,-4.1766,-4.3031,-4.3355,-4.3428,-4.334,-4.3463,-4.3497,-4.3497,-4.3497,-4.3497,-4.3497,-2.8247,-2.9211,-2.9989,-3.0091,0.0,0.0,-3.0987,-3.141,0.0,-3.3254,-3.4032,0.0,-3.5081,-3.6113,-3.6907,-3.7246,-3.7956,0.0,-3.7922,0.0,-3.7043,-3.6907,-3.5926,-3.5825,-3.6755,-3.4472,-3.3085,-3.278,-3.0226,-2.8586,-2.7772,-2.7046,-2.6691,-2.6759,-2.8298,-2.9011,-2.9146,-3.0903,-3.2341,-3.3508,-3.4675,0.0,0.0,-3.5622,-3.5622,-3.5622,-3.5622,-3.5622,-3.5622,-3.5622,-3.5622,-3.5622,-3.5622,-3.5622,-3.5622,-3.5622,-3.5622,-3.5667,-3.5827,-3.5915,-3.5856,-3.5607,-3.5405,-3.5066,-3.4376,-3.4738,-3.5171,0.0,0.0,0.0,0.0,0.0,0.0,-3.331,-3.2708,-3.2392,-3.257,-3.221,0.0,0.0,-3.2614,0.0,0.0,0.0,0.0,0.0,0.0,0.0,0.0,0.0,0.0,0.0,-3.8175,-3.834,-3.8707,-3.8707,-3.8707,-3.8707,-3.8609,-3.8609,-3.8707,-3.8609,-3.9103,-4.0084,-4.0432,-4.1211,-4.2333,-4.2784,-4.3151,-4.3429,-4.3463,-4.3497,-4.3497,-4.3497,-4.3497,-4.3497,-2.9245,-3.0417,-3.1145,0.0,0.0,0.0,0.0,-3.2425,0.0,-3.3457,0.0,-3.4675,-3.4776,-3.6062,-3.7229,-3.799,0.0,-3.887,-3.8227,-3.87,-3.8125,-3.6146,-3.7144,-3.7499,-3.6941,-3.5334,-3.4134,-3.3406,-3.0531,-2.867,-2.7772,-2.7046,-2.6691,-2.6759,-2.8197,-2.8941,-2.9279,-3.1495,-3.2797,-3.3474,-3.4303,-3.503,-3.5622,-3.5622,-3.5622,-3.5622,-3.5622,-3.5622,-3.5622,-3.5622,-3.5622,-3.5622,-3.5622,-3.5667,-3.5711,-3.5711,-3.5739,-3.5871,-3.6259,-3.6367,-3.6451,-3.6821,-3.6851,-3.6682,-3.6127,-3.6041,-3.6203,-3.669,-3.6305,0.0,0.0,0.0,0.0,-3.3935,-3.322,-3.2761,-3.2761,-3.2761,-3.2724,-3.2614,0.0,0.0,0.0,0.0,0.0,0.0,0.0,0.0,0.0,0.0,0.0,0.0,-3.747,0.0,-3.8542,0.0,-3.8707,-3.8707,-3.8707,-3.8707,-3.8707,-3.8707,-3.8762,-3.8909,-3.9588,-4.0364,-4.1159,-4.1959,-4.2748,-4.3411,-4.3463,-4.3497,-4.3497,-4.3497,-4.3497,-4.3497,-3.07,-3.1591,-3.1987,0.0,0.0,-3.2493,-3.3119,-3.322,-3.3474,-3.4201,-3.4962,-3.5673,-3.6315,-3.7178,-3.8007,-3.8734,-3.9462,0.0,0.0,0.0,0.0,-3.8413,-3.7483,-3.7212,-3.7702,-3.5588,-3.4134,-3.3406,-3.1055,-2.9194,-2.7772,-2.7046,-2.6691,-2.6725,-2.7621,-2.8721,-3.0057,-3.2273,0.0,-3.3525,-3.4878,-3.5504,-3.5622,-3.5622,-3.5622,-3.5622,-3.5622,-3.5622,-3.5622,-3.5622,-3.5622,-3.5622,-3.5622,-3.5871,-3.6174,-3.6174,-3.6392,-3.6701,-3.6781,-3.6781,-3.6821,-3.696,-3.6714,-3.6506,-3.6468,-3.6723,-3.7003,-3.7148,-3.7612,-3.7898,-3.7723,0.0,0.0,0.0,0.0,0.0,0.0,0.0,-3.3348,-3.2687,0.0,0.0,0.0,0.0,0.0,0.0,0.0,0.0,0.0,0.0,0.0,0.0,0.0,0.0,0.0,0.0,0.0,-3.8707,-3.8707,-3.8707,-3.8707,-3.8707,-3.9056,-3.9698,-3.9827,-4.0726,-4.2051,-4.2231,-4.2782,-4.3497,-4.3497,-4.3497,-4.3497,-4.3497,-4.3497,-4.3497,-3.2468,-3.2808,-3.2985,-3.2627,0.0,0.0,0.0,-3.4449,0.0,-3.4489,-3.481,-3.5318,-3.6096,-3.7212,-3.821,-3.8937,-3.9648,-4.007,-4.007,-3.9394,-3.8988,-3.8988,-3.7584,-3.7157,-3.795,-3.6073,-3.4752,-3.4067,-3.1986,-3.0131,-2.8595,-2.7665,-2.7227,-2.7247,-2.822,-2.9374,0.0,0.0,0.0,-3.3508,-3.4832,-3.56,-3.6002,-3.6182,-3.6249,-3.6249,-3.6249,-3.6249,-3.6224,-3.6028,-3.5958,-3.6002,-3.6224,-3.6433,-3.6597,-3.6597,-3.6759,-3.6939,-3.7226,-3.7301,-3.7269,-3.713,-3.696,-3.6747,-3.6395,-3.6497,-3.6796,-3.7278,-3.7711,-3.7888,-3.7551,-3.6505,0.0,0.0,0.0,0.0,0.0,0.0,-3.366,-3.3275,-3.3568,-3.3348,0.0,0.0,0.0,0.0,0.0,0.0,0.0,0.0,0.0,0.0,0.0,0.0,0.0,0.0,0.0,-3.8707,-3.8707,-3.8707,-3.8707,-3.8707,-3.8909,-3.9276,-3.9276,-3.9955,-4.1111,-4.1956,-4.2763,-4.3497,-4.3497,-4.3497,-4.3497,-4.3497,-4.3497,-4.3497,-3.4052,-3.4035,0.0,0.0,-3.4328,0.0,-3.4882,-3.5428,-3.5596,-3.4854,-3.4878,-3.5267,-3.6028,-3.733,-3.843,-3.9157,-3.9597,-3.9918,-4.007,-3.9291,-3.8899,-3.9149,-3.7767,-3.7314,-3.8042,-3.6652,-3.5437,0.0,-3.289,-3.1253,-2.9555,-2.8675,-2.8235,0.0,0.0,0.0,0.0,0.0,-3.3242,-3.4011,-3.5134,-3.5913,-3.6451,-3.6781,-3.69,-3.69,-3.69,-3.69,-3.686,-3.6638,-3.6492,-3.6492,-3.6781,-3.6978,-3.7017,-3.7017,-3.7094,-3.7301,-3.7685,-3.7845,-3.7751,-3.7335,-3.7101,-3.6754,-3.6022,-3.5886,-3.6069,-3.6817,-3.7239,-3.747,-3.7276,-3.6725,0.0,0.0,0.0,0.0,0.0,0.0,-3.3733,-3.3568,-3.3532,-3.3476,0.0,0.0,0.0,0.0,0.0,0.0,-3.2577,-3.2614,0.0,0.0,0.0,0.0,-3.7221,0.0,-3.8524,0.0,-3.8707,-3.8707,-3.8707,-3.8707,-3.8707,-3.8707,-3.8707,-3.9258,-4.0267,-4.1717,-4.2763,-4.3497,-4.3497,-4.3497,-4.3497,-4.3497,-4.3497,-4.3497,0.0,0.0,0.0,0.0,0.0,0.0,0.0,-3.5514,-3.5915,-3.5715,-3.6237,-3.6857,-3.7601,-3.8413,-3.9191,-3.9918,-3.9428,-3.9377,-4.0037,-3.8814,-3.8525,-3.9595,-3.833,-3.7805,-3.8249,-3.7461,-3.5982,0.0,0.0,-3.2378,-3.0198,-3.0105,0.0,0.0,0.0,0.0,0.0,-3.3881,-3.4896,-3.5647,-3.6418,-3.679,-3.686,-3.69,-3.69,-3.69,-3.69,-3.69,-3.6939,-3.7283,-3.717,-3.686,-3.69,-3.717,-3.7414,-3.7414,-3.7792,-3.8189,-3.8223,-3.8271,-3.8168,-3.746,-3.6723,-3.6003,-3.5255,-3.51,-3.5137,-3.521,-3.6431,-3.7276,-3.6541,-3.634,-3.6046,0.0,0.0,0.0,0.0,0.0,-3.3532,-3.2816,-3.2724,-3.243,0.0,0.0,0.0,0.0,0.0,0.0,-3.2614,-3.2614,0.0,-3.388,0.0,-3.555,-3.6395,-3.7202,0.0,-3.8707,-3.8707,-3.8707,-3.8707,-3.8707,-3.8707,-3.8707,-3.8707,-3.957,-4.1075,-4.1937,-4.2763,-4.3497,-4.3497,-4.3497,-4.3497,-4.3497,-4.3497,-4.3497,0.0,0.0,0.0,0.0,0.0,0.0,0.0,-3.6741,-3.7186,-3.7084,-3.7004,-3.7519,-3.8986,-3.9217,-3.9648,-4.0621,-4.0226,-4.0014,-4.0303,-3.8955,-3.8726,-4.013,-3.8356,-3.7759,-3.8702,-3.8345,-3.7189,0.0,0.0,0.0,0.0,0.0,0.0,0.0,0.0,-3.3455,-3.4003,-3.5012,-3.5592,-3.5945,-3.6889,-3.7283,-3.7283,-3.7577,-3.7667,-3.7667,-3.7667,-3.7667,-3.7703,-3.7915,-3.7667,-3.7321,-3.7577,-3.781,-3.7984,-3.7984,-3.8153,-3.8368,-3.8401,-3.8446,-3.8295,-3.7601,-3.6813,-3.6017,-3.5192,-3.4633,-3.4431,-3.4899,-3.5954,-3.667,-3.6358,-3.5881,-3.5587,0.0,0.0,0.0,0.0,0.0,0.0,-3.3366,-3.333,-3.3201,0.0,0.0,0.0,0.0,0.0,0.0,0.0,0.0,0.0,-3.3054,0.0,-3.544,-3.6285,-3.7092,-3.79,-3.8707,-3.8707,-3.8707,-3.8707,-3.8707,-3.8707,-3.8707,-3.8707,-3.9625,-4.113,-4.146,-4.2341,-4.3497,-4.3497,-4.3497,-4.3497,-4.3497,-4.3497,-4.3497,-3.8227,0.0,-3.8634,0.0,-3.7384,-3.6904,-3.7351,-3.7747,-3.8164,-3.8456,-3.8353,-3.8668,-3.9708,-3.9888,-4.0233,-4.1041,-4.0764,-4.0654,-4.0879,-3.9461,-3.9274,-4.0694,-3.9051,0.0,-3.9252,-3.9155,-3.8282,-3.657,-3.6164,0.0,0.0,0.0,0.0,0.0,-3.4624,-3.5151,-3.5659,-3.613,-3.6435,-3.6684,-3.7452,-3.79,-3.8151,-3.85,-3.8764,-3.8964,-3.8964,-3.8964,-3.8946,-3.8758,-3.843,-3.815,-3.8228,-3.8289,-3.8322,-3.8322,-3.8368,-3.8446,-3.8478,-3.851,-3.8407,-3.7679,-3.7055,-3.6358,-3.5247,-3.4578,-3.4266,-3.4596,-3.533,-3.5917,-3.5917,-3.5422,-3.5192,0.0,0.0,0.0,0.0,-3.4174,0.0,-3.3807,-3.3587,-3.3532,-3.377,0.0,0.0,0.0,0.0,0.0,0.0,0.0,0.0,0.0,0.0,0.0,0.0,0.0,-3.79,-3.8707,-3.8707,-3.8707,-3.8707,-3.8707,-3.8707,-3.8707,-3.8707,-3.9478,-4.0781,-4.102,-4.1919,-4.3167,-4.3406,-4.3497,-4.3497,-4.3497,-4.3497,-4.3513,-3.972,-4.0183,-4.033,-3.994,-3.8894,-3.8205,-3.8629,-3.8341,-3.8523,-3.9715,-4.0538,-4.063,-3.95,-4.0383,-4.1059,-4.1076,-4.0848,-4.102,-4.1757,-4.0446,-4.0167,0.0,0.0,-4.0286,-3.9887,-3.99,-3.9111,-3.7477,0.0,0.0,-3.6266,0.0,0.0,-3.6266,-3.6266,-3.6648,-3.7272,-3.7272,-3.7698,-3.8364,-3.8382,-3.8875,-3.9586,-3.9586,-4.0078,-4.0753,-4.0753,-4.0753,-4.0643,-3.9841,-3.9586,-3.944,-3.8638,-3.8382,-3.8382,-3.8382,-3.8446,-3.851,-3.851,-3.8609,-3.8505,-3.7679,-3.7477,-3.7037,-3.5385,-3.499,-3.4752,-3.3972,-3.4468,-3.5009,-3.5009,-3.5009,-3.499,-3.5009,0.0,0.0,0.0,0.0,0.0,-3.3807,-3.3109,-3.2944,-3.3715,0.0,0.0,0.0,0.0,0.0,0.0,0.0,0.0,-3.3752,-3.4596,0.0,-3.6285,-3.7092,-3.79,-3.8707,-3.8707,-3.8707,-3.8707,-3.8707,-3.8707,-3.8707,-3.8707,-3.9166,-3.9974,-4.0781,-4.1589,-4.2396,-4.3185,-4.3497,-4.3497,-4.3497,-4.3497,-4.3566,-3.9792,-4.1065,-4.1648,-4.0173,-3.9569,-3.9073,-3.8419,-3.8654,-3.9247,-4.0112,-4.096,-4.1432,-4.1311,-4.1619,-4.1973,0.0,-4.1966,-4.1831,0.0,-4.1176,-4.1042,-4.189,-4.1271,-4.0688,-4.0233,-4.076,-4.0169,-3.8322,0.0,0.0,0.0,-3.711,-3.711,-3.7129,-3.7679,-3.8346,-3.908,-3.9035,-3.9447,-4.016,-4.0057,-4.0169,-4.0406,-4.0406,-4.0571,-4.0805,-4.0805,-4.0805,-4.0769,-4.0602,-4.0544,-4.0507,-4.0317,-3.9424,-3.8478,-3.8478,-3.8559,-3.8658,-3.8658,-3.8658,-3.8634,-3.8377,-3.79,-3.7349,-3.6817,-3.5826,-3.4752,-3.3972,-3.4449,-3.499,-3.499,-3.499,-3.499,-3.499,0.0,0.0,0.0,0.0,-3.3807,-3.3807,-3.3568,-3.3532,0.0,-3.2834,0.0,0.0,0.0,0.0,0.0,0.0,0.0,0.0,-3.4275,0.0,-3.6285,-3.7092,-3.79,-3.8707,-3.8707,-3.8707,-3.8707,-3.8707,-3.8707,-3.8707,-3.8707,-3.9478,-4.0744,-4.1001,-4.1901,-4.313,-4.3387,-4.3497,-4.3532,-4.3749,-4.3846,-4.386,-4.0203,-4.1307,-4.1923,-4.098,-4.0165,-3.9572,-3.9252,-3.9527,-3.9982,-4.0577,-4.1649,-4.2395,-4.2678,-4.2693,0.0,-4.2882,-4.2788,-4.2693,-4.2693,-4.228,-4.2226,-4.2657,-4.2262,-4.1741,-4.1139,0.0,0.0,-3.9606,-3.979,-3.9386,-3.8395,-3.8395,-3.8395,-3.8432,-3.9239,-3.9882,-4.0359,-4.0313,-4.0573,-4.1013,-4.0961,-4.1074,-4.1348,-4.1348,-4.1531,-4.1821,-4.1821,-4.1821,-4.1784,-4.1544,-4.1504,-4.1449,-4.117,-4.0364,-3.9401,-3.9122,-3.8878,-3.8707,-3.8707,-3.8707,-3.8707,-3.8707,-3.8322,-3.779,-3.7184,-3.6248,-3.5257,-3.4431,-3.4926,-3.5404,-3.5045,-3.5275,-3.5293,-3.4669,0.0,-3.4156,-3.3844,0.0,0.0,0.0,0.0,0.0,0.0,-3.3568,0.0,0.0,0.0,0.0,0.0,0.0,0.0,-3.3191,-3.4706,0.0,-3.6285,-3.7386,-3.8193,-3.8707,-3.8707,-3.8707,-3.8707,-3.8707,-3.8707,-3.8707,-3.8707,-3.9441,-4.0671,-4.1075,-4.2023,-4.3254,-4.368,-4.3823,-4.3855,-4.4072,-4.4151,-4.421,-4.0808,-4.113,0.0,0.0,-4.0662,0.0,-4.0844,-4.0753,-4.0704,-4.1119,-4.2488,-4.3424,-4.3479,-4.3497,-4.3339,-4.2957,0.0,0.0,0.0,-4.3497,-4.3497,-4.3497,-4.3497,0.0,-4.2323,-4.2359,-4.2029,-4.1277,-4.0396,-4.001,-4.0065,-4.001,-3.9974,-4.001,-4.0781,-4.1148,-4.1185,-4.1185,-4.124,-4.1277,-4.1277,-4.1735,-4.2378,-4.2378,-4.2837,-4.3497,-4.3497,-4.3497,-4.3387,-4.2635,-4.2378,-4.2249,-4.1515,-4.124,-4.1038,-4.0212,-3.9405,-3.8781,-3.8781,-3.8744,-3.8707,-3.8707,-3.8707,-3.8303,-3.6743,-3.6376,-3.6138,-3.5275,-3.5789,-3.6138,-3.5302,-3.5789,-3.5789,-3.4229,-3.4504,-3.4642,-3.3917,0.0,0.0,0.0,0.0,0.0,0.0,-3.4394,-3.4508,0.0,0.0,0.0,0.0,0.0,0.0,-3.4253,-3.5661,-3.6405,-3.6376,-3.7918,-3.8707,-3.8707,-3.8707,-3.8707,-3.8707,-3.8707,-3.8707,-3.8707,-3.8707,-3.9184,-4.006,-4.1051,-4.198,-4.2914,-4.3942,-4.4383,-4.4383,-4.4411,-4.443,-4.4465,0.0,0.0,-4.1699,-4.0653,-4.1082,-4.1269,-4.0341,-4.0624,-4.1214,-4.1904,-4.2359,-4.2818,-4.3424,-4.3497,-4.3444,-4.3375,-4.3463,-4.3497,-4.3497,-4.3497,-4.3497,-4.3497,-4.3497,-4.3112,-4.2323,-4.2892,-4.3112,-4.2928,-4.1515,-4.113,-4.1717,-4.1111,-4.0836,-4.0836,-4.1038,-4.1442,-4.2029,-4.2029,-4.2378,-4.2928,-4.2928,-4.3039,-4.3222,-4.3222,-4.3314,-4.3497,-4.3497,-4.3497,-4.3461,-4.3277,-4.3222,-4.3167,-4.2983,-4.2506,-4.1864,-4.1056,-4.0249,-3.9625,-3.9625,-3.9166,-3.8707,-3.8707,-3.8707,-3.845,-3.7422,-3.7202,-3.6964,-3.6156,-3.6633,-3.7147,-3.6945,-3.656,-3.6156,-3.5771,-3.4798,-3.4027,-3.3825,-3.3972,0.0,0.0,-3.4302,-3.442,-3.442,-3.4464,-3.4508,0.0,0.0,0.0,0.0,0.0,-3.5067,-3.5107,-3.6689,-3.7424,-3.7232,-3.8193,-3.8707,-3.8707,-3.8707,-3.8707,-3.8707,-3.8707,-3.8707,-3.8707,-3.8707,-3.9515,-4.0836,-4.1098,-4.2192,-4.3708,-4.3986,-4.4221,-4.4411,-4.4624,-4.4701,-4.4751,-3.9318,-4.0341,-4.1038,-4.0543,-4.1167,-4.1589,-4.1075,-4.1368,-4.1772,-4.2066,-4.2543,-4.3002,-4.3442,-4.3497,-4.3497,-4.3497,-4.3497,-4.3497,-4.3497,-4.3497,-4.3497,-4.3497,-4.3497,-4.3296,-4.2855,-4.3277,-4.3497,-4.3497,-4.2268,-4.1882,-4.2286,-4.1864,-4.1662,-4.1662,-4.2029,-4.2433,-4.2837,-4.2837,-4.3094,-4.3497,-4.3497,-4.3497,-4.3497,-4.3497,-4.3497,-4.3497,-4.3497,-4.3497,-4.3497,-4.3497,-4.3497,-4.3497,-4.3497,-4.3185,-4.2763,-4.2323,-4.1368,-4.0377,-3.9992,-3.957,-3.9166,-3.8799,-3.8707,-3.8487,-3.7661,-3.7771,-3.7808,-3.7,-3.7477,-3.7936,-3.7551,-3.7129,-3.6597,-3.5844,-3.5054,-3.4371,-3.387,-3.4105,0.0,-3.4221,-3.4502,-3.4674,-3.4674,-3.4774,-3.4813,-3.4813,0.0,0.0,-3.5607,-3.6292,-3.6377,-3.5743,-3.7255,-3.8007,-3.7867,-3.8543,-3.8822,-3.8707,-3.8707,-3.8707,-3.8707,-3.8707,-3.8707,-3.8707,-3.8822,-3.9785,-4.1292,-4.1574,-4.2744,-4.4374,-4.453,-4.4688,-4.4838,-4.4957,-4.5023,-4.5045,-3.8707,-3.935,-4.0084,-4.0653,-4.0946,-4.135,-4.2011,-4.2213,-4.2249,-4.2139,-4.291,-4.3497,-4.3497,-4.3497,-4.3497,-4.3497,-4.3497,-4.3497,-4.3497,-4.3497,-4.3497,-4.3497,-4.3497,-4.3497,-4.3497,-4.3497,-4.3497,-4.3497,-4.2818,-4.2488,-4.2488,-4.2488,-4.2488,-4.2506,-4.3185,-4.3497,-4.3497,-4.3497,-4.3497,-4.3497,-4.3497,-4.3497,-4.3497,-4.3497,-4.3497,-4.3497,-4.3497,-4.3497,-4.3497,-4.3497,-4.3497,-4.3497,-4.3497,-4.3497,-4.3497,-4.3497,-4.2525,-4.1258,-4.0322,-3.99,-3.9551,-3.8872,-3.8707,-3.8524,-3.7826,-3.8212,-3.8505,-3.7808,-3.8212,-3.8487,-3.7808,-3.7459,-3.6835,-3.544,-3.5225,-3.4902,-3.3987,0.0,-3.4505,-3.4321,-3.4672,-3.4945,-3.4945,-3.5107,-3.5209,-3.5209,-3.5324,0.0,0.0,-3.7387,-3.7488,-3.6577,-3.7826,-3.8517,-3.8493,-3.8917,-3.9045,-3.8822,-3.8822,-3.8822,-3.8822,-3.8822,-3.8822,-3.8822,-3.9073,-4.0077,-4.1605,-4.2121,-4.3298,-4.4843,-4.5109,-4.5256,-4.5297,-4.5297,-4.5297,-4.5297,-3.8707,-3.935,-3.9717,-3.9166,-4.0212,-4.1148,-4.1277,-4.1864,-4.2525,-4.3167,-4.3387,-4.3497,-4.3497,-4.3497,-4.3497,-4.3497,-4.3497,-4.3497,-4.3497,-4.3497,-4.3497,-4.3497,-4.3497,-4.3497,-4.3497,-4.3497,-4.3497,-4.3497,-4.3369,-4.3296,-4.3296,-4.3296,-4.3296,-4.3314,-4.3424,-4.3497,-4.3497,-4.3497,-4.3497,-4.3497,-4.3497,-4.3497,-4.3497,-4.3497,-4.3497,-4.3497,-4.3497,-4.3497,-4.3497,-4.3497,-4.3497,-4.3497,-4.3497,-4.3497,-4.3497,-4.3497,-4.3314,-4.28,-4.1332,-3.9918,-3.8854,-3.8726,-3.8707,-3.867,-3.8542,-3.8615,-3.867,-3.8542,-3.8615,-3.867,-3.8542,-3.7404,-3.6395,-3.6138,-3.5151,-3.4346,0.0,0.0,-3.4831,-3.4792,-3.5019,-3.5141,-3.5141,-3.5174,-3.5209,-3.5209,-3.5878,-3.6375,-3.6472,-3.796,-3.8726,-3.8574,-3.9254,-3.9551,-3.9314,-3.9402,-3.9427,-3.9376,-3.9376,-3.9376,-3.9376,-3.9376,-3.9376,-3.9376,-3.9427,-4.0352,-4.1852,-4.1931,-4.3089,-4.4819,-4.4868,-4.5045,-4.5297,-4.5297,-4.5297,-4.5297,-3.8707,-3.946,-3.9955,-3.9441,-4.0084,-4.0781,-4.1075,-4.1791,-4.2598,-4.3387,-4.3497,-4.3497,-4.3497,-4.3497,-4.3497,-4.3497,-4.3497,-4.3497,-4.3497,-4.3497,-4.3497,-4.3497,-4.3497,-4.3497,-4.3497,-4.3497,-4.3497,-4.3497,-4.3497,-4.3497,-4.3497,-4.3497,-4.3497,-4.3497,-4.3497,-4.3497,-4.3497,-4.3497,-4.3497,-4.3497,-4.3497,-4.3497,-4.3497,-4.3497,-4.3497,-4.3497,-4.3497,-4.3497,-4.3497,-4.3497,-4.3497,-4.3497,-4.3497,-4.3497,-4.3497,-4.3497,-4.2892,-4.2047,-4.1313,-3.9937,-3.8707,-3.8707,-3.8707,-3.8707,-3.8707,-3.8707,-3.8707,-3.8707,-3.8707,-3.875,-3.8881,-3.796,-3.722,-3.7344,-3.6176,0.0,0.0,-3.5056,-3.5019,-3.4908,-3.5072,-3.5209,-3.5209,-3.5209,-3.54,-3.5859,-3.6279,-3.6891,-3.7808,-3.8591,-3.9221,-3.9699,-3.9967,-3.9996,-3.9717,-3.9717,-3.9647,-3.9502,-3.9502,-3.9502,-3.9502,-3.9502,-3.9502,-3.9526,-3.9647,-4.0641,-4.2195,-4.2332,-4.3434,-4.5087,-4.5087,-4.5173,-4.5297,-4.5297,-4.5297,-4.5297,-3.8707,-3.9368,-3.9863,-3.9662,-3.979,-4.0194,-4.0983,-4.1625,-4.2378,-4.3369,-4.3497,-4.3497,-4.3497,-4.3497,-4.3497,-4.3497,-4.3497,-4.3497,-4.3497,-4.3497,-4.3497,-4.3497,-4.3497,-4.3497,-4.3497,-4.3497,-4.3497,-4.3497,-4.3497,-4.3497,-4.3497,-4.3497,-4.3497,-4.3497,-4.3497,-4.3497,-4.3497,-4.3497,-4.3497,-4.3497,-4.3497,-4.3497,-4.3497,-4.3497,-4.3497,-4.3497,-4.3497,-4.3497,-4.3497,-4.3497,-4.3497,-4.3497,-4.3497,-4.3497,-4.3497,-4.3497,-4.2488,-4.135,-4.1167,-3.9937,-3.8707,-3.8707,-3.875,-3.878,-3.8689,-3.881,-3.8881,-3.881,-3.8851,-3.895,-3.9156,-3.854,-3.8059,-3.8257,0.0,0.0,0.0,-3.5951,-3.5713,-3.5571,-3.5697,-3.5783,-3.5783,-3.5783,-3.6069,-3.6738,-3.6795,-3.7349,-3.8629,-3.8897,-3.9412,-4.0272,-4.031,-4.0196,-3.9996,-3.9996,-3.9892,-3.9693,-3.9693,-3.9693,-3.9693,-3.9693,-3.9693,-3.9693,-3.9892,-4.0946,-4.2506,-4.2733,-4.3787,-4.5297,-4.5297,-4.5297,-4.5297,-4.5297,-4.5297,-4.5297,-3.8707,-3.8762,-3.8817,-3.8799,-3.8799,-3.9331,-4.0873,-4.1167,-4.1754,-4.3296,-4.3497,-4.3497,-4.3497,-4.3497,-4.3497,-4.3497,-4.3497,-4.3497,-4.3497,-4.3497,-4.3497,-4.3497,-4.3497,-4.3497,-4.3497,-4.3497,-4.3497,-4.3497,-4.3497,-4.3497,-4.3497,-4.3497,-4.3497,-4.3497,-4.3497,-4.3497,-4.3497,-4.3497,-4.3497,-4.3497,-4.3497,-4.3497,-4.3497,-4.3497,-4.3497,-4.3497,-4.3497,-4.3497,-4.3497,-4.3497,-4.3497,-4.3497,-4.3497,-4.3497,-4.3497,-4.3497,-4.2892,-4.2047,-4.1313,-3.9937,-3.8707,-3.8707,-3.8881,-3.9007,-3.875,-3.9073,-3.9376,-3.9129,-3.9272,-3.9452,-3.9477,-3.8801,-3.8281,-3.8305,0.0,0.0,-3.7277,-3.7414,-3.7521,-3.7504,-3.7521,-3.7521,-3.7521,-3.7521,-3.754,-3.7617,-3.7617,-3.7674,-3.7789,-3.8553,-3.9412,-4.0272,-4.031,-4.0291,-4.0272,-4.0272,-4.0253,-4.0234,-4.0234,-4.0234,-4.0234,-4.0234,-4.0234,-4.0234,-4.0253,-4.1227,-4.2774,-4.2794,-4.3787,-4.5297,-4.5297,-4.5297,-4.5297,-4.5297,-4.5297,-4.5317,-3.8707,-3.8707,-3.8707,-3.8707,-3.8707,-3.9074,-4.0194,-4.0781,-4.1515,-4.2598,-4.3185,-4.3497,-4.3497,-4.3497,-4.3497,-4.3497,-4.3497,-4.3497,-4.3497,-4.3497,-4.3497,-4.3497,-4.3497,-4.3497,-4.3497,-4.3497,-4.3497,-4.3497,-4.3497,-4.3497,-4.3497,-4.3497,-4.3497,-4.3497,-4.3497,-4.3497,-4.3497,-4.3497,-4.3497,-4.3497,-4.3497,-4.3497,-4.3497,-4.3497,-4.3497,-4.3497,-4.3497,-4.3497,-4.3497,-4.3497,-4.3497,-4.3497,-4.3497,-4.3497,-4.3548,-4.3749,-4.3204,-4.2353,-4.1558,-4.054,-3.9579,-3.9079,-3.9156,-3.9324,-3.9219,-3.935,-3.9408,-3.9156,-3.9324,-3.9502,-3.9502,-3.9383,-3.9353,-3.9501,0.0,-3.8404,-3.8404,-3.8001,-3.7693,-3.7693,-3.7693,-3.7693,-3.7693,-3.7693,-3.7693,-3.7693,-3.7693,-3.7941,-3.8476,-3.9336,-3.9966,-4.0291,-4.031,-4.031,-4.031,-4.031,-4.031,-4.031,-4.031,-4.031,-4.031,-4.031,-4.031,-4.031,-4.031,-4.0941,-4.1991,-4.1991,-4.2679,-4.3806,-4.4303,-4.4494,-4.4571,-4.5105,-4.5317,-4.5378,-3.8707,-3.8707,-3.8707,-3.8707,-3.8707,-3.8964,-3.9772,-4.0579,-4.1405,-4.2194,-4.3002,-4.3497,-4.3497,-4.3497,-4.3497,-4.3497,-4.3497,-4.3497,-4.3497,-4.3497,-4.3497,-4.3497,-4.3497,-4.3497,-4.3497,-4.3497,-4.3497,-4.3497,-4.3497,-4.3497,-4.3497,-4.3497,-4.3497,-4.3497,-4.3497,-4.3497,-4.3497,-4.3497,-4.3497,-4.3497,-4.3497,-4.3497,-4.3497,-4.3497,-4.3497,-4.3497,-4.3497,-4.3497,-4.3497,-4.3497,-4.3497,-4.3497,-4.3497,-4.3497,-4.3566,-4.3781,-4.3421,-4.2773,-4.1958,-4.1293,-4.0533,-3.9389,-3.9245,-3.9357,-3.9357,-3.9452,-3.9408,-3.9156,-3.9376,-3.9623,-3.9623,-3.9829,-4.0098,-4.0272,-3.9814,-3.9412,-3.9412,-3.8897,-3.8514,-3.8514,-3.8514,-3.8514,-3.8514,-3.8514,-3.84,-3.8132,-3.8113,-3.8362,-3.8973,-3.9565,-4.0024,-4.0291,-4.031,-4.031,-4.031,-4.031,-4.031,-4.031,-4.031,-4.031,-4.031,-4.031,-4.031,-4.031,-4.031,-4.0769,-4.1495,-4.1495,-4.2011,-4.2851,-4.3424,-4.3787,-4.4094,-4.4687,-4.5129,-4.54,-3.8707,-3.8707,-3.8707,-3.8707,-3.8707,-3.8964,-3.9772,-4.0579,-4.1387,-4.2194,-4.2983,-4.3479,-4.3479,-4.3497,-4.3497,-4.3497,-4.3497,-4.3497,-4.3497,-4.3497,-4.3497,-4.3497,-4.3497,-4.3497,-4.3497,-4.3497,-4.3497,-4.3497,-4.3497,-4.3497,-4.3497,-4.3497,-4.3497,-4.3497,-4.3497,-4.3497,-4.3497,-4.3497,-4.3497,-4.3497,-4.3497,-4.3497,-4.3497,-4.3497,-4.3497,-4.3497,-4.3497,-4.3479,-4.3479,-4.3479,-4.3532,-4.3532,-4.3532,-4.3532,-4.3513,-4.3513,-4.3513,-4.3348,-4.2525,-4.2117,-4.1461,-3.9593,-3.9101,-3.9101,-3.9101,-3.9324,-3.9427,-3.9165,-3.9532,-3.9914,-3.9914,-4.0118,-4.031,-4.031,-4.031,-4.031,-4.031,-4.031,-4.031,-4.031,-4.031,-4.031,-4.031,-4.031,-3.9947,-3.9069,-3.9011,-3.9011,-3.9011,-3.9011,-3.9412,-4.0272,-4.031,-4.031,-4.031,-4.031,-4.031,-4.031,-4.031,-4.031,-4.031,-4.031,-4.031,-4.031,-4.031,-4.075,-4.1476,-4.1476,-4.1991,-4.2775,-4.2794,-4.333,-4.4077,-4.4097,-4.4652,-4.54,-3.8707,-3.8707,-3.8707,-3.8707,-3.8707,-3.8964,-3.9772,-4.0102,-4.0543,-4.1368,-4.2158,-4.2653,-4.2653,-4.3149,-4.3497,-4.3497,-4.3497,-4.3497,-4.3497,-4.3497,-4.3497,-4.3497,-4.3497,-4.3497,-4.3497,-4.3497,-4.3497,-4.3497,-4.3497,-4.3497,-4.3497,-4.3497,-4.3497,-4.3497,-4.3497,-4.3497,-4.3497,-4.3497,-4.3497,-4.3497,-4.3497,-4.3497,-4.3497,-4.3497,-4.3497,-4.3497,-4.3497,-4.3649,-4.3846,-4.3846,-4.3968,-4.4143,-4.4143,-4.427,-4.4419,-4.4419,-4.4419,-4.425,-4.345,-4.3028,-4.2404,-4.0648,-4.008,-3.9933,-3.9933,-3.9996,-3.9975,-3.9717,-3.9954,-4.0118,-3.9935,-4.0118,-4.031,-4.031,-4.031,-4.031,-4.031,-4.031,-4.031,-4.031,-4.031,-4.031,-4.031,-4.031,-3.9947,-3.9069,-3.9011,-3.9011,-3.9011,-3.9584,-4.0043,-4.0291,-4.031,-4.031,-4.031,-4.031,-4.031,-4.031,-4.031,-4.031,-4.031,-4.031,-4.031,-4.031,-4.031,-4.0444,-4.0672,-4.0672,-4.0843,-4.1167,-4.178,-4.2181,-4.2564,-4.3752,-4.4346,-4.4708,-3.8707,-3.8707,-3.8707,-3.8707,-3.8707,-3.8854,-3.935,-3.9698,-4.0065,-4.0561,-4.1607,-4.2304,-4.2304,-4.302,-4.3497,-4.3497,-4.3497,-4.3497,-4.3497,-4.3497,-4.3497,-4.3497,-4.3497,-4.3497,-4.3497,-4.3497,-4.3497,-4.3497,-4.3497,-4.3497,-4.3497,-4.3497,-4.3497,-4.3497,-4.3497,-4.3497,-4.3532,-4.3649,-4.3682,-4.3716,-4.3809,-4.3855,-4.3855,-4.3855,-4.3855,-4.3855,-4.3855,-4.398,-4.4151,-4.4151,-4.4279,-4.4383,-4.4383,-4.4519,-4.465,-4.465,-4.465,-4.4537,-4.4046,-4.3643,-4.3121,-4.2096,-4.1146,-4.0395,-4.0194,-4.0057,-3.9954,-3.9781,-3.9954,-4.0098,-3.9935,-4.0118,-4.031,-4.031,-4.031,-4.031,-4.031,-4.031,-4.031,-4.031,-4.031,-4.031,-4.031,-4.031,-4.0081,-3.9546,-3.9202,-3.9145,-3.9508,-4.0024,-4.031,-4.031,-4.031,-4.031,-4.031,-4.031,-4.031,-4.031,-4.031,-4.031,-4.031,-4.031,-4.031,-4.031,-4.031,-4.029,-4.0307,-4.0325,-4.0362,-4.0454,-4.0991,-4.1411,-4.1831,-4.2848,-4.3461,-4.3955,-3.8707,-3.8707,-3.8707,-3.8707,-3.8707,-3.8707,-3.8707,-3.9313,-3.979,-3.979,-4.1185,-4.2194,-4.2194,-4.2983,-4.3497,-4.3497,-4.3497,-4.3497,-4.3497,-4.3497,-4.3497,-4.3497,-4.3497,-4.3497,-4.3497,-4.3497,-4.3497,-4.3497,-4.3497,-4.3497,-4.3497,-4.3497,-4.3497,-4.3497,-4.3513,-4.3548,-4.3548,-4.391,-4.4036,-4.4048,-4.4289,-4.4383,-4.4383,-4.4383,-4.4383,-4.4383,-4.4383,-4.443,-4.4438,-4.4484,-4.4465,-4.4465,-4.4465,-4.4465,-4.4465,-4.4465,-4.4465,-4.4465,-4.4465,-4.4121,-4.3725,-4.3649,-4.2289,-4.0834,-4.0195,-3.9834,-3.965,-3.9594,-3.9762,-3.9935,-3.9935,-4.0137,-4.031,-4.031,-4.031,-4.031,-4.031,-4.031,-4.031,-4.031,-4.031,-4.031,-4.031,-4.031,-4.031,-4.031,-3.9565,-3.947,-4.0253,-4.0291,-4.0291,-4.031,-4.031,-4.031,-4.0291,-4.031,-4.031,-4.031,-4.031,-4.031,-4.0291,-4.0291,-4.0291,-4.031,-4.0308,-4.0307,-4.0325,-4.0379,-4.0415,-4.0396,-4.0396,-4.0891,-4.1613,-4.169,-4.2244,-4.3104,-3.8707,-3.8707,-3.8707,-3.8707,-3.8707,-3.8707,-3.8707,-3.8854,-3.8964,-3.8964,-4.0359,-4.1368,-4.1368,-4.2635,-4.3497,-4.3497,-4.3497,-4.3497,-4.3497,-4.3497,-4.3497,-4.3497,-4.3497,-4.3497,-4.3497,-4.3497,-4.3497,-4.3497,-4.3497,-4.3497,-4.3497,-4.3497,-4.3497,-4.3532,-4.3781,-4.391,-4.391,-4.4192,-4.4318,-4.4318,-4.4374,-4.4383,-4.4383,-4.4383,-4.4383,-4.4383,-4.4383,-4.4546,-4.4751,-4.5019,-4.5087,-4.5087,-4.5087,-4.5087,-4.5087,-4.5087,-4.5087,-4.5087,-4.5087,-4.5017,-4.4775,-4.4067,-4.3607,-4.2919,-4.1473,-4.111,-4.0879,-4.027,-4.0176,-4.0196,-4.0196,-4.0253,-4.031,-4.031,-4.031,-4.031,-4.031,-4.031,-4.031,-4.031,-4.031,-4.031,-4.031,-4.031,-4.031,-4.031,-4.0119,-4.01,-4.0289,-4.0308,-4.0326,-4.0381,-4.0381,-4.0344,-4.0308,-4.0344,-4.0364,-4.031,-4.031,-4.031,-4.0308,-4.0308,-4.0326,-4.0381,-4.0381,-4.0415,-4.0449,-4.0466,-4.0482,-4.0492,-4.0492,-4.0588,-4.0838,-4.153,-4.1896,-4.22,-3.8707,-3.8707,-3.8707,-3.8707,-3.8707,-3.8707,-3.8707,-3.8707,-3.8707,-3.8707,-3.9772,-4.0671,-4.1075,-4.2194,-4.3075,-4.3461,-4.3497,-4.3548,-4.3716,-4.3749,-4.3795,-4.3918,-4.3949,-4.3949,-4.3949,-4.3949,-4.3809,-4.3497,-4.3497,-4.3497,-4.3497,-4.3497,-4.3497,-4.3513,-4.3846,-4.4005,-4.4036,-4.443,-4.4599,-4.4599,-4.4745,-4.4838,-4.4838,-4.4838,-4.4838,-4.4838,-4.4838,-4.491,-4.5087,-4.5235,-4.5297,-4.5297,-4.5297,-4.5297,-4.5297,-4.5297,-4.5297,-4.5297,-4.5297,-4.5297,-4.5182,-4.4723,-4.4628,-4.4074,-4.1972,-4.1495,-4.1266,-4.0482,-4.031,-4.031,-4.031,-4.031,-4.031,-4.031,-4.031,-4.031,-4.031,-4.031,-4.031,-4.031,-4.031,-4.031,-4.031,-4.031,-4.031,-4.031,-4.031,-4.0291,-4.0309,-4.0309,-4.0309,-4.0364,-4.0345,-4.0346,-4.0309,-4.0327,-4.0328,-4.031,-4.0328,-4.0345,-4.0362,-4.0362,-4.0362,-4.0415,-4.0432,-4.0485,-4.0502,-4.0515,-4.0492,-4.0489,-4.0489,-4.0489,-4.0546,-4.1008,-4.145,-4.1873,-3.8707,-3.8707,-3.8707,-3.8707,-3.8707,-3.8707,-3.8707,-3.8707,-3.8707,-3.8707,-3.9405,-4.0157,-4.0836,-4.1754,-4.2616,-4.3424,-4.3497,-4.356,-4.3706,-4.3751,-4.3886,-4.4093,-4.4149,-4.4252,-4.4383,-4.4383,-4.4154,-4.3664,-4.3664,-4.3664,-4.3664,-4.3664,-4.3664,-4.3664,-4.3999,-4.4121,-4.4181,-4.4669,-4.491,-4.491,-4.5194,-4.5297,-4.5297,-4.5297,-4.5297,-4.5297,-4.5297,-4.5297,-4.5297,-4.5297,-4.5297,-4.5297,-4.5297,-4.5297,-4.5297,-4.5297,-4.5297,-4.5297,-4.5297,-4.5297,-4.5297,-4.5297,-4.5297,-4.4704,-4.2431,-4.182,-4.1457,-4.0501,-4.031,-4.031,-4.031,-4.031,-4.031,-4.031,-4.031,-4.031,-4.031,-4.031,-4.031,-4.031,-4.031,-4.031,-4.031,-4.031,-4.031,-4.031,-4.031,-4.031,-4.0291,-4.0291,-4.031,-4.0329,-4.0329,-4.031,-4.0291,-4.031,-4.031,-4.0291,-4.0363,-4.0379,-4.0379,-4.0379,-4.0398,-4.0415,-4.0485,-4.0502,-4.0499,-4.0492,-4.0489,-4.0489,-4.0489,-4.0489,-4.0489,-4.0489,-4.095,-4.1585,-3.8707,-3.8707,-3.8707,-3.8707,-3.8707,-3.8707,-3.8707,-3.8707,-3.8707,-3.8707,-3.9405,-3.9937,-4.0047,-4.1405,-4.2616,-4.3424,-4.3497,-4.322,-4.2573,-4.2741,-4.289,-4.2943,-4.3156,-4.3624,-4.4364,-4.4383,-4.4355,-4.4289,-4.4289,-4.4289,-4.4289,-4.4289,-4.4289,-4.427,-4.4572,-4.4676,-4.472,-4.5087,-4.5235,-4.5235,-4.5277,-4.5297,-4.5297,-4.5297,-4.5297,-4.5297,-4.5297,-4.5297,-4.5297,-4.5297,-4.5297,-4.5297,-4.5297,-4.5297,-4.5297,-4.5297,-4.5297,-4.5297,-4.5297,-4.5297,-4.5297,-4.5297,-4.5297,-4.501,-4.3921,-4.3119,-4.2183,-4.0635,-4.031,-4.031,-4.031,-4.031,-4.031,-4.031,-4.031,-4.031,-4.031,-4.031,-4.031,-4.031,-4.031,-4.031,-4.031,-4.031,-4.031,-4.031,-4.031,-4.031,-4.0289,-4.0289,-4.0326,-4.0381,-4.0381,-4.0344,-4.0289,-4.0344,-4.0344,-4.0289,-4.0362,-4.0362,-4.0307,-4.0307,-4.0379,-4.0485,-4.0502,-4.0515,-4.0508,-4.0489,-4.0489,-4.0489,-4.0489,-4.0489,-4.0489,-4.0489,-4.0566,-4.0681,-3.8707,-3.8707,-3.8707,-3.8707,-3.8707,-3.8707,-3.8707,-3.8707,-3.8707,-3.8707,-3.9019,-3.9405,-3.9845,-4.1332,-4.2684,-4.3707,-4.3781,-4.3757,-4.3689,-4.3811,-4.3947,-4.4128,-4.4264,-4.4507,-4.4887,-4.4887,-4.4887,-4.4887,-4.4565,-4.4383,-4.4383,-4.4383,-4.4383,-4.4411,-4.4676,-4.48,-4.48,-4.5173,-4.5297,-4.5297,-4.5297,-4.5297,-4.5297,-4.5297,-4.5297,-4.5297,-4.5297,-4.5297,-4.5297,-4.5297,-4.5297,-4.5297,-4.5297,-4.5297,-4.5297,-4.5297,-4.5297,-4.5297,-4.5297,-4.5297,-4.5297,-4.5297,-4.5297,-4.5067,-4.4208,-4.373,-4.3004,-4.1323,-4.0979,-4.0826,-4.0387,-4.031,-4.031,-4.031,-4.031,-4.031,-4.031,-4.031,-4.031,-4.031,-4.031,-4.031,-4.031,-4.031,-4.031,-4.031,-4.031,-4.0291,-4.0291,-4.0309,-4.0309,-4.0346,-4.0346,-4.0346,-4.0309,-4.0346,-4.0346,-4.0309,-4.0346,-4.0345,-4.0362,-4.0396,-4.0449,-4.0502,-4.0495,-4.0492,-4.0489,-4.0489,-4.0489,-4.0489,-4.0489,-4.0489,-4.0489,-4.0489,-4.0489,-4.0489]}]]